[[{"header":{"parameterUnit":"m.s-1","parameterCategory":1,"la1":31.0,"la2":29.5877,"lo1":-88.7671,"lo2":-86.6584,"dy":0.0162,"dx":0.0185,"nx":115,"ny":88,"refTime":"2024-09-19T12:00:00:Z","depth":0,"parameterNumber":2,"parameterNumberName":"U-component_of_WINDS"},"data":[0.0,0.0,0.0,0.0,0.0,0.0,0.0,0.0,0.0,0.0,0.0,0.0,0.0,0.0,0.0,0.0,0.0,0.0,0.0,0.0,0.0,0.0,0.0,0.0,0.0,0.0,0.0,0.0,0.0,0.0,0.0,0.0,0.0,0.0,0.0,0.0,0.0,0.0,0.0,0.0,0.0,0.0,0.0,0.0,0.0,0.0,0.0,0.0,0.0,0.0,0.0,0.0,0.0,0.0,0.0,0.0,0.0,0.0,0.0,0.0,0.0,0.0,0.0,0.0,0.0,0.0,0.0,0.0,0.0,0.0,0.0,0.0,0.0,0.0,0.0,0.0,0.0,0.0,0.0,0.0,0.0,0.0,0.0,0.0,0.0,0.0,0.0,0.0,0.0,0.0,0.0,0.0,0.0,0.0,0.0,0.0,0.0,0.0,0.0,0.0,0.0,0.0,0.0,0.0,0.0,0.0,0.0,0.0,0.0,0.0,0.0,0.0,0.0,0.0,0.0,0.0,0.0,0.0,0.0,0.0,0.0,0.0,0.0,0.0,0.0,0.0,0.0,0.0,0.0,0.0,0.0,0.0,0.0,0.0,0.0,0.0,0.0,0.0,0.0,0.0,0.0,0.0,0.0,0.0,0.0,0.0,0.0,0.0,0.0,0.0,0.0,0.0,0.0,0.0,0.0,0.0,0.0,0.0,0.0,0.0,0.0,0.0,0.0,0.0,0.0,0.0,0.0,0.0,0.0,0.0,0.0,0.0,0.0,0.0,0.0,0.0,0.0,0.0,0.0,0.0,0.0,0.0,0.0,0.0,0.0,0.0,0.0,0.0,0.0,0.0,0.0,0.0,0.0,0.0,0.0,0.0,0.0,0.0,0.0,0.0,0.0,0.0,0.0,0.0,0.0,0.0,0.0,0.0,0.0,0.0,0.0,0.0,0.0,0.0,0.0,0.0,0.0,0.0,0.0,0.0,0.0,0.0,0.0,0.0,0.0,0.0,0.0,0.0,0.0,0.0,0.0,0.0,0.0,0.0,0.0,0.0,0.0,0.0,0.0,0.0,0.0,0.0,0.0,0.0,0.0,0.0,0.0,0.0,0.0,0.0,0.0,0.0,0.0,0.0,0.0,0.0,0.0,0.0,0.0,0.0,0.0,0.0,0.0,0.0,0.0,0.0,0.0,0.0,0.0,0.0,0.0,0.0,0.0,0.0,0.0,0.0,0.0,0.0,0.0,0.0,0.0,0.0,0.0,0.0,0.0,0.0,0.0,0.0,0.0,0.0,0.0,0.0,0.0,0.0,0.0,0.0,0.0,0.0,0.0,0.0,0.0,0.0,0.0,0.0,0.0,0.0,0.0,0.0,0.0,0.0,0.0,0.0,0.0,0.0,0.0,0.0,0.0,0.0,0.0,0.0,0.0,0.0,0.0,0.0,0.0,0.0,0.0,0.0,0.0,0.0,0.0,0.0,0.0,0.0,0.0,0.0,0.0,0.0,0.0,0.0,0.0,0.0,0.0,0.0,0.0,0.0,0.0,0.0,0.0,0.0,0.0,0.0,0.0,0.0,0.0,0.0,0.0,0.0,0.0,0.0,0.0,0.0,0.0,0.0,0.0,0.0,0.0,0.0,0.0,0.0,0.0,0.0,0.0,0.0,0.0,0.0,0.0,0.0,0.0,0.0,0.0,0.0,0.0,0.0,0.0,0.0,0.0,0.0,0.0,0.0,0.0,0.0,0.0,0.0,0.0,0.0,0.0,0.0,0.0,0.0,0.0,0.0,0.0,0.0,0.0,0.0,0.0,0.0,0.0,0.0,0.0,0.0,0.0,0.0,0.0,0.0,0.0,0.0,0.0,0.0,0.0,0.0,0.0,0.0,0.0,0.0,0.0,0.0,0.0,0.0,0.0,0.0,0.0,0.0,0.0,0.0,0.0,0.0,0.0,0.0,0.0,0.0,0.0,0.0,0.0,0.0,0.0,0.0,0.0,0.0,0.0,0.0,0.0,0.0,0.0,0.0,0.0,0.0,0.0,0.0,0.0,0.0,0.0,0.0,0.0,0.0,0.0,0.0,0.0,0.0,0.0,0.0,0.0,0.0,0.0,0.0,0.0,0.0,0.0,0.0,0.0,0.0,0.0,0.0,0.0,0.0,0.0,0.0,0.0,0.0,0.0,0.0,0.0,0.0,0.0,0.0,0.0,0.0,0.0,0.0,0.0,0.0,0.0,0.0,0.0,0.0,0.0,0.0,0.0,0.0,0.0,0.0,0.0,0.0,0.0,0.0,0.0,0.0,0.0,0.0,0.0,0.0,0.0,0.0,0.0,0.0,0.0,0.0,0.0,0.0,0.0,0.0,0.0,0.0,0.0,0.0,0.0,0.0,0.0,0.0,0.0,0.0,0.0,0.0,0.0,0.0,0.0,0.0,0.0,0.0,0.0,0.0,0.0,0.0,0.0,0.0,0.0,0.0,0.0,0.0,0.0,0.0,0.0,0.0,0.0,0.0,0.0,0.0,0.0,0.0,0.0,0.0,0.0,0.0,0.0,0.0,0.0,0.0,0.0,0.0,0.0,0.0,0.0,0.0,0.0,0.0,0.0,0.0,0.0,0.0,0.0,0.0,0.0,0.0,0.0,0.0,0.0,0.0,0.0,0.0,0.0,0.0,0.0,0.0,0.0,0.0,0.0,0.0,0.0,0.0,0.0,0.0,0.0,0.0,0.0,0.0,0.0,0.0,0.0,0.0,0.0,0.0,0.0,0.0,0.0,0.0,0.0,0.0,0.0,0.0,0.0,0.0,0.0,0.0,0.0,0.0,0.0,0.0,0.0,0.0,0.0,0.0,0.0,0.0,0.0,0.0,0.0,0.0,0.0,0.0,0.0,0.0,0.0,0.0,0.0,0.0,0.0,0.0,0.0,0.0,0.0,0.0,0.0,0.0,0.0,0.0,0.0,0.0,0.0,0.0,0.0,0.0,0.0,0.0,0.0,0.0,0.0,0.0,0.0,0.0,0.0,0.0,0.0,0.0,0.0,0.0,0.0,0.0,0.0,0.0,0.0,0.0,0.0,0.0,0.0,0.0,0.0,0.0,0.0,0.0,0.0,0.0,0.0,0.0,0.0,0.0,0.0,0.0,0.0,0.0,0.0,0.0,0.0,0.0,0.0,0.0,0.0,0.0,0.0,0.0,0.0,0.0,0.0,0.0,0.0,0.0,0.0,0.0,0.0,0.0,0.0,0.0,0.0,0.0,0.0,0.0,0.0,0.0,0.0,0.0,0.0,0.0,0.0,0.0,0.0,0.0,0.0,0.0,0.0,0.0,0.0,0.0,0.0,0.0,0.0,0.0,0.0,0.0,0.0,0.0,0.0,0.0,0.0,0.0,0.0,0.0,0.0,0.0,0.0,0.0,0.0,0.0,0.0,0.0,0.0,0.0,0.0,0.0,0.0,0.0,0.0,0.0,0.0,0.0,0.0,0.0,0.0,0.0,0.0,0.0,0.0,0.0,0.0,0.0,0.0,0.0,0.0,0.0,0.0,0.0,0.0,0.0,0.0,0.0,0.0,0.0,0.0,0.0,0.0,0.0,0.0,0.0,0.0,0.0,0.0,0.0,0.0,0.0,0.0,0.0,0.0,0.0,0.0,0.0,0.0,0.0,0.0,0.0,0.0,0.0,0.0,0.0,0.0,0.0,0.0,0.0,0.0,0.0,0.0,0.0,0.0,0.0,0.0,0.0,0.0,0.0,0.0,0.0,0.0,0.0,0.0,0.0,0.0,0.0,0.0,0.0,0.0,0.0,0.0,0.0,0.0,0.0,0.0,0.0,0.0,0.0,0.0,0.0,0.0,0.0,0.0,0.0,0.0,0.0,0.0,0.0,0.0,0.0,0.0,0.0,0.0,0.0,0.0,0.0,0.0,0.0,0.0,0.0,0.0,0.0,0.0,0.0,0.0,0.0,0.0,0.0,0.0,0.0,0.0,0.0,0.0,0.0,0.0,0.0,0.0,0.0,0.0,0.0,0.0,0.0,0.0,0.0,0.0,0.0,0.0,0.0,0.0,0.0,0.0,0.0,0.0,0.0,0.0,0.0,0.0,0.0,0.0,0.0,0.0,0.0,0.0,0.0,0.0,0.0,0.0,0.0,0.0,0.0,0.0,0.0,0.0,0.0,0.0,0.0,0.0,0.0,0.0,0.0,0.0,0.0,0.0,0.0,0.0,0.0,0.0,0.0,0.0,0.0,0.0,0.0,0.0,0.0,0.0,0.0,0.0,0.0,2.3061,0.0,0.0,0.0,0.0,0.0,0.0,0.0,0.0,0.0,0.0,0.0,0.0,0.0,0.0,0.0,0.0,0.0,0.0,0.0,0.0,0.0,0.0,0.0,0.0,0.0,0.0,0.0,0.0,0.0,0.0,0.0,0.0,0.0,0.0,0.0,0.0,0.0,0.0,0.0,0.0,0.0,0.0,0.0,0.0,0.0,0.0,0.0,0.0,0.0,0.0,0.0,0.0,0.0,0.0,0.0,0.0,0.0,0.0,0.0,0.0,0.0,0.0,0.0,0.0,0.0,0.0,0.0,0.0,0.0,0.0,0.0,0.0,0.0,0.0,0.0,0.0,0.0,0.0,0.0,0.0,0.0,0.0,0.0,0.0,0.0,0.0,0.0,0.0,0.0,0.0,0.0,0.0,0.0,0.0,0.0,0.0,0.0,0.0,0.0,0.0,0.0,0.0,0.0,0.0,0.0,0.0,0.0,0.0,0.0,0.0,2.459,2.4961,2.3769,2.3099,2.3058,0.0,0.0,0.0,0.0,0.0,0.0,0.0,0.0,0.0,0.0,0.0,0.0,0.0,0.0,0.0,0.0,0.0,0.0,0.0,0.0,0.0,0.0,0.0,0.0,0.0,0.0,0.0,0.0,0.0,0.0,0.0,0.0,0.0,0.0,0.0,0.0,0.0,0.0,0.0,0.0,0.0,0.0,0.0,0.0,0.0,0.0,0.0,0.0,0.0,0.0,0.0,0.0,0.0,0.0,0.0,0.0,0.0,0.0,0.0,0.0,0.0,0.0,0.0,0.0,0.0,0.0,0.0,0.0,0.0,0.0,0.0,0.0,0.0,0.0,0.0,0.0,0.0,0.0,0.0,0.0,0.0,0.0,0.0,0.0,0.0,0.0,0.0,0.0,0.0,0.0,0.0,0.0,0.0,0.0,0.0,0.0,0.0,0.0,0.0,0.0,0.0,0.0,0.0,0.0,0.0,0.0,0.0,0.0,0.0,0.0,0.0,0.0,2.3281,2.2611,2.2204,0.0,0.0,0.0,0.0,0.0,0.0,0.0,0.0,0.0,0.0,0.0,0.0,0.0,0.0,0.0,0.0,0.0,0.0,0.0,0.0,0.0,0.0,0.0,0.0,0.0,0.0,0.0,0.0,0.0,0.0,0.0,0.0,0.0,0.0,0.0,0.0,0.0,0.0,0.0,0.0,0.0,0.0,0.0,0.0,0.0,0.0,0.0,0.0,0.0,0.0,0.0,0.0,0.0,0.0,0.0,0.0,0.0,0.0,0.0,0.0,0.0,0.0,0.0,0.0,0.0,0.0,0.0,0.0,0.0,0.0,0.0,0.0,0.0,0.0,0.0,0.0,0.0,0.0,0.0,0.0,0.0,0.0,0.0,0.0,0.0,0.0,0.0,0.0,0.0,0.0,0.0,0.0,0.0,0.0,0.0,0.0,0.0,0.0,0.0,0.0,0.0,0.0,0.0,0.0,0.0,0.0,0.0,0.0,0.0,0.0,2.2461,2.3164,2.2422,0.0,1.9681,0.0,0.0,0.0,0.0,0.0,0.0,0.0,0.0,0.0,0.0,0.0,0.0,0.0,0.0,0.0,0.0,0.0,0.0,0.0,0.0,0.0,0.0,0.0,0.0,0.0,0.0,0.0,0.0,0.0,0.0,0.0,0.0,0.0,0.0,0.0,0.0,0.0,0.0,0.0,0.0,0.0,0.0,0.0,0.0,0.0,0.0,0.0,0.0,0.0,0.0,0.0,0.0,0.0,0.0,0.0,0.0,0.0,0.0,0.0,0.0,0.0,0.0,0.0,0.0,0.0,0.0,0.0,0.0,0.0,0.0,0.0,0.0,0.0,0.0,0.0,0.0,0.0,0.0,0.0,0.0,0.0,0.0,0.0,0.0,0.0,0.0,0.0,0.0,0.0,0.0,0.0,0.0,0.0,0.0,0.0,0.0,0.0,0.0,0.0,0.0,0.0,0.0,0.0,0.0,0.0,0.0,0.0,0.0,0.0,0.0,0.0,2.2383,2.1538,2.0494,0.0,0.0,0.0,0.0,0.0,0.0,0.0,0.0,0.0,0.0,0.0,0.0,0.0,0.0,0.0,0.0,0.0,0.0,0.0,0.0,0.0,0.0,0.0,0.0,0.0,0.0,0.0,0.0,0.0,0.0,0.0,0.0,0.0,0.0,0.0,0.0,0.0,0.0,0.0,0.0,0.0,0.0,0.0,0.0,0.0,0.0,0.0,0.0,0.0,0.0,0.0,0.0,0.0,0.0,0.0,0.0,0.0,0.0,0.0,0.0,0.0,0.0,0.0,0.0,0.0,0.0,0.0,0.0,0.0,0.0,0.0,0.0,0.0,0.0,0.0,0.0,0.0,0.0,0.0,0.0,0.0,0.0,0.0,0.0,0.0,0.0,0.0,0.0,0.0,0.0,0.0,0.0,0.0,0.0,0.0,0.0,0.0,0.0,0.0,0.0,0.0,0.0,0.0,0.0,0.0,0.0,0.0,0.0,0.0,0.0,2.1211,0.0,2.1523,2.0879,1.999,1.8889,0.0,0.0,0.0,0.0,0.0,0.0,0.0,0.0,0.0,0.0,0.0,0.0,0.0,0.0,0.0,0.0,0.0,0.0,0.0,0.0,0.0,0.0,0.0,0.0,0.0,0.0,0.0,0.0,0.0,0.0,0.0,0.0,0.0,0.0,0.0,0.0,0.0,0.0,0.0,0.0,0.0,0.0,0.0,0.0,0.0,0.0,0.0,0.0,0.0,0.0,0.0,0.0,0.0,0.0,0.0,0.0,0.0,0.0,0.0,0.0,0.0,0.0,0.0,0.0,0.0,0.0,0.0,0.0,0.0,0.0,0.0,0.0,0.0,0.0,0.0,0.0,0.0,0.0,0.0,0.0,0.0,0.0,0.0,0.0,0.0,0.0,0.0,0.0,0.0,0.0,0.0,0.0,0.0,0.0,0.0,0.0,0.0,0.0,0.0,0.0,0.0,0.0,0.0,0.0,0.0,0.0,0.0,0.0,0.0,2.0644,2.0664,2.0664,2.0625,1.9764,0.0,0.0,0.0,0.0,0.0,0.0,0.0,0.0,0.0,0.0,0.0,0.0,0.0,0.0,0.0,0.0,0.0,0.0,0.0,0.0,0.0,0.0,0.0,0.0,0.0,0.0,0.0,0.0,0.0,0.0,0.0,0.0,0.0,0.0,0.0,0.0,0.0,0.0,0.0,0.0,0.0,0.0,0.0,0.0,0.0,0.0,0.0,0.0,0.0,0.0,0.0,0.0,0.0,0.0,0.0,0.0,0.0,0.0,0.0,0.0,0.0,0.0,0.0,0.0,0.0,0.0,0.0,0.0,0.0,0.0,0.0,0.0,0.0,0.0,0.0,0.0,0.0,0.0,0.0,0.0,0.0,0.0,0.0,0.0,0.0,0.0,0.0,0.0,0.0,0.0,0.0,0.0,0.0,0.0,0.0,0.0,0.0,0.0,0.0,0.0,0.0,0.0,0.0,0.0,0.0,0.0,0.0,0.0,0.0,2.0605,2.0605,2.0605,2.0566,1.9492,1.8566,0.0,0.0,0.0,0.0,0.0,0.0,0.0,0.0,0.0,0.0,0.0,0.0,0.0,0.0,0.0,0.0,0.0,0.0,0.0,0.0,0.0,0.0,0.0,0.0,0.0,0.0,0.0,0.0,0.0,0.0,0.0,0.0,0.0,0.0,0.0,0.0,0.0,0.0,0.0,0.0,0.0,0.0,0.0,0.0,0.0,0.0,0.0,0.0,0.0,0.0,0.0,0.0,0.0,0.0,0.0,0.0,0.0,0.0,0.0,0.0,0.0,0.0,0.0,0.0,0.0,0.0,0.0,0.0,0.0,0.0,0.0,0.0,0.0,0.0,0.0,0.0,0.0,0.0,0.0,0.0,0.0,0.0,0.0,0.0,0.0,0.0,0.0,0.0,0.0,0.0,0.0,0.0,0.0,0.0,0.0,0.0,0.0,0.0,0.0,0.0,0.0,0.0,0.0,0.0,0.0,0.0,0.0,0.0,0.0,2.0605,0.0,2.0605,0.0,1.9141,1.8218,0.0,0.0,0.0,0.0,0.0,0.0,0.0,0.0,0.0,0.0,0.0,0.0,0.0,0.0,0.0,0.0,0.0,0.0,0.0,0.0,0.0,0.0,0.0,0.0,0.0,0.0,0.0,0.0,0.0,0.0,0.0,0.0,0.0,0.0,0.0,0.0,0.0,0.0,0.0,0.0,0.0,0.0,0.0,0.0,0.0,0.0,0.0,0.0,0.0,0.0,0.0,0.0,0.0,0.0,0.0,0.0,0.0,0.0,0.0,0.0,0.0,0.0,0.0,0.0,0.0,0.0,0.0,0.0,0.0,0.0,0.0,0.0,0.0,0.0,0.0,0.0,0.0,0.0,0.0,0.0,0.0,0.0,0.0,0.0,0.0,0.0,0.0,0.0,0.0,0.0,0.0,0.0,0.0,0.0,0.0,0.0,0.0,0.0,0.0,0.0,0.0,0.0,0.0,0.0,0.0,0.0,0.0,0.0,2.0605,2.0566,2.0586,2.0605,2.0586,1.9727,1.8841,0.0,0.0,0.0,0.0,0.0,0.0,0.0,0.0,0.0,0.0,0.0,0.0,0.0,0.0,0.0,0.0,0.0,0.0,0.0,0.0,0.0,0.0,0.0,0.0,0.0,0.0,0.0,0.0,0.0,0.0,0.0,0.0,0.0,0.0,0.0,0.0,0.0,0.0,0.0,0.0,0.0,0.0,0.0,0.0,0.0,0.0,0.0,0.0,0.0,0.0,0.0,0.0,0.0,0.0,0.0,0.0,0.0,0.0,0.0,0.0,0.0,0.0,0.0,0.0,0.0,0.0,0.0,0.0,0.0,0.0,0.0,0.0,0.0,0.0,0.0,0.0,0.0,0.0,0.0,0.0,0.0,0.0,0.0,0.0,0.0,0.0,0.0,0.0,0.0,0.0,0.0,0.0,0.0,0.0,0.0,0.0,0.0,0.0,0.0,0.0,0.0,0.0,0.0,0.0,0.0,0.0,0.0,0.0,0.0,1.9668,2.0234,2.0527,2.0488,1.9639,1.875,0.0,0.0,0.0,0.0,0.0,0.0,0.0,0.0,0.0,0.0,0.0,0.0,0.0,0.0,0.0,0.0,0.0,0.0,0.0,0.0,0.0,0.0,0.0,0.0,0.0,0.0,0.0,0.0,0.0,0.0,0.0,0.0,0.0,0.0,0.0,0.0,0.0,0.0,0.0,0.0,0.0,0.0,0.0,0.0,0.0,0.0,0.0,0.0,0.0,0.0,0.0,0.0,0.0,0.0,0.0,0.0,0.0,0.0,0.0,0.0,0.0,0.0,0.0,0.0,0.0,0.0,0.0,0.0,0.0,0.0,0.0,0.0,0.0,0.0,0.0,0.0,0.0,0.0,0.0,0.0,0.0,0.0,0.0,0.0,0.0,0.0,0.0,0.0,0.0,0.0,0.0,0.0,0.0,0.0,0.0,0.0,0.0,0.0,0.0,0.0,0.0,0.0,0.0,0.0,0.0,0.0,0.0,0.0,0.0,1.881,1.9863,2.0469,2.0503,1.96,1.8846,1.8295,0.0,0.0,0.0,0.0,0.0,0.0,0.0,0.0,0.0,0.0,0.0,0.0,0.0,0.0,0.0,0.0,0.0,0.0,0.0,0.0,0.0,0.0,0.0,0.0,0.0,0.0,0.0,0.0,0.0,0.0,0.0,0.0,0.0,0.0,0.0,0.0,0.0,0.0,0.0,0.0,0.0,0.0,0.0,0.0,0.0,0.0,0.0,0.0,0.0,0.0,0.0,0.0,0.0,0.0,0.0,0.0,0.0,0.0,0.0,0.0,0.0,0.0,0.0,0.0,0.0,0.0,0.0,0.0,0.0,0.0,0.0,0.0,0.0,0.0,0.0,0.0,0.0,0.0,0.0,0.0,0.0,0.0,0.0,0.0,0.0,0.0,0.0,0.0,0.0,0.0,0.0,0.0,0.0,0.0,0.0,0.0,0.0,0.0,0.0,0.0,0.0,0.0,0.0,0.0,0.0,0.0,0.0,0.0,1.7972,1.9512,2.0347,2.0404,1.9596,1.9154,0.0,0.0,0.0,0.0,0.0,0.0,0.0,0.0,0.0,0.0,0.0,0.0,0.0,0.0,0.0,0.0,0.0,0.0,0.0,0.0,0.0,0.0,0.0,0.0,0.0,0.0,0.0,0.0,0.0,0.0,0.0,0.0,0.0,0.0,0.0,0.0,0.0,0.0,0.0,0.0,0.0,0.0,0.0,0.0,0.0,0.0,0.0,0.0,0.0,0.0,0.0,0.0,0.0,0.0,0.0,0.0,0.0,0.0,0.0,0.0,0.0,0.0,0.0,0.0,0.0,0.0,0.0,0.0,0.0,0.0,0.0,0.0,0.0,0.0,0.0,0.0,0.0,0.0,0.0,0.0,0.0,0.0,0.0,0.0,0.0,0.0,0.0,0.0,0.0,0.0,0.0,0.0,0.0,0.0,0.0,0.0,0.0,0.0,0.0,0.0,0.0,0.0,0.0,0.0,0.0,0.0,0.0,0.0,0.0,1.872,1.9124,1.9415,1.9477,1.9815,1.9688,0.0,0.0,0.0,0.0,0.0,0.0,0.0,0.0,0.0,0.0,0.0,0.0,0.0,0.0,0.0,0.0,0.0,0.0,0.0,0.0,0.0,0.0,0.0,0.0,0.0,0.0,0.0,0.0,0.0,0.0,0.0,0.0,0.0,0.0,0.0,0.0,0.0,0.0,0.0,0.0,0.0,0.0,0.0,0.0,0.0,0.0,0.0,0.0,0.0,0.0,0.0,0.0,0.0,0.0,0.0,0.0,0.0,0.0,0.0,0.0,0.0,0.0,0.0,0.0,0.0,0.0,0.0,0.0,0.0,0.0,0.0,0.0,0.0,0.0,0.0,0.0,0.0,0.0,0.0,0.0,0.0,0.0,0.0,0.0,0.0,0.0,0.0,0.0,0.0,0.0,0.0,0.0,0.0,0.0,0.0,0.0,0.0,0.0,0.0,0.0,0.0,0.0,0.0,0.0,0.0,0.0,0.0,0.0,1.9177,1.8363,1.8392,1.8457,1.8562,1.9333,1.97,0.0,0.0,0.0,0.0,0.0,0.0,0.0,0.0,0.0,0.0,0.0,0.0,0.0,0.0,0.0,0.0,0.0,0.0,0.0,0.0,0.0,0.0,0.0,0.0,0.0,0.0,0.0,0.0,0.0,0.0,0.0,0.0,0.0,0.0,0.0,0.0,0.0,0.0,0.0,0.0,0.0,0.0,0.0,0.0,0.0,0.0,0.0,0.0,0.0,0.0,0.0,0.0,0.0,0.0,0.0,0.0,0.0,0.0,0.0,0.0,0.0,0.0,0.0,0.0,0.0,0.0,0.0,0.0,0.0,0.0,0.0,0.0,0.0,0.0,0.0,0.0,0.0,0.0,0.0,0.0,0.0,0.0,0.0,0.0,0.0,0.0,0.0,0.0,0.0,0.0,0.0,0.0,0.0,0.0,0.0,0.0,0.0,0.0,0.0,0.0,0.0,0.0,0.0,0.0,0.0,0.0,0.0,0.0,1.826,1.7585,1.7484,1.7538,1.768,1.8512,1.9388,0.0,0.0,0.0,0.0,0.0,0.0,0.0,0.0,0.0,0.0,0.0,0.0,0.0,0.0,0.0,0.0,0.0,0.0,0.0,0.0,0.0,0.0,0.0,0.0,0.0,0.0,0.0,0.0,0.0,0.0,0.0,0.0,0.0,0.0,0.0,0.0,0.0,0.0,0.0,0.0,0.0,0.0,0.0,0.0,0.0,0.0,0.0,0.0,0.0,0.0,0.0,0.0,0.0,0.0,0.0,0.0,0.0,0.0,0.0,0.0,0.0,0.0,0.0,0.0,0.0,0.0,0.0,0.0,0.0,0.0,0.0,0.0,0.0,0.0,0.0,0.0,0.0,0.0,0.0,0.0,0.0,0.0,0.0,0.0,0.0,0.0,0.0,0.0,0.0,0.0,0.0,0.0,0.0,0.0,0.0,0.0,0.0,0.0,0.0,0.0,0.0,0.0,0.0,0.0,0.0,0.0,0.0,0.0,1.8197,1.7385,1.6835,1.6649,1.6795,1.8126,1.9233,0.0,0.0,0.0,0.0,0.0,0.0,0.0,0.0,0.0,0.0,0.0,0.0,0.0,0.0,0.0,0.0,0.0,0.0,0.0,0.0,0.0,0.0,0.0,0.0,0.0,0.0,0.0,0.0,0.0,0.0,0.0,0.0,0.0,0.0,0.0,0.0,0.0,0.0,0.0,0.0,0.0,0.0,0.0,0.0,0.0,0.0,0.0,0.0,2.1307,0.0,0.0,0.0,0.0,0.0,0.0,0.0,0.0,0.0,0.0,0.0,0.0,0.0,0.0,0.0,0.0,0.0,0.0,0.0,0.0,0.0,0.0,0.0,0.0,0.0,0.0,0.0,0.0,0.0,0.0,0.0,0.0,0.0,0.0,0.0,0.0,0.0,0.0,0.0,0.0,0.0,0.0,0.0,0.0,0.0,0.0,0.0,0.0,0.0,0.0,0.0,0.0,0.0,0.0,0.0,0.0,0.0,0.0,0.0,1.7693,1.7302,1.6269,1.599,1.6511,1.7642,1.8639,0.0,0.0,0.0,0.0,0.0,0.0,0.0,0.0,0.0,0.0,0.0,0.0,0.0,0.0,0.0,0.0,0.0,0.0,0.0,0.0,0.0,0.0,0.0,0.0,0.0,0.0,0.0,0.0,0.0,0.0,0.0,0.0,0.0,0.0,0.0,0.0,0.0,0.0,0.0,0.0,0.0,0.0,0.0,0.0,0.0,0.0,0.0,0.0,0.0,0.0,0.0,0.0,0.0,0.0,0.0,0.0,0.0,0.0,0.0,0.0,0.0,0.0,0.0,0.0,0.0,0.0,0.0,0.0,0.0,0.0,0.0,0.0,0.0,0.0,0.0,0.0,0.0,0.0,0.0,0.0,0.0,0.0,0.0,0.0,0.0,0.0,0.0,0.0,0.0,0.0,0.0,0.0,0.0,0.0,0.0,0.0,0.0,0.0,0.0,0.0,0.0,0.0,0.0,0.0,0.0,0.0,0.0,1.7105,1.706,1.7227,1.5847,1.5496,1.6269,1.703,1.7819,1.8547,0.0,0.0,0.0,0.0,0.0,0.0,0.0,0.0,0.0,0.0,0.0,0.0,0.0,0.0,0.0,0.0,0.0,0.0,0.0,0.0,0.0,0.0,0.0,0.0,0.0,0.0,0.0,0.0,0.0,0.0,0.0,0.0,0.0,0.0,0.0,0.0,0.0,0.0,1.9834,2.0626,0.0,0.0,0.0,0.0,0.0,0.0,0.0,0.0,2.1735,0.0,0.0,0.0,0.0,0.0,0.0,0.0,0.0,0.0,0.0,0.0,0.0,0.0,0.0,0.0,0.0,0.0,0.0,0.0,0.0,0.0,0.0,0.0,0.0,0.0,0.0,0.0,0.0,0.0,0.0,0.0,0.0,0.0,0.0,0.0,0.0,0.0,0.0,0.0,0.0,0.0,0.0,0.0,0.0,0.0,0.0,0.0,0.0,0.0,0.0,0.0,0.0,0.0,0.0,0.0,0.0,1.8192,1.682,1.65,1.7246,1.5876,1.5209,1.543,1.6301,1.676,1.6791,0.0,0.0,0.0,0.0,0.0,0.0,0.0,0.0,0.0,0.0,0.0,0.0,0.0,0.0,0.0,0.0,0.0,0.0,0.0,0.0,0.0,0.0,0.0,0.0,0.0,0.0,0.0,0.0,0.0,0.0,0.0,0.0,0.0,0.0,0.0,0.0,0.0,0.0,0.0,2.1739,2.2884,0.0,0.0,0.0,0.0,0.0,0.0,0.0,0.0,2.1864,0.0,0.0,0.0,0.0,0.0,0.0,0.0,0.0,0.0,0.0,0.0,0.0,0.0,0.0,0.0,0.0,0.0,0.0,0.0,0.0,0.0,0.0,0.0,0.0,0.0,0.0,0.0,0.0,0.0,0.0,0.0,0.0,0.0,0.0,0.0,0.0,0.0,0.0,0.0,0.0,0.0,0.0,0.0,0.0,0.0,0.0,0.0,0.0,0.0,0.0,0.0,0.0,0.0,0.0,0.0,1.7689,1.6997,1.6835,1.7256,1.5926,1.5201,1.5285,1.6133,1.6291,0.0,0.0,0.0,0.0,0.0,0.0,0.0,0.0,0.0,0.0,0.0,0.0,0.0,0.0,0.0,0.0,0.0,0.0,0.0,0.0,0.0,0.0,0.0,0.0,0.0,0.0,0.0,0.0,0.0,0.0,0.0,0.0,0.0,0.0,0.0,0.0,0.0,0.0,0.0,0.0,2.1945,2.2384,2.2726,0.0,0.0,0.0,0.0,0.0,0.0,2.098,2.1917,0.0,0.0,0.0,0.0,0.0,0.0,0.0,0.0,0.0,0.0,0.0,0.0,0.0,0.0,0.0,0.0,0.0,0.0,0.0,0.0,0.0,0.0,0.0,0.0,0.0,0.0,0.0,0.0,0.0,0.0,0.0,0.0,0.0,0.0,0.0,0.0,0.0,0.0,0.0,0.0,0.0,0.0,0.0,0.0,0.0,0.0,0.0,0.0,0.0,0.0,0.0,0.0,0.0,0.0,0.0,1.7059,1.7049,1.7144,1.7248,1.5975,1.5284,1.5305,1.5966,1.5882,0.0,0.0,0.0,0.0,0.0,0.0,0.0,0.0,0.0,0.0,0.0,0.0,0.0,0.0,0.0,0.0,0.0,0.0,0.0,0.0,0.0,0.0,0.0,0.0,0.0,0.0,0.0,0.0,0.0,0.0,0.0,0.0,0.0,0.0,0.0,0.0,0.0,0.0,0.0,0.0,0.0,2.2262,2.3135,2.2595,0.0,0.0,0.0,0.0,1.9614,2.0815,0.0,0.0,0.0,0.0,0.0,0.0,0.0,0.0,0.0,0.0,0.0,0.0,0.0,0.0,0.0,0.0,0.0,0.0,0.0,0.0,0.0,0.0,0.0,0.0,0.0,0.0,0.0,0.0,0.0,0.0,0.0,0.0,0.0,0.0,0.0,0.0,0.0,0.0,0.0,0.0,0.0,0.0,0.0,0.0,0.0,0.0,0.0,0.0,0.0,0.0,0.0,0.0,0.0,0.0,0.0,0.0,1.6888,1.6455,1.6581,1.7211,1.5994,1.5284,1.5284,1.5397,1.528,0.0,0.0,0.0,0.0,0.0,0.0,0.0,0.0,0.0,0.0,0.0,0.0,0.0,0.0,0.0,0.0,0.0,0.0,0.0,0.0,0.0,0.0,0.0,0.0,0.0,0.0,0.0,0.0,0.0,0.0,0.0,0.0,0.0,0.0,0.0,0.0,0.0,0.0,0.0,0.0,0.0,2.4129,2.2717,2.2862,2.2759,0.0,0.0,2.0444,1.983,1.9914,0.0,0.0,0.0,0.0,0.0,0.0,0.0,0.0,0.0,0.0,0.0,0.0,0.0,0.0,0.0,0.0,0.0,0.0,0.0,0.0,0.0,0.0,0.0,0.0,0.0,0.0,0.0,0.0,0.0,0.0,0.0,0.0,0.0,0.0,0.0,0.0,0.0,0.0,0.0,0.0,0.0,0.0,0.0,0.0,0.0,0.0,0.0,0.0,0.0,0.0,0.0,0.0,0.0,0.0,0.0,1.6836,1.6898,1.6836,1.6943,1.7232,1.5983,1.5292,1.5287,1.5292,1.5214,0.0,0.0,0.0,0.0,0.0,0.0,0.0,0.0,0.0,0.0,0.0,0.0,0.0,0.0,0.0,0.0,0.0,0.0,0.0,0.0,0.0,0.0,0.0,0.0,0.0,0.0,0.0,0.0,0.0,0.0,0.0,0.0,0.0,0.0,0.0,0.0,0.0,0.0,0.0,0.0,0.0,0.0,2.2685,2.2605,0.0,0.0,0.0,1.9701,1.9399,0.0,0.0,0.0,0.0,0.0,0.0,0.0,0.0,0.0,0.0,0.0,0.0,0.0,0.0,0.0,0.0,0.0,0.0,0.0,0.0,0.0,0.0,0.0,0.0,0.0,0.0,0.0,0.0,0.0,0.0,0.0,0.0,0.0,0.0,0.0,0.0,0.0,0.0,0.0,0.0,0.0,0.0,0.0,0.0,0.0,0.0,0.0,0.0,0.0,0.0,0.0,0.0,0.0,0.0,0.0,0.0,0.0,1.6903,1.716,1.7307,1.7272,1.5975,1.5295,1.5294,1.5293,0.0,0.0,0.0,0.0,0.0,0.0,0.0,0.0,0.0,0.0,0.0,0.0,0.0,0.0,0.0,0.0,0.0,0.0,0.0,0.0,0.0,0.0,0.0,0.0,0.0,0.0,0.0,1.4908,0.0,0.0,0.0,0.0,0.0,0.0,0.0,0.0,0.0,0.0,0.0,0.0,0.0,0.0,2.3285,2.2789,2.2393,2.1641,0.0,0.0,1.9281,1.9236,1.9326,1.925,0.0,0.0,0.0,0.0,0.0,0.0,0.0,0.0,0.0,0.0,0.0,0.0,0.0,0.0,0.0,0.0,0.0,0.0,0.0,0.0,0.0,0.0,0.0,0.0,0.0,0.0,0.0,0.0,0.0,0.0,0.0,0.0,0.0,0.0,0.0,0.0,0.0,0.0,0.0,0.0,0.0,0.0,0.0,0.0,0.0,0.0,0.0,0.0,0.0,0.0,0.0,0.0,0.0,0.0,0.0,1.6935,1.716,1.7302,1.7265,1.5994,1.5299,1.5287,1.5289,1.5233,0.0,0.0,0.0,0.0,0.0,0.0,0.0,0.0,0.0,0.0,0.0,0.0,0.0,0.0,0.0,0.0,0.0,0.0,0.0,0.0,0.0,0.0,0.0,0.0,0.0,0.0,0.0,0.0,0.0,0.0,0.0,0.0,0.0,0.0,0.0,0.0,0.0,0.0,0.0,0.0,0.0,2.4662,2.2944,2.2521,2.1983,0.0,0.0,1.9417,1.9704,1.9151,1.8625,1.8475,0.0,0.0,0.0,0.0,0.0,0.0,0.0,0.0,0.0,0.0,0.0,0.0,0.0,0.0,0.0,0.0,0.0,0.0,0.0,0.0,0.0,0.0,0.0,0.0,0.0,0.0,0.0,0.0,0.0,0.0,0.0,0.0,0.0,0.0,0.0,0.0,0.0,0.0,0.0,0.0,0.0,0.0,0.0,0.0,0.0,0.0,0.0,0.0,0.0,0.0,0.0,0.0,0.0,1.7422,1.7619,1.7422,1.7307,1.7264,1.5993,1.5283,1.5284,1.5298,1.5272,0.0,0.0,0.0,0.0,0.0,0.0,0.0,0.0,0.0,0.0,0.0,0.0,0.0,0.0,0.0,0.0,0.0,0.0,0.0,0.0,0.0,0.0,0.0,0.0,0.0,0.0,0.0,0.0,1.5328,1.6031,1.6883,0.0,0.0,0.0,0.0,0.0,0.0,0.0,0.0,0.0,0.0,2.4288,2.3008,2.2636,0.0,0.0,2.0092,1.9804,1.9144,1.9206,1.9125,1.8501,1.8757,0.0,0.0,0.0,0.0,0.0,0.0,0.0,0.0,0.0,0.0,0.0,0.0,0.0,0.0,0.0,0.0,0.0,0.0,0.0,0.0,0.0,0.0,0.0,0.0,0.0,0.0,0.0,0.0,0.0,0.0,0.0,0.0,0.0,0.0,0.0,0.0,0.0,0.0,0.0,0.0,0.0,0.0,0.0,0.0,0.0,0.0,0.0,0.0,0.0,0.0,0.0,0.0,1.7523,1.8096,1.7559,1.7296,1.7301,1.5986,1.5289,1.529,1.5282,1.5292,0.0,0.0,0.0,0.0,0.0,0.0,0.0,0.0,0.0,0.0,0.0,0.0,0.0,0.0,0.0,0.0,0.0,0.0,0.0,0.0,0.0,0.0,0.0,0.0,0.0,0.0,0.0,0.0,1.5753,1.66,1.7672,0.0,0.0,0.0,0.0,0.0,0.0,0.0,0.0,0.0,0.0,2.4142,2.2978,2.2705,2.2002,2.0426,2.041,2.0307,1.9558,1.9816,1.9829,1.9016,0.0,0.0,0.0,0.0,0.0,0.0,0.0,0.0,0.0,0.0,0.0,0.0,0.0,0.0,0.0,0.0,0.0,0.0,0.0,0.0,0.0,0.0,0.0,0.0,0.0,0.0,0.0,1.541,0.0,0.0,1.541,0.0,0.0,0.0,0.0,0.0,0.0,0.0,0.0,0.0,0.0,0.0,0.0,0.0,0.0,0.0,0.0,0.0,0.0,0.0,0.0,0.0,0.0,1.7466,1.8096,1.7578,1.7304,1.7274,1.5986,1.5297,1.5281,1.5293,1.5292,1.5291,0.0,0.0,0.0,0.0,0.0,0.0,0.0,0.0,0.0,0.0,0.0,0.0,0.0,0.0,0.0,0.0,0.0,0.0,0.0,0.0,0.0,0.0,0.0,0.0,0.0,0.0,1.6111,1.6092,1.6733,0.0,0.0,0.0,0.0,0.0,0.0,0.0,0.0,0.0,0.0,2.4608,2.4552,2.2868,2.2722,2.2403,2.124,2.0951,2.0936,2.1243,2.1059,2.0653,0.0,0.0,0.0,0.0,0.0,0.0,0.0,0.0,0.0,0.0,0.0,0.0,0.0,0.0,0.0,0.0,0.0,0.0,0.0,0.0,0.0,0.0,0.0,0.0,0.0,0.0,0.0,1.6816,1.6269,0.0,0.0,0.0,0.0,0.0,0.0,0.0,0.0,0.0,0.0,0.0,1.793,1.8501,0.0,0.0,0.0,0.0,0.0,0.0,0.0,0.0,0.0,0.0,0.0,0.0,1.8231,1.8823,1.7832,1.731,1.7277,1.5979,1.5284,1.5288,1.5291,1.5237,1.5088,0.0,0.0,0.0,0.0,0.0,0.0,0.0,0.0,0.0,0.0,0.0,0.0,0.0,0.0,0.0,0.0,0.0,0.0,0.0,0.0,0.0,0.0,0.0,0.0,0.0,1.7757,0.0,0.0,0.0,0.0,0.0,0.0,0.0,0.0,0.0,0.0,0.0,2.3911,2.4415,2.4877,2.4766,2.3636,2.3535,2.3214,0.0,0.0,0.0,0.0,0.0,0.0,0.0,0.0,0.0,0.0,0.0,0.0,0.0,0.0,2.0499,1.8787,1.8478,1.8312,1.7821,0.0,0.0,0.0,0.0,0.0,0.0,0.0,0.0,0.0,0.0,0.0,0.0,0.0,0.0,1.7676,0.0,1.7148,0.0,0.0,0.0,0.0,0.0,0.0,0.0,0.0,1.9453,1.9366,1.8808,1.935,1.9577,0.0,1.8939,1.8699,0.0,0.0,0.0,0.0,0.0,0.0,0.0,0.0,1.8445,1.9104,1.8236,1.7579,1.7272,1.628,1.5601,1.5306,1.5297,1.5192,1.4989,1.4419,1.4182,0.0,0.0,0.0,0.0,0.0,0.0,0.0,0.0,0.0,0.0,0.0,0.0,0.0,0.0,0.0,0.0,0.0,0.0,0.0,0.0,0.0,0.0,0.0,1.8671,0.0,0.0,0.0,0.0,0.0,0.0,0.0,0.0,0.0,2.2959,2.3617,2.4255,2.4746,2.4947,2.4821,2.4042,0.0,0.0,0.0,0.0,0.0,0.0,0.0,2.2549,2.2202,2.1328,2.0784,2.1084,2.0829,2.0532,2.0532,0.0,0.0,1.8783,1.8551,1.8338,1.7629,1.7906,1.8231,1.8223,1.8398,1.8611,0.0,0.0,0.0,0.0,0.0,0.0,0.0,0.0,1.8105,1.8105,0.0,1.8047,0.0,0.0,0.0,0.0,0.0,2.0059,0.0,0.0,2.0488,2.0459,2.0391,2.0386,2.035,2.0292,2.0265,2.0273,2.0238,1.8805,0.0,0.0,0.0,0.0,0.0,0.0,1.819,1.8964,1.8612,1.8065,1.732,1.679,1.6146,1.5326,1.5294,1.5158,1.4902,1.4933,1.4525,1.356,1.4363,0.0,0.0,0.0,0.0,0.0,0.0,0.0,0.0,0.0,0.0,0.0,0.0,0.0,0.0,0.0,0.0,0.0,0.0,0.0,0.0,1.864,0.0,0.0,0.0,0.0,0.0,0.0,0.0,0.0,0.0,0.0,2.3859,2.4288,2.4652,2.4779,0.0,0.0,0.0,0.0,2.4257,2.4053,2.3745,2.3779,2.4379,2.4041,2.3558,2.3232,0.0,0.0,2.0534,2.0,1.9747,1.9726,1.9762,1.9696,1.9555,1.9445,1.9134,1.8232,1.7988,1.8017,1.8028,1.7949,1.8018,1.8927,0.0,0.0,0.0,0.0,2.1016,2.0723,2.0723,2.0098,1.9512,1.8926,1.8926,0.0,0.0,0.0,0.0,0.0,0.0,2.1359,2.138,2.0804,2.0487,2.048,2.0416,2.0369,2.0292,2.0292,2.06,2.1128,2.0747,2.0168,1.9452,0.0,0.0,0.0,0.0,1.9273,1.8982,1.8104,1.7522,1.7309,1.6235,1.5559,1.5302,1.5212,1.5075,1.4913,1.4832,1.4866,1.5035,1.4785,0.0,0.0,0.0,0.0,0.0,0.0,0.0,0.0,0.0,0.0,0.0,0.0,0.0,0.0,0.0,0.0,0.0,0.0,0.0,1.7649,1.7849,1.8618,0.0,0.0,0.0,0.0,0.0,0.0,0.0,0.0,0.0,2.4675,2.4815,2.4869,0.0,0.0,2.5041,2.487,2.5032,2.5104,2.4889,2.4607,0.0,2.4508,2.4041,2.3667,2.3571,2.2754,2.1691,2.0518,2.0212,2.0035,1.9747,1.9705,1.9588,1.9177,1.8788,1.8352,1.7666,1.7227,1.6973,1.6964,1.6947,1.7086,1.9433,1.9785,2.0665,2.1512,2.2192,2.1929,2.166,2.1348,2.082,2.0286,1.9792,1.9773,1.996,2.0359,2.147,0.0,0.0,0.0,2.2177,2.2238,2.1029,2.0483,2.0488,2.0433,2.0366,2.0292,2.0292,2.0562,2.1043,2.1416,2.123,2.0532,0.0,0.0,1.9343,1.9721,1.9575,1.8861,1.8498,1.8124,1.7775,1.6823,1.6159,1.5852,1.6062,1.5976,1.5491,1.5621,1.5903,1.6257,1.5654,1.5484,0.0,0.0,0.0,0.0,0.0,0.0,0.0,0.0,0.0,0.0,0.0,1.6272,1.5753,0.0,0.0,0.0,1.6311,1.6849,1.8453,1.8835,0.0,0.0,0.0,0.0,0.0,0.0,0.0,2.5078,2.4841,2.4738,2.5187,2.522,2.5125,2.491,2.5069,2.5226,2.531,0.0,2.5459,2.5322,2.508,2.4809,2.4639,2.4265,2.3905,2.3541,2.271,2.1831,2.1019,2.0701,2.0416,2.007,2.007,2.0054,1.9528,1.9037,1.8468,1.7787,1.7353,1.7146,1.716,1.7105,1.7229,1.9634,2.0264,2.0865,2.1249,2.1509,2.1698,2.1387,2.0703,2.0644,2.0568,2.0512,2.0504,2.0973,2.1874,2.3534,0.0,2.4072,2.3178,2.2821,2.2829,2.1166,2.0436,2.0508,2.0438,2.0376,2.0292,2.0292,2.0369,2.0562,2.1312,2.1591,2.1364,2.1562,2.0962,1.9606,1.9694,1.9396,1.8622,1.93,1.9281,1.848,1.8103,1.7512,1.6719,1.749,1.7437,1.6472,1.698,1.7305,1.7284,1.6789,1.6359,1.6058,0.0,0.0,0.0,0.0,0.0,0.0,0.0,0.0,0.0,0.0,0.0,0.0,0.0,0.0,0.0,1.7343,0.0,2.0121,2.0812,0.0,0.0,0.0,2.2991,2.4063,2.4292,2.4645,2.5342,0.0,0.0,2.5505,2.5524,2.536,2.4985,2.5107,2.5252,2.5379,2.5448,2.5517,2.5505,2.5141,2.4854,2.4596,2.4407,2.4008,2.3332,2.2641,2.2078,2.163,2.128,2.0862,2.0449,2.0698,2.0862,2.04,1.9989,1.9426,1.8584,1.8171,1.8052,1.8013,1.8013,1.8027,1.9874,2.047,2.0927,2.1521,2.2218,2.1862,2.1674,2.1523,2.0884,2.0572,2.0504,2.0504,2.0963,2.1833,2.4155,2.4469,2.3198,2.2928,2.2485,2.1878,2.087,2.0455,2.0508,2.0486,2.0451,2.0366,2.0331,2.0993,2.2241,2.2442,2.2904,2.3566,2.3379,2.2069,1.9846,2.0262,1.9891,1.8622,1.8735,1.8553,1.8072,1.7946,1.7796,1.7615,1.7801,1.7701,1.7313,1.7292,1.7549,1.8056,1.7095,1.673,1.7216,1.6016,0.0,0.0,0.0,0.0,0.0,0.0,0.0,0.0,0.0,1.7914,1.6592,0.0,1.8294,0.0,1.8287,1.9123,2.0,2.0669,0.0,0.0,2.3289,2.3651,2.4683,2.5013,2.5219,2.5454,2.5519,2.5545,2.5581,2.5526,2.5214,2.4523,2.5037,2.5293,2.4739,2.5134,2.5517,2.5437,2.4739,2.4017,2.3888,2.3545,2.3381,2.3221,2.3059,2.265,2.1754,2.152,2.1306,2.0926,2.0926,2.0942,2.0846,2.0748,2.0616,2.0249,1.9141,1.8092,1.8092,1.8092,1.821,1.992,2.022,2.0496,2.0954,2.1488,2.1643,2.155,2.1249,2.0783,2.0553,2.0508,2.1258,2.1851,2.2416,2.4531,2.4775,2.3514,2.3013,2.238,2.1603,2.0798,2.0441,2.0547,2.0508,2.0476,2.0448,2.0372,2.1051,2.2373,2.2695,2.3261,2.4062,2.4043,2.3019,2.1135,2.1231,2.0838,1.9881,1.9699,1.9418,1.9023,1.9003,1.8839,1.8516,1.8834,1.8763,1.8285,1.8346,1.8617,1.8976,1.8,1.7501,1.7669,1.6634,1.5949,0.0,0.0,0.0,0.0,0.0,0.0,0.0,0.0,0.0,0.0,0.0,1.898,1.8479,1.9168,2.0088,2.1135,2.185,2.2745,2.4026,2.417,2.4379,2.4941,2.5231,2.5418,2.549,2.5531,2.5559,2.5644,2.5615,2.5255,2.4433,2.5085,2.5313,2.4578,2.5,2.5538,2.5486,2.4945,2.4412,2.4123,2.3854,2.3621,2.3436,2.3312,2.2954,2.2224,2.1994,2.1764,2.1385,2.1462,2.1493,2.1306,2.1275,2.1275,2.1102,2.0286,1.9396,1.9119,1.9059,1.9148,1.9933,1.9802,1.9947,2.0061,2.0255,2.1167,2.1138,2.0527,2.0575,2.0589,2.0696,2.2416,2.3127,2.3128,2.4756,2.5013,2.4118,2.3349,2.2524,2.168,2.0927,2.0593,2.0599,2.0644,2.0684,2.0664,2.0711,2.1215,2.215,2.2782,2.3339,2.3882,2.4169,2.382,2.2859,2.2436,2.1989,2.1516,2.1311,2.1007,2.0581,2.056,2.0177,1.9453,2.0043,2.0046,1.9326,1.9735,1.9938,1.9821,1.9198,1.8556,1.7918,1.7345,1.6903,0.0,1.6653,0.0,0.0,0.0,0.0,0.0,0.0,0.0,0.0,1.9284,1.9354,1.9277,2.0115,2.1229,2.2671,2.3498,2.4225,2.4889,2.5007,2.4991,2.4991,2.5231,2.5409,2.5486,2.5546,2.5624,2.5683,2.5698,2.5375,2.4635,2.5156,2.5329,2.4609,2.5048,2.5569,2.5514,2.5341,2.4812,2.4539,2.4361,2.4112,2.373,2.3469,2.314,2.2804,2.2518,2.2203,2.1878,2.2015,2.2106,2.1764,2.1688,2.1705,2.1705,2.1321,2.091,2.0434,2.0299,2.028,1.9933,1.9802,1.9957,2.0023,2.0078,2.0476,2.0628,2.0586,2.0604,2.0948,2.1654,2.3373,2.3748,2.3237,2.4834,2.4752,2.3362,2.3802,2.3193,2.1702,2.1575,2.1162,2.0591,2.1288,2.1602,2.1602,2.2241,2.3046,2.3906,2.3933,2.4268,2.4886,2.4505,2.4247,2.4116,0.0,0.0,0.0,2.2249,2.2028,2.1479,2.1468,2.1116,2.0371,2.0377,0.0,2.0185,2.07,2.0678,2.002,2.0071,0.0,0.0,0.0,0.0,0.0,0.0,0.0,0.0,0.0,0.0,0.0,1.8904,1.9012,1.9196,1.9892,2.032,2.0279,2.1596,2.2602,2.2863,2.4033,2.4851,2.4969,2.5003,2.4991,2.501,2.5192,2.537,2.5476,2.5518,2.5554,2.5683,2.5702,2.5371,2.4648,2.5156,2.5299,2.4536,2.5105,2.5568,2.5459,2.4819,2.4095,2.3779,2.3686,2.3737,2.3639,2.3656,2.3477,2.3164,2.2841,2.2608,2.2441,2.2409,2.2293,2.2163,2.218,2.2192,2.218,2.2106,2.1827,2.1055,2.0862,2.0862,2.0097,0.0,2.0136,2.0155,0.0,2.0804,2.1092,2.1195,2.1229,2.1689,2.2516,2.3825,2.4165,2.3806,2.5035,2.4928,2.3757,2.4128,2.3623,2.2427,2.2427,2.223,2.1839,2.2297,2.248,2.2461,2.2871,2.3547,2.437,2.4269,2.4549,2.5207,2.4822,2.4637,2.4639,2.4433,2.3864,2.2908,2.3087,2.2929,2.2376,2.2361,2.2174,2.1836,2.174,0.0,0.0,0.0,0.0,0.0,0.0,0.0,0.0,0.0,0.0,1.82,1.7853,1.7797,1.8164,1.841,1.8798,1.9345,1.965,1.9826,1.9889,2.0721,2.1208,2.1145,2.2615,2.3555,2.3544,2.4483,2.5102,2.5023,2.5091,2.5111,2.5034,2.5192,2.5341,2.5476,2.5511,2.5554,2.5684,2.5703,2.5547,2.5137,2.5391,2.5541,2.5157,2.5369,2.5568,2.5464,2.4983,2.4487,2.429,2.4134,2.4022,2.4081,2.3881,2.366,2.3473,2.3188,2.288,2.2729,2.2704,2.2695,2.2554,2.2634,2.2669,2.2537,2.2634,2.25,2.1807,2.1462,2.1244,2.0389,2.0504,2.0515,2.0619,2.0812,2.1594,2.2049,2.2241,0.0,0.0,0.0,2.4243,2.4626,2.4665,2.5317,2.5273,2.4629,2.4578,2.4117,2.3347,2.3328,2.3279,2.3203,2.3281,2.332,2.332,2.3477,2.3926,2.4609,2.4506,2.4719,2.5187,2.5111,2.4935,2.4828,2.4924,2.4594,2.3825,2.396,2.3781,2.3235,2.3209,2.3188,2.3105,2.3037,2.3007,2.3004,2.292,2.2458,2.1597,2.1135,2.0463,1.9579,1.9017,1.8797,1.9028,1.9018,1.9158,1.9507,1.9849,2.0161,2.0499,2.0721,2.0763,2.0625,2.1387,2.1844,2.1734,2.3254,2.4199,2.4119,2.4832,2.5252,2.5075,2.5201,2.5224,2.5088,2.5184,2.5351,2.5457,2.5492,2.5551,2.5644,2.5703,2.5703,2.5703,2.5664,2.5685,2.565,2.559,2.5534,2.5409,2.5255,2.5186,2.5022,2.4839,2.4729,2.4469,2.4087,2.3806,2.3759,2.3509,2.3212,2.2996,2.3093,2.3045,2.2873,2.2996,2.3076,2.2848,2.2996,2.3063,2.2598,2.2153,2.1786,2.0716,2.1331,2.1314,2.1765,2.2474,2.2651,2.3183,2.3924,2.4023,2.4102,2.4277,2.5134,2.5503,2.5522,2.5644,2.5625,2.5527,2.5487,2.5056,2.4234,2.4214,2.3846,2.3242,2.3887,2.4219,2.4277,2.498,2.5391,2.5508,2.5438,2.5427,2.5418,2.5207,2.4992,2.4828,2.4924,2.4941,2.4803,2.4979,2.4745,2.4053,2.4019,2.3725,2.3144,2.3066,2.3007,2.3016,2.3583,2.3486,2.266,2.2418,2.1874,2.0866,1.9771,1.9162,1.9241,1.9107,1.9088,1.9363,2.0322,2.1379,2.2373,2.2527,2.1995,2.0703,2.1367,2.1864,2.1859,2.3368,2.4225,2.4178,2.4899,2.5351,2.5273,2.5274,2.5284,2.5253,2.5293,2.5332,2.5409,2.5466,2.5531,2.5605,2.5664,2.5703,2.5703,2.5684,2.5673,2.5556,2.5514,2.5486,2.5409,2.5351,2.5214,2.5046,2.491,2.4726,2.4524,2.43,2.4075,2.4079,2.3842,2.3606,2.3544,2.341,2.3236,2.3141,2.3165,2.3212,2.3141,2.3212,2.3206,2.3056,2.2923,2.2746,2.187,2.2197,2.2216,2.2447,2.2887,2.3458,2.4234,2.5039,2.5098,2.5098,2.5137,2.5527,2.5703,2.5703,2.5703,2.5703,2.5703,2.5703,2.5488,2.5117,2.5117,2.4922,2.4629,2.4941,2.5098,2.5137,2.5488,2.5703,2.5684,2.5626,2.5577,2.5544,2.537,2.5203,2.5072,2.513,2.5182,2.522,2.5321,2.5207,2.4928,2.4949,2.4812,2.4512,2.4414,2.4352,2.4361,2.4611,2.4351,2.3533,2.3341,2.2844,2.1947,2.1143,2.0726,2.0766,2.0611,2.0564,2.0647,2.132,2.2023,2.2612,2.2815,2.2636,2.1911,2.268,2.3177,2.3197,2.4285,2.4965,2.4868,2.5194,2.539,2.537,2.5313,2.5313,2.5313,2.5351,2.539,2.5438,2.5528,2.5593,2.5643,2.5664,2.5703,2.5703,2.5673,2.5609,2.5503,2.548,2.5428,2.537,2.5332,2.5283,2.5163,2.4962,2.4764,2.4673,2.4394,2.4228,2.419,2.4054,2.3935,2.3753,2.371,2.3671,2.3522,2.3631,2.3631,2.3522,2.3649,2.361,2.3346,2.3189,2.3111,2.2936,2.3109,2.3081,2.324,2.3528,2.43,2.5035,2.5664,2.5684,2.5703,2.5703,2.5703,2.5703,2.5703,2.5703,2.5703,2.5703,2.5703,2.5703,2.5703,2.5703,2.5703,2.5703,2.5703,2.5703,2.5703,2.5703,2.5703,2.5703,2.5644,2.5598,2.558,2.5484,2.537,2.5332,2.5313,2.5351,2.539,2.5428,2.5486,2.5524,2.5563,2.5635,2.5684,2.5566,2.5509,2.5505,2.537,2.5024,2.4409,2.4042,2.3558,2.2904,2.2356,2.2044,2.1993,2.1881,2.1924,2.2175,2.2416,2.2729,2.3114,2.3314,2.3486,2.3598,2.4155,2.4469,2.4411,2.5007,2.5518,2.5426,2.5413,2.5397,2.538,2.5332,2.5313,2.5313,2.537,2.5428,2.5486,2.5543,2.5615,2.5675,2.57,2.5703,2.5664,2.5615,2.5548,2.5492,2.544,2.538,2.5332,2.5313,2.5303,2.5274,2.5046,2.4864,2.4804,2.4513,2.4303,2.4228,2.419,2.4113,2.3917,2.4034,2.4036,2.3896,2.3996,2.4036,2.3876,2.3976,2.3996,2.3588,2.3482,2.3346,2.3283,2.3937,2.3975,2.444,2.5093,2.5298,2.5464,2.5605,2.5684,2.5703,2.5703,2.5703,2.5703,2.5703,2.5703,2.5703,2.5703,2.5703,2.5703,2.5703,2.5703,2.5703,2.5703,2.5703,2.5703,2.5703,2.5703,2.5703,2.5703,2.5684,2.5664,2.5595,2.5453,2.5399,2.539,2.539,2.539,2.539,2.5524,2.5582,2.5582,2.5601,2.5635,2.5703,2.5566,2.5509,2.5495,2.539,2.5264,2.5149,2.4476,2.3966,2.3659,2.2824,2.2229,2.2088,2.1929,2.2231,2.3199,2.3366,2.3853,2.4898,2.4966,2.5043,2.5168,2.5243,2.4966,2.4578,2.5075,2.5506,2.5368,2.5356,2.5381,2.5351,2.5313,2.5313,2.5313,2.537,2.539,2.5409,2.5533,2.5611,2.5615,2.5671,2.5679,2.5607,2.555,2.5495,2.5427,2.5389,2.537,2.5332,2.5313,2.5313,2.5284,2.5139,2.4934,2.4821,2.4636,2.4411,2.4266,2.419,2.417,2.4113,2.4151,2.4151,2.4151,2.419,2.419,2.4113,2.4151,2.417,2.4112,2.4054,2.3837,2.4485,2.4812,2.4812,2.5041,2.5383,2.5471,2.5512,2.554,2.5595,2.5644,2.5644,2.5684,2.5703,2.5703,2.5703,2.5703,2.5703,2.5703,2.5703,2.5703,2.5703,2.5703,2.5703,2.5703,2.5703,2.5703,2.5703,2.5703,2.5703,2.5703,2.5664,2.5605,2.5534,2.5504,2.5457,2.5466,2.5486,2.5505,2.5563,2.563,2.564,2.5653,2.5671,2.5703,2.5605,2.5548,2.5493,2.5409,2.5351,2.5284,2.4976,2.4774,2.4704,2.4179,2.3858,2.3783,2.3659,2.3724,2.4086,2.4282,2.4581,2.5091,2.5243,2.5351,2.5438,2.5434,2.5253,2.5046,2.529,2.5499,2.541,2.5398,2.5393,2.5341,2.5313,2.5313,2.5313,2.537,2.5418,2.5452,2.5537,2.5626,2.5638,2.5652,2.5623,2.5545,2.5486,2.5447,2.539,2.537,2.5332,2.5313,2.5313,2.5313,2.5264,2.513,2.4965,2.4826,2.4639,2.4426,2.4284,2.419,2.419,2.419,2.419,2.419,2.419,2.419,2.419,2.419,2.419,2.419,2.419,2.419,2.4054,2.5313,2.5313,2.5313,2.5332,2.5409,2.5452,2.5468,2.5514,2.5552,2.5574,2.5605,2.5644,2.5703,2.5703,2.5703,2.5703,2.5703,2.5703,2.5703,2.5703,2.5703,2.5703,2.5703,2.5703,2.5703,2.5703,2.5703,2.5703,2.5703,2.5703,2.5684,2.5625,2.5605,2.5583,2.555,2.553,2.5543,2.5601,2.5611,2.5648,2.5693,2.5698,2.5703,2.5684,2.5625,2.5576,2.5487,2.5428,2.537,2.5313,2.5313,2.5313,2.5284,2.513,2.4994,2.4946,2.4842,2.4771,2.4631,2.4866,2.5022,2.5088,2.5224,2.5332,2.537,2.5382,2.539,2.537,2.5447,2.5438,2.5428,2.5409,2.539,2.537,2.5332,2.5313,2.5313,2.5351,2.5436,2.548,2.5516,2.559,2.5615,2.5571,2.5517,2.5464,2.5409,2.537,2.537,2.5332,2.5313,2.5313,2.5313,2.5313,2.5284,2.5207,2.5009,2.4872,2.4728,2.4588,2.4339,2.4284,2.4228,2.4247,2.4209,2.419,2.419,2.419,2.419,2.419,2.419,2.419,2.419,2.419,2.419,2.5313,2.5313,2.5313,2.5332,2.539,2.539,2.5428,2.5486,2.5514,2.5543,2.5583,2.5605,2.5644,2.5703,2.5703,2.5703,2.5703,2.5703,2.5703,2.5703,2.5703,2.5703,2.5703,2.5703,2.5703,2.5703,2.5703,2.5703,2.5703,2.5703,2.5703,2.5684,2.5625,2.5605,2.5586,2.5609,2.5601,2.56,2.5667,2.5693,2.5703,2.5703,2.5703,2.5684,2.5644,2.5576,2.5503,2.5429,2.537,2.5313,2.5313,2.5313,2.5274,2.513,2.4968,2.4847,2.4818,2.486,2.4941,2.4985,2.5088,2.5234,2.5274,2.5332,2.537,2.5351,2.5332,2.539,2.5351,2.5332,2.5332,2.5332,2.5313,2.5313,2.5313,2.5313,2.5313,2.5351,2.539,2.5416,2.5473,2.5512,2.5521,2.5441,2.5423,2.538,2.5351,2.5313,2.5313,2.5313,2.5313,2.5313,2.5313,2.5313,2.5313,2.5264,2.5175,2.5015,2.4892,2.4831,2.4651,2.4479,2.4375,2.4284,2.4228,2.419,2.419,2.419,2.419,2.419,2.419,2.419,2.419,2.419,2.419,2.5313,2.5313,2.5313,2.5313,2.5332,2.5351,2.5332,2.537,2.5428,2.5443,2.5485,2.557,2.5605,2.5644,2.5684,2.5703,2.5703,2.5703,2.5703,2.5703,2.5703,2.5703,2.5703,2.5703,2.5703,2.5703,2.5703,2.5703,2.5703,2.5703,2.5703,2.5703,2.5664,2.5644,2.5664,2.5661,2.5671,2.5664,2.5691,2.5701,2.5723,2.5703,2.5703,2.5703,2.5664,2.5604,2.5515,2.5485,2.5428,2.5313,2.5313,2.5313,2.5284,2.5224,2.5105,2.4962,2.5038,2.5083,2.5023,2.5128,2.5214,2.5274,2.5313,2.5313,2.5332,2.5332,2.5313,2.5332,2.5313,2.5313,2.5313,2.5313,2.5313,2.5313,2.5313,2.5313,2.5313,2.5332,2.5351,2.5399,2.5462,2.5476,2.5437,2.5398,2.537,2.5351,2.5313,2.5313,2.5313,2.5313,2.5313,2.5313,2.5313,2.5313,2.5313,2.5313,2.5234,2.5088,2.4943,2.4804,2.4636,2.4543,2.4444,2.4266,2.4209,2.419,2.419,2.419,2.419,2.419,2.419,2.4226,2.419,2.4245,2.4245,2.5313,2.5313,2.5313,2.5313,2.5313,2.5313,2.5313,2.5313,2.5351,2.539,2.5397,2.5503,2.5549,2.5605,2.5664,2.5703,2.5703,2.5703,2.5703,2.5703,2.5703,2.5703,2.5703,2.5703,2.5703,2.5703,2.5703,2.5703,2.5703,2.5703,2.5703,2.5703,2.5703,2.5703,2.5703,2.5703,2.5703,2.5703,2.5703,2.582,2.6055,2.6113,2.6269,2.6504,2.6543,2.6172,2.5566,2.5518,2.5447,2.5332,2.5313,2.5313,2.5313,2.5313,2.5245,2.5149,2.5226,2.5226,2.513,2.5207,2.5303,2.5313,2.5313,2.5313,2.5313,2.5313,2.5313,2.5313,2.5313,2.5313,2.5313,2.5313,2.5313,2.5313,2.5313,2.5313,2.5313,2.5313,2.5332,2.5351,2.5399,2.5399,2.539,2.537,2.5351,2.5313,2.5313,2.5313,2.5313,2.5313,2.5313,2.5313,2.5313,2.5313,2.5303,2.5322,2.537,2.5231,2.5099,2.4917,2.4783,2.4676,2.4476,2.4303,2.4208,2.4208,2.419,2.4208,2.4226,2.4245,2.4245,2.4281,2.43,2.4355,2.4575,2.5313,2.5313,2.5313,2.5313,2.5313,2.5313,2.5313,2.5313,2.5313,2.5351,2.538,2.5408,2.5485,2.5566,2.5586,2.5625,2.5684,2.5684,2.5703,2.5703,2.5703,2.5703,2.5703,2.5703,2.5703,2.5703,2.5703,2.5703,2.5703,2.5801,2.582,2.5762,2.5937,2.6035,2.5801,2.5957,2.5859,2.5918,2.5977,2.6269,2.6894,2.7012,2.7344,2.8027,2.8086,2.7344,2.5722,2.5615,2.5524,2.5332,2.5313,2.5313,2.5313,2.5313,2.5293,2.5264,2.5313,2.5313,2.5293,2.5313,2.5313,2.5313,2.5313,2.5313,2.5313,2.5313,2.5313,2.5313,2.5313,2.5313,2.5313,2.5313,2.5313,2.5313,2.5313,2.5313,2.5313,2.5313,2.5313,2.5313,2.5332,2.5313,2.5313,2.5313,2.5313,2.5313,2.5313,2.5313,2.5351,2.5428,2.539,2.5409,2.5697,2.5967,2.5659,2.536,2.5399,2.5408,2.5311,2.5168,2.5086,2.5001,2.4613,2.4411,2.454,2.4539,2.4355,2.4373,2.4593,2.463,2.452,2.4649,2.4961,2.5199,2.5326,2.5313,2.5313,2.5313,2.5313,2.5313,2.5313,2.5313,2.5313,2.5313,2.5313,2.5332,2.539,2.5443,2.5467,2.5526,2.5568,2.5625,2.5644,2.5644,2.5684,2.5703,2.5703,2.5703,2.5703,2.5703,2.5703,2.5703,2.5703,2.5859,2.6328,2.6602,2.668,2.7207,2.748,2.7402,2.75,2.75,2.748,2.748,2.7656,2.7891,2.7891,2.8047,2.8262,2.8262,2.7879,2.7322,2.6715,2.6054,2.537,2.5313,2.5313,2.5313,2.5313,2.5313,2.5313,2.5313,2.5313,2.5313,2.5313,2.5313,2.5313,2.5313,2.5313,2.5313,2.5313,2.5313,2.5313,2.5313,2.5313,2.5313,2.5313,2.5313,2.5313,2.5313,2.5313,2.5313,2.5313,2.5313,2.5313,2.5313,2.5313,2.5303,2.5322,2.538,2.537,2.537,2.537,2.5399,2.5832,2.6178,2.6197,2.6563,2.6832,2.6668,2.661,2.6668,2.636,2.6014,2.5636,2.5507,2.5286,2.4898,2.4816,2.4911,2.4888,2.4685,2.4795,2.5126,2.5162,2.5162,2.5493,2.5949,2.6078,2.602,2.5313,2.5313,2.5313,2.5313,2.5313,2.5313,2.5313,2.5313,2.5313,2.5313,2.5313,2.5351,2.539,2.5399,2.5449,2.5496,2.557,2.5562,2.56,2.5644,2.5684,2.5703,2.5762,2.6055,2.6406,2.6621,2.666,2.666,2.6699,2.7187,2.748,2.7598,2.8047,2.8262,2.8281,2.8281,2.8281,2.8281,2.8262,2.8457,2.8711,2.8769,2.8919,2.9143,2.9148,2.8906,2.8544,2.7956,2.7083,2.5976,2.5505,2.5313,2.5313,2.5313,2.5313,2.5313,2.5313,2.5313,2.5313,2.5313,2.5313,2.5313,2.5313,2.5313,2.5313,2.5313,2.5313,2.5313,2.5313,2.5313,2.5313,2.5313,2.5313,2.5313,2.5313,2.5313,2.5313,2.5313,2.5313,2.5313,2.5313,2.5447,2.5687,2.5783,2.5783,2.5783,2.5793,2.5783,2.588,2.6245,2.6601,2.6986,2.7341,2.7572,2.7783,2.7849,2.7964,2.7445,2.686,2.6362,2.6003,2.5707,2.5362,2.5597,2.5772,2.5807,2.564,2.5897,2.6172,2.6025,2.5897,2.6284,2.6631,2.6307,2.6341,2.5303,2.5303,2.5313,2.5313,2.5313,2.5313,2.5313,2.5313,2.5313,2.5313,2.5313,2.5313,2.5332,2.539,2.5399,2.5427,2.5484,2.5493,2.5524,2.5592,2.5664,2.5723,2.5977,2.668,2.7383,2.7988,2.8086,2.8144,2.8008,2.8262,2.8359,2.8398,2.8555,2.8516,2.8691,2.8496,2.8633,2.8711,2.8613,2.9004,2.9629,2.9668,2.9916,3.0518,3.0491,3.0113,2.9404,2.9047,2.8266,2.6833,2.5919,2.5553,2.5495,2.5409,2.5313,2.5428,2.537,2.5313,2.5313,2.5313,2.5313,2.5313,2.5313,2.5313,2.5313,2.5313,2.5313,2.5313,2.5313,2.5313,2.5313,2.5313,2.5313,2.5313,2.5313,2.5313,2.5313,2.5313,2.536,2.5447,2.5437,2.5707,2.6524,2.6649,2.6668,2.6678,2.6678,2.6659,2.6736,2.6986,2.7236,2.7678,2.8206,2.8552,2.8821,2.8821,2.8925,2.8706,2.8033,2.7401,2.6784,2.6427,2.5989,2.6227,2.6578,2.6612,2.6667,2.6833,2.6888,2.6759,2.6854,2.7132,2.7163,2.6984,2.7017,2.5163,2.5303,2.5313,2.5313,2.5313,2.5313,2.5303,2.5303,2.5332,2.537,2.5332,2.5313,2.5351,2.5332,2.5332,2.537,2.5409,2.5425,2.5459,2.5505,2.5541,2.6017,2.6685,2.7484,2.8032,2.834,2.8418,2.8262,2.8359,2.8984,2.9238,2.9297,2.9824,3.0156,3.0215,3.0117,3.0215,3.0234,3.0195,3.0254,3.043,3.0508,3.0586,3.0651,3.066,3.0487,3.011,2.9483,2.8675,2.7651,2.6736,2.6582,2.6948,2.6082,2.5697,2.6102,2.5688,2.5322,2.5322,2.5313,2.5313,2.5313,2.536,2.5313,2.5313,2.5303,2.5303,2.5313,2.5313,2.537,2.5351,2.539,2.537,2.5313,2.5466,2.5428,2.537,2.5303,2.5514,2.6101,2.6264,2.6687,2.7274,2.7563,2.7563,2.7563,2.7563,2.7554,2.7601,2.7928,2.8275,2.8775,2.9275,2.959,2.9821,2.9821,2.984,2.9821,2.9321,2.8648,2.8039,2.7504,2.6962,2.6628,2.7261,2.7457,2.7438,2.7493,2.7457,2.7512,2.7581,2.7783,2.8077,2.8045,2.7972,2.5057,2.5173,2.5264,2.5313,2.5313,2.5313,2.5495,2.5803,2.5841,2.5851,2.5841,2.5841,2.5649,2.5322,2.5313,2.5332,2.5351,2.537,2.539,2.5611,2.6265,2.6932,2.7561,2.8276,2.8853,2.9265,2.923,2.9277,2.9394,2.9883,3.0098,3.0137,3.0625,3.0898,3.082,3.0918,3.0918,3.0879,3.0918,3.0918,3.0898,3.084,3.0756,3.0667,3.0602,3.0525,3.0379,2.9925,2.9252,2.8429,2.7659,2.7371,2.7736,2.7005,2.6631,2.7104,2.6333,2.5851,2.5755,2.5543,2.5313,2.538,2.5553,2.5822,2.5956,2.614,2.6409,2.6467,2.64,2.6381,2.639,2.6409,2.639,2.6467,2.6409,2.6255,2.5928,2.6236,2.6601,2.7005,2.7198,2.7456,2.8275,2.839,2.8409,2.839,2.8398,2.8409,2.8448,2.8909,2.9275,2.964,2.9871,3.0052,3.0129,3.0129,3.0129,3.0186,3.0071,2.9506,2.8945,2.8375,2.8064,2.773,2.8083,2.8264,2.8172,2.8172,2.8338,2.8352,2.8343,2.8338,2.8604,2.8677,2.8677,2.501,2.5065,2.5224,2.537,2.5466,2.5457,2.5995,2.6629,2.6736,2.6736,2.6736,2.6736,2.639,2.5563,2.5909,2.5659,2.5678,2.587,2.5764,2.6313,2.7229,2.8152,2.8262,2.905,2.9736,3.0279,3.0607,3.0508,3.041,3.0664,3.0742,3.0644,3.0781,3.0859,3.0859,3.0898,3.0918,3.0918,3.0918,3.0898,3.0859,3.0766,3.0681,3.0598,3.0544,3.0467,3.0417,3.0283,2.9987,2.9256,2.8448,2.8159,2.8159,2.8102,2.792,2.7768,2.7103,2.6524,2.6583,2.6015,2.5601,2.5822,2.6428,2.6717,2.6851,2.7274,2.7601,2.7563,2.7874,2.7671,2.7659,2.7783,2.7678,2.7621,2.7794,2.7601,2.7217,2.7486,2.792,2.8027,2.8016,2.8409,2.8929,2.9236,2.9236,2.9256,2.9264,2.9264,2.9256,2.9448,2.9794,3.014,3.0263,3.0321,3.0359,3.0359,3.034,3.034,3.0321,2.9963,2.9468,2.9064,2.902,2.8986,2.8775,2.8732,2.876,2.887,2.8962,2.8902,2.8677,2.881,2.8957,2.8883,2.8865,2.5088,2.5234,2.5274,2.5707,2.6256,2.6342,2.6813,2.7593,2.7621,2.7621,2.7621,2.7621,2.7467,2.7274,2.7178,2.7343,2.7208,2.7198,2.7351,2.7505,2.8362,2.8854,2.9071,2.9786,3.0312,3.0571,3.0558,3.0564,3.0625,3.0658,3.0668,3.0648,3.0723,3.0742,3.0762,3.0859,3.0918,3.0918,3.0898,3.0859,3.077,3.0723,3.0641,3.0525,3.0467,3.0417,3.0398,3.0398,3.0314,2.9967,2.939,2.9102,2.9371,2.8621,2.8352,2.8418,2.7505,2.6948,2.7304,2.689,2.6621,2.714,2.7371,2.7621,2.7621,2.7832,2.7967,2.7909,2.7901,2.8063,2.8107,2.7945,2.8052,2.8206,2.8533,2.8775,2.8525,2.8198,2.8313,2.869,2.8882,2.9159,2.9967,3.0006,3.0044,3.009,3.0071,3.009,3.0052,2.9975,3.0148,3.0398,3.0398,3.0398,3.0398,3.0436,3.0533,3.0513,3.0494,3.0379,2.9864,2.9565,2.9465,2.9306,2.9104,2.9089,2.9093,2.9044,2.9048,2.9021,2.8998,2.8975,2.8975,2.8975,2.8975,2.5825,2.637,2.6474,2.6804,2.718,2.7227,2.7689,2.8343,2.8459,2.8467,2.8448,2.8448,2.8255,2.7928,2.789,2.7871,2.789,2.7898,2.8091,2.8409,2.8948,2.9313,2.9756,3.0179,3.0525,3.0506,3.0537,3.0548,3.0569,3.0674,3.0721,3.0653,3.071,3.0742,3.0762,3.084,3.084,3.0859,3.0825,3.0789,3.0794,3.0698,3.0602,3.0506,3.0417,3.0398,3.0398,3.0398,3.0398,3.0283,2.9967,2.989,3.0225,2.9583,2.9379,2.9348,2.8591,2.7978,2.817,2.7755,2.7399,2.789,2.8217,2.8409,2.8602,2.8794,2.9063,2.9083,2.9102,2.9091,2.9056,2.9098,2.9071,2.9129,2.9417,2.9698,2.964,2.9333,2.9179,2.9621,2.9717,2.991,3.0256,3.0359,3.0379,3.0244,3.0244,3.0244,3.0263,3.0225,3.0263,3.0398,3.0398,3.0398,3.0398,3.0494,3.0706,3.0717,3.0717,3.0533,3.0189,2.9966,2.981,2.9625,2.9416,2.9312,2.9291,2.9206,2.9115,2.9044,2.8998,2.8998,2.8998,2.9021,2.8998,2.6764,2.7599,2.7816,2.7958,2.8065,2.8093,2.8544,2.9236,2.9294,2.9294,2.9313,2.9313,2.8986,2.8448,2.8409,2.8321,2.8349,2.8426,2.886,2.9275,2.9371,2.9756,3.0217,3.041,3.0467,3.0417,3.0525,3.056,3.0634,3.0868,3.1086,3.0972,3.1159,3.1424,3.1328,3.1016,3.1074,3.1211,3.0892,3.0912,3.1087,3.0999,3.0902,3.0794,3.0506,3.0417,3.0398,3.0398,3.0398,3.0398,3.0398,3.0398,3.0398,3.0398,3.0398,3.0321,2.939,2.9094,2.9074,2.8602,2.8148,2.8236,2.8871,2.9256,2.9467,2.9794,3.0063,3.0186,3.0167,3.0167,3.0379,3.0167,3.0206,3.0283,3.034,3.0398,3.0398,3.0398,3.0263,3.0263,3.0179,3.0275,3.0333,3.0398,3.0398,3.0398,3.0398,3.0398,3.0398,3.0398,3.0398,3.0398,3.0398,3.0763,3.084,3.0924,3.1097,3.1198,3.1121,3.0821,3.0629,3.0618,3.0433,2.9965,2.9763,2.9626,2.9532,2.9455,2.9314,2.9138,2.9112,2.9218,2.9178,2.9089,2.9104,2.7361,2.7535,2.7785,2.8277,2.8865,2.8901,2.9371,3.0102,3.0121,3.0179,3.014,3.0179,3.0044,2.9898,2.9956,2.9956,2.9763,2.9725,2.986,3.0063,3.0083,3.0275,3.0333,3.0417,3.0417,3.0448,3.0614,3.0702,3.0856,3.1304,3.1747,3.1864,3.2366,3.2736,3.2497,3.2193,3.1721,3.1613,3.1107,3.0989,3.1403,3.1595,3.1557,3.1411,3.1003,3.0641,3.0436,3.0398,3.0398,3.0398,3.0398,3.0398,3.0398,3.0398,3.0398,3.0225,2.9698,2.9486,2.9813,2.9371,2.936,2.9794,3.0025,3.0102,3.0179,3.0263,3.0379,3.0398,3.0398,3.0398,3.0398,3.0398,3.0398,3.0398,3.0398,3.0398,3.0398,3.0398,3.0456,3.0552,3.0494,3.0398,3.0398,3.0398,3.0398,3.0398,3.0398,3.0398,3.0398,3.0398,3.0398,3.0398,3.0398,3.0929,3.141,3.1507,3.1648,3.1821,3.1737,3.1321,3.1205,3.1302,3.1111,3.0811,3.0281,2.9914,2.9809,2.9717,2.9589,2.9437,2.9472,2.9507,2.9541,2.9556,2.9428,2.8159,2.8647,2.8891,2.9205,2.9544,2.9717,3.0006,3.034,3.0398,3.0398,3.0398,3.0398,3.0398,3.0398,3.0398,3.0398,3.0398,3.0398,3.0398,3.0398,3.0398,3.0398,3.0417,3.0436,3.0448,3.0609,3.0948,3.1284,3.1358,3.2191,3.2598,3.2742,3.3162,3.3307,3.3128,3.2416,3.2144,3.1921,3.1274,3.0896,3.1389,3.168,3.1873,3.1767,3.173,3.1314,3.0571,3.0929,3.0814,3.0494,3.0398,3.0398,3.0398,3.0398,3.0398,3.0302,2.9987,2.989,3.0302,2.9967,3.0006,3.0263,3.0398,3.0398,3.0398,3.0379,3.0398,3.0398,3.0398,3.0398,3.0398,3.0467,3.0417,3.0398,3.0456,3.0525,3.0456,3.0436,3.0648,3.0879,3.0725,3.059,3.0398,3.0398,3.0398,3.0398,3.0436,3.0513,3.0571,3.0629,3.0756,3.0794,3.0929,3.1564,3.2102,3.227,3.241,3.2551,3.2449,3.2032,3.1917,3.209,3.2077,3.1897,3.1293,3.0738,3.0064,2.9937,2.9834,2.9822,2.9848,2.9926,3.0021,3.0039,3.0015,2.8858,2.9661,2.9861,2.9956,3.0047,3.0227,3.0355,3.0398,3.0398,3.0398,3.0398,3.0398,3.0398,3.0398,3.0398,3.0398,3.0398,3.0398,3.0398,3.0398,3.0398,3.0398,3.0448,3.066,3.0833,3.1044,3.1994,3.2199,3.2074,3.2993,3.3535,3.373,3.3711,3.3867,3.3848,3.3281,3.2662,3.2235,3.1632,3.1188,3.1518,3.1969,3.2318,3.2237,3.2709,3.2212,3.1321,3.1352,3.1295,3.0852,3.0533,3.0398,3.0398,3.0398,3.0398,3.0398,3.0398,3.0398,3.0379,3.0379,3.0294,3.0398,3.0398,3.0398,3.0398,3.0398,3.0398,3.0398,3.0398,3.0583,3.0756,3.0756,3.0898,3.1116,3.1141,3.1044,3.1141,3.1198,3.1302,3.1302,3.1032,3.1129,3.1282,3.1295,3.1487,3.1487,3.1525,3.1487,3.1525,3.141,3.1448,3.1429,3.1679,3.2333,3.2814,3.3141,3.332,3.3513,3.3314,3.2968,3.291,3.2949,3.2865,3.2756,3.2699,3.2124,3.1183,3.0553,3.0939,3.1013,3.0541,3.0532,3.1025,3.1105,3.1072,2.9301,2.9454,2.9643,2.984,2.9979,3.0021,3.0196,3.0367,3.0398,3.0398,3.0398,3.0398,3.0398,3.0398,3.0398,3.0398,3.0398,3.0398,3.0456,3.0552,3.0456,3.0494,3.059,3.1256,3.141,3.1679,3.3006,3.3038,3.284,3.3778,3.4453,3.4629,3.5117,3.5605,3.5234,3.4361,3.4314,3.4083,3.3268,3.3111,3.3701,3.3909,3.3909,3.3742,3.3416,3.2904,3.2391,3.216,3.1756,3.1468,3.0814,3.0475,3.0398,3.0398,3.0398,3.0398,3.0398,3.0398,3.0398,3.0513,3.0552,3.059,3.0602,3.0436,3.066,3.0698,3.0679,3.0398,3.0436,3.0794,3.1318,3.1553,3.2009,3.23,3.2405,3.2432,3.2429,3.1929,3.2045,3.2295,3.2199,3.2494,3.2731,3.2667,3.2641,3.2622,3.2564,3.2429,3.2237,3.1948,3.2064,3.2064,3.2391,3.3045,3.3487,3.3814,3.4122,3.4372,3.416,3.3872,3.3853,3.3795,3.3564,3.3487,3.3564,3.3545,3.2826,3.2453,3.2499,3.2185,3.1704,3.1909,3.2336,3.2289,3.1996,2.9178,2.9203,2.9438,2.957,2.9698,2.9904,3.0068,3.0169,3.033,3.0398,3.0398,3.0398,3.0398,3.0398,3.0398,3.0398,3.0398,3.0417,3.0706,3.091,3.0763,3.0929,3.1487,3.1333,3.1256,3.2487,3.3064,3.3558,3.3661,3.4462,3.5288,3.5449,3.5762,3.5918,3.5947,3.5071,3.4631,3.4221,3.3647,3.35,3.4097,3.4334,3.4314,3.4283,3.4295,3.3891,3.3237,3.3218,3.2538,3.2115,3.1634,3.1295,3.0968,3.1121,3.1525,3.0448,3.091,3.091,3.0552,3.0879,3.1032,3.1282,3.1487,3.1891,3.1833,3.1737,3.1506,3.1172,3.1141,3.1422,3.1742,3.1826,3.2364,3.2855,3.3393,3.3265,3.3199,3.2968,3.2814,3.3103,3.3391,3.3609,3.3705,3.3417,3.3218,3.3083,3.2795,3.2429,3.2179,3.1852,3.2179,3.2679,3.316,3.3757,3.4141,3.4468,3.4795,3.5007,3.5007,3.4795,3.4724,3.4609,3.4372,3.4449,3.468,3.4564,3.4257,3.3647,3.3058,3.2936,3.2872,3.3114,3.3293,3.2886,3.2756,2.9104,2.9297,2.9289,2.9326,2.9422,2.9706,2.9882,2.9965,3.0456,3.051,3.0362,3.0355,3.0398,3.0398,3.0398,3.0398,3.0417,3.0641,3.1083,3.1295,3.1448,3.1795,3.2237,3.1852,3.2179,3.3237,3.3757,3.4122,3.4735,3.5336,3.5713,3.5976,3.5957,3.6016,3.5821,3.543,3.5039,3.4835,3.4171,3.4116,3.4507,3.4603,3.4597,3.4751,3.4982,3.4949,3.4007,3.3833,3.3346,3.2904,3.2576,3.2141,3.1602,3.2064,3.2218,3.1525,3.1756,3.1775,3.1448,3.1475,3.1686,3.1948,3.2372,3.266,3.2737,3.2891,3.2737,3.2011,3.1999,3.2134,3.237,3.2604,3.3225,3.3718,3.402,3.3832,3.3724,3.3757,3.368,3.3757,3.4064,3.4481,3.443,3.4064,3.3795,3.3583,3.3141,3.2622,3.2487,3.241,3.2987,3.3737,3.4045,3.4526,3.4718,3.5064,3.5411,3.5507,3.5507,3.5449,3.5224,3.5224,3.5141,3.5334,3.5507,3.5315,3.4872,3.416,3.3564,3.3872,3.4122,3.4122,3.407,3.366,3.3555,2.9457,3.0063,2.9352,2.927,2.946,2.9422,2.96,2.992,3.0795,3.0767,3.0261,3.0324,3.0506,3.0398,3.0417,3.0436,3.0487,3.1256,3.1679,3.2025,3.2352,3.2718,3.3083,3.341,3.3699,3.418,3.4449,3.4949,3.5521,3.5532,3.5821,3.5976,3.6016,3.6016,3.5951,3.5747,3.5547,3.5423,3.5059,3.5026,3.5218,3.5276,3.5295,3.5315,3.543,3.5411,3.5262,3.4699,3.416,3.375,3.3468,3.2949,3.2564,3.3006,3.2968,3.2545,3.2622,3.2622,3.2417,3.2128,3.1872,3.2006,3.2545,3.3276,3.3372,3.3083,3.2872,3.2884,3.2833,3.3173,3.3697,3.4274,3.4298,3.4749,3.4905,3.4874,3.4827,3.4911,3.4814,3.4584,3.4712,3.5027,3.5133,3.4781,3.4719,3.4533,3.4166,3.3667,3.3987,3.4045,3.4526,3.5007,3.5103,3.5295,3.5315,3.5507,3.5507,3.5507,3.5507,3.5507,3.543,3.5507,3.5507,3.5507,3.5507,3.5507,3.5468,3.4891,3.4641,3.5122,3.5276,3.4968,3.4891,3.4699,3.4635,2.9916,3.021,3.0381,3.0527,3.0595,3.0277,3.0176,3.0299,3.0826,3.1013,3.0837,3.1053,3.091,3.0552,3.0448,3.0737,3.116,3.1487,3.2275,3.2833,3.316,3.3564,3.391,3.3968,3.3872,3.4699,3.4968,3.5141,3.5624,3.5697,3.5841,3.5957,3.5996,3.6016,3.5996,3.5905,3.5766,3.5669,3.5565,3.5507,3.5507,3.5507,3.5507,3.5507,3.5507,3.5526,3.5468,3.5199,3.4757,3.443,3.4372,3.3891,3.341,3.391,3.3833,3.3276,3.3449,3.3455,3.3192,3.3128,3.3468,3.4026,3.4353,3.443,3.4295,3.443,3.4141,3.3949,3.3699,3.4,3.4166,3.4433,3.4681,3.5456,3.5781,3.5726,3.5659,3.5586,3.5526,3.5122,3.5194,3.5437,3.5482,3.5465,3.5499,3.5483,3.5116,3.4826,3.4955,3.5045,3.5257,3.5449,3.5488,3.5507,3.5507,3.5507,3.5507,3.5507,3.5507,3.5507,3.5507,3.5507,3.5507,3.5507,3.5507,3.5507,3.5507,3.5507,3.5488,3.5488,3.5488,3.5411,3.5449,3.5507,3.5398,3.0687,3.098,3.1513,3.1476,3.1042,3.0625,3.0466,3.055,3.0986,3.1562,3.2,3.1785,3.1476,3.1116,3.0891,3.1314,3.1987,3.2468,3.3179,3.366,3.4026,3.443,3.468,3.4699,3.4545,3.5199,3.5064,3.5103,3.5636,3.5697,3.5821,3.5918,3.5976,3.6016,3.5957,3.584,3.5703,3.563,3.5565,3.5507,3.5507,3.5507,3.5526,3.5526,3.5545,3.5545,3.5584,3.543,3.5218,3.5026,3.4949,3.4757,3.4564,3.4507,3.468,3.4353,3.4083,3.4224,3.3986,3.3922,3.4622,3.5026,3.5257,3.5353,3.5507,3.5488,3.4988,3.4699,3.4584,3.4584,3.4641,3.4892,3.5078,3.5709,3.5814,3.5791,3.5723,3.5661,3.568,3.5584,3.5681,3.564,3.5737,3.5745,3.5693,3.5704,3.5483,3.5193,3.5128,3.5199,3.5199,3.5372,3.5488,3.5507,3.5507,3.5507,3.5507,3.5507,3.5507,3.5507,3.5507,3.5507,3.5507,3.5507,3.5507,3.5507,3.5507,3.5507,3.5507,3.5488,3.5507,3.5507,3.5507,3.5507,3.5507,3.1806,3.2522,3.2545,3.171,3.0558,3.0259,3.0326,3.052,3.1399,3.2416,3.3189,3.2168,3.2001,3.2334,3.1872,3.216,3.2891,3.3583,3.4122,3.4353,3.4814,3.5315,3.5372,3.5257,3.5084,3.5391,3.5353,3.5353,3.5603,3.5659,3.5758,3.587,3.5957,3.5996,3.5976,3.5918,3.582,3.57,3.5624,3.5565,3.5507,3.5507,3.5545,3.5584,3.5605,3.5611,3.5592,3.5597,3.543,3.5353,3.5353,3.5276,3.5238,3.5238,3.5315,3.5257,3.5257,3.532,3.532,3.4641,3.4814,3.5372,3.5507,3.5526,3.5507,3.5488,3.5488,3.518,3.5276,3.5353,3.5468,3.5515,3.5611,3.5706,3.5817,3.586,3.5788,3.5682,3.5695,3.5746,3.5757,3.5755,3.5898,3.595,3.5866,3.5807,3.5739,3.5586,3.5425,3.5353,3.5334,3.5372,3.5526,3.5507,3.5507,3.5507,3.5507,3.5507,3.5507,3.5507,3.5507,3.5507,3.5507,3.5507,3.5507,3.5507,3.5507,3.5507,3.5507,3.5507,3.5507,3.5507,3.5507,3.5507,3.5507,3.2357,3.2651,3.3162,3.2783,3.185,3.1783,3.1519,3.1237,3.2112,3.2957,3.3412,3.3004,3.2809,3.282,3.2776,3.2917,3.3718,3.391,3.4334,3.5064,3.5411,3.5449,3.5507,3.5507,3.5507,3.5507,3.5507,3.5545,3.5622,3.572,3.5715,3.5777,3.6074,3.5957,3.5976,3.5937,3.584,3.5696,3.562,3.5565,3.5507,3.5545,3.5617,3.5674,3.5723,3.5814,3.5792,3.584,3.568,3.5603,3.5603,3.5507,3.5507,3.5507,3.5507,3.5507,3.5507,3.5507,3.5488,3.5199,3.5199,3.5449,3.5545,3.5565,3.5565,3.5622,3.5622,3.5584,3.5578,3.5565,3.5565,3.5622,3.5705,3.5804,3.5891,3.5882,3.583,3.5693,3.5648,3.5747,3.5805,3.583,3.5939,3.5996,3.5937,3.5918,3.5859,3.5762,3.5613,3.5589,3.5559,3.5526,3.5565,3.5545,3.5526,3.5507,3.5507,3.5507,3.5507,3.5507,3.5507,3.5507,3.5507,3.5507,3.5507,3.5507,3.5526,3.5565,3.5507,3.5507,3.5718,3.5641,3.5507,3.5507,3.5507,3.3018,3.3073,3.3587,3.3348,3.2614,3.2323,3.1843,3.162,3.2447,3.3156,3.3588,3.3601,3.3629,3.3517,3.3412,3.3788,3.457,3.4661,3.4776,3.5488,3.5488,3.5507,3.5507,3.5507,3.5507,3.5507,3.5507,3.5545,3.5622,3.5925,3.6349,3.6647,3.6426,3.6445,3.6367,3.6191,3.5862,3.5728,3.5646,3.5584,3.5622,3.5784,3.6048,3.6242,3.6445,3.6684,3.6526,3.6309,3.6059,3.5944,3.5757,3.5565,3.5526,3.5507,3.5507,3.5507,3.5507,3.5507,3.5488,3.5488,3.543,3.5488,3.5565,3.5603,3.5624,3.5654,3.5673,3.5643,3.5637,3.563,3.563,3.5707,3.5804,3.5894,3.5924,3.5929,3.5888,3.5768,3.5718,3.5811,3.5824,3.589,3.5957,3.5976,3.5996,3.5976,3.5976,3.5879,3.5781,3.5762,3.5723,3.5662,3.5605,3.5586,3.5553,3.5526,3.5507,3.5507,3.5507,3.5507,3.5507,3.5507,3.5507,3.5507,3.5545,3.5565,3.5622,3.5641,3.5853,3.6084,3.6315,3.6084,3.5622,3.5622,3.5738,3.3807,3.3807,3.3807,3.3368,3.2619,3.207,3.1646,3.1609,3.236,3.3284,3.413,3.3422,3.3766,3.4653,3.4187,3.4431,3.5191,3.5339,3.543,3.5488,3.5488,3.5507,3.5507,3.5507,3.5507,3.5507,3.5545,3.5622,3.5661,3.6483,3.7329,3.7746,3.7378,3.7246,3.6973,3.6582,3.6113,3.582,3.5925,3.588,3.593,3.6419,3.6805,3.7121,3.7492,3.7819,3.772,3.7416,3.7104,3.6729,3.6232,3.5834,3.5622,3.5565,3.5545,3.5507,3.5507,3.5507,3.5507,3.5507,3.5507,3.5526,3.5565,3.5603,3.5647,3.5717,3.5745,3.5721,3.5689,3.5689,3.5721,3.5804,3.5901,3.593,3.5958,3.5962,3.5947,3.5885,3.5853,3.5834,3.5803,3.5859,3.5976,3.6016,3.6016,3.6016,3.5996,3.5976,3.5898,3.5898,3.584,3.5735,3.5687,3.5649,3.5612,3.5592,3.5545,3.5545,3.5507,3.5507,3.5507,3.5507,3.5507,3.5526,3.5584,3.5699,3.593,3.6199,3.6469,3.6719,3.6988,3.6603,3.618,3.618,3.6199,3.3807,3.3807,3.3807,3.3652,3.3485,3.3401,3.3278,3.3201,3.358,3.398,3.4181,3.3953,3.4266,3.503,3.4838,3.5082,3.5302,3.5488,3.5488,3.5507,3.5507,3.5507,3.5507,3.5507,3.5507,3.5507,3.5565,3.5757,3.6392,3.7194,3.7647,3.7993,3.8109,3.8007,3.7754,3.7285,3.6582,3.6151,3.6366,3.6414,3.6622,3.7228,3.7643,3.804,3.8315,3.858,3.8453,3.8245,3.7969,3.7771,3.7629,3.7294,3.6573,3.6496,3.6362,3.5565,3.5507,3.5507,3.5507,3.5507,3.5526,3.5584,3.5617,3.5651,3.5706,3.5775,3.5831,3.5794,3.5753,3.5745,3.5766,3.5834,3.592,3.5958,3.5984,3.5979,3.5957,3.5855,3.5833,3.5873,3.5838,3.5898,3.5996,3.6016,3.6016,3.6016,3.6016,3.5996,3.5976,3.5976,3.5937,3.584,3.5977,3.5986,3.5755,3.5669,3.563,3.5584,3.5545,3.5507,3.5507,3.5507,3.5507,3.5622,3.5815,3.6103,3.6411,3.6796,3.7392,3.7488,3.768,3.7199,3.6834,3.6873,3.693,3.3807,3.3807,3.3807,3.3807,3.385,3.4091,3.4046,3.39,3.4083,3.4147,3.4043,3.4025,3.4379,3.487,3.4906,3.5102,3.5455,3.5507,3.5507,3.5507,3.5507,3.5507,3.5507,3.5507,3.5507,3.5507,3.5545,3.5699,3.6488,3.718,3.7704,3.9112,3.9003,3.885,3.8672,3.8184,3.7519,3.7078,3.6942,3.7088,3.7522,3.8075,3.8498,3.878,3.9004,3.9234,3.9253,3.9144,3.8879,3.8731,3.8662,3.8089,3.7522,3.7436,3.7275,3.665,3.6622,3.6392,3.6194,3.6026,3.5872,3.5688,3.5669,3.5723,3.5785,3.5853,3.5842,3.5825,3.5791,3.5794,3.5807,3.5839,3.5907,3.5975,3.5991,3.6001,3.5908,3.5807,3.5823,3.5862,3.5918,3.5976,3.6016,3.6016,3.6016,3.6016,3.6016,3.6016,3.5996,3.5996,3.5976,3.5937,3.6191,3.6404,3.6144,3.5902,3.5879,3.5791,3.5584,3.5545,3.5507,3.5526,3.5565,3.5834,3.6161,3.6507,3.6911,3.7815,3.8411,3.843,3.8527,3.8507,3.8104,3.768,3.7757,3.3807,3.3807,3.3807,3.3807,3.3842,3.4074,3.405,3.3853,3.4083,3.4068,3.3868,3.3834,3.4136,3.4593,3.4734,3.4999,3.532,3.5446,3.5507,3.5507,3.5507,3.5507,3.5507,3.5507,3.5507,3.5507,3.5603,3.5815,3.6122,3.7219,3.8873,4.0408,3.9942,3.9685,3.9578,3.8993,3.8553,3.8556,3.7994,3.78,3.8277,3.8864,3.9441,3.9619,4.0108,4.0599,4.0584,4.0259,3.9746,3.9482,3.9208,3.8721,3.843,3.8141,3.8009,3.7646,3.7315,3.6873,3.6507,3.6392,3.6142,3.5919,3.5737,3.5869,3.5983,3.5921,3.5852,3.5794,3.5776,3.5763,3.5771,3.584,3.5918,3.5976,3.6004,3.5992,3.5912,3.5823,3.5793,3.5868,3.5918,3.5976,3.6016,3.6016,3.6016,3.6016,3.6016,3.6016,3.6074,3.6074,3.6269,3.625,3.6523,3.6772,3.6567,3.6365,3.6222,3.6063,3.5746,3.5565,3.5507,3.5565,3.5641,3.618,3.6757,3.7046,3.7526,3.8527,3.9181,3.9046,3.9258,3.9777,3.9508,3.8796,3.8738,3.3807,3.3807,3.3807,3.3807,3.3842,3.4074,3.4043,3.3845,3.4073,3.4043,3.3842,3.3834,3.3986,3.4334,3.4572,3.487,3.5174,3.5369,3.5474,3.5507,3.5507,3.5507,3.5507,3.5507,3.5507,3.5507,3.5661,3.6232,3.7324,3.8599,3.9623,4.0392,4.0308,4.034,4.0341,3.9719,3.9471,3.9782,3.918,3.8757,3.9065,3.9715,4.0273,4.035,4.0699,4.0733,4.0742,4.0752,4.0618,4.0599,4.0638,4.0102,3.9361,3.8697,3.7906,3.7243,3.73,3.6935,3.6628,3.6622,3.6521,3.6309,3.6189,3.6222,3.6196,3.5982,3.5853,3.5776,3.572,3.5736,3.5762,3.584,3.5937,3.5976,3.6,3.5968,3.5921,3.5869,3.5814,3.5833,3.5899,3.5957,3.5996,3.6016,3.6016,3.6016,3.6016,3.6055,3.6211,3.6328,3.6953,3.7012,3.7031,3.7143,3.6923,3.6868,3.6755,3.6215,3.5746,3.5603,3.5526,3.5853,3.6199,3.6892,3.745,3.7815,3.845,3.945,3.9892,3.9681,3.9738,4.0142,4.0277,3.9758,3.9854,3.3807,3.3807,3.3807,3.3807,3.3842,3.3961,3.3935,3.3842,3.3961,3.3935,3.3834,3.3834,3.3935,3.4152,3.4401,3.4753,3.5037,3.5223,3.5383,3.546,3.5507,3.5507,3.5507,3.5507,3.5507,3.5526,3.6045,3.6906,3.8474,3.921,3.9873,4.0431,4.0635,4.0717,4.0704,4.0203,4.0137,4.0743,4.0031,3.9769,3.9792,4.0277,4.0527,4.062,4.0639,4.0677,4.0781,4.0867,4.093,4.0996,4.1016,4.0801,4.0205,3.9779,3.8984,3.8304,3.7935,3.7493,3.7065,3.6958,3.7049,3.6832,3.665,3.6722,3.5996,3.5781,3.5771,3.5699,3.5622,3.5598,3.5698,3.5781,3.5898,3.5957,3.5976,3.5956,3.5913,3.5849,3.5775,3.5755,3.5859,3.5976,3.6016,3.6016,3.6133,3.6719,3.6621,3.6894,3.6934,3.6797,3.7363,3.7769,3.7783,3.7425,3.7027,3.7141,3.7325,3.6658,3.5968,3.5718,3.5738,3.6295,3.6815,3.7353,3.8007,3.8757,3.9488,4.0119,4.0354,4.0181,4.0258,4.045,4.0489,4.0489,4.0392,3.3807,3.3807,3.3807,3.3807,3.3807,3.3807,3.3807,3.3807,3.3807,3.3834,3.3807,3.3807,3.3935,3.4074,3.4242,3.4628,3.4927,3.5107,3.5273,3.5446,3.5493,3.5507,3.5507,3.5507,3.5622,3.6026,3.6584,3.7733,3.9148,3.9657,4.0065,4.045,4.062,4.0696,4.0565,4.0342,4.0297,4.0637,4.0412,4.0226,4.038,4.0585,4.0527,4.0508,4.0508,4.0546,4.0658,4.0756,4.0849,4.0918,4.1016,4.0879,4.074,4.0417,3.9663,3.8996,3.8796,3.8368,3.7993,3.7983,3.7733,3.743,3.7288,3.6954,3.6319,3.5938,3.5945,3.5968,3.5911,3.5746,3.5822,3.5996,3.6113,3.6172,3.6172,3.6034,3.5963,3.604,3.6102,3.6025,3.6113,3.6269,3.623,3.6211,3.668,3.7266,3.7637,3.7988,3.8164,3.793,3.8047,3.839,3.8533,3.8043,3.755,3.748,3.7803,3.7405,3.6757,3.6219,3.6045,3.6776,3.7334,3.7642,3.8334,3.9335,3.9758,4.0196,4.0354,4.0489,4.0489,4.0489,4.0489,4.0489,4.0489,3.3807,3.3807,3.3807,3.3807,3.3807,3.3807,3.3807,3.3807,3.3807,3.3807,3.3807,3.3807,3.3842,3.3884,3.4123,3.4413,3.4717,3.4908,3.5223,3.546,3.5427,3.546,3.5565,3.568,3.5968,3.6622,3.743,3.8349,3.9461,3.9985,4.0277,4.0489,4.0508,4.0635,4.0752,4.0606,4.0604,4.0811,4.077,4.0568,4.0515,4.06,4.0508,4.0489,4.0489,4.0508,4.0546,4.0658,4.0711,4.0777,4.0825,4.082,4.08,4.0636,3.9927,3.9189,3.9046,3.8604,3.8262,3.8607,3.838,3.8136,3.8106,3.8339,3.7643,3.6884,3.6988,3.7233,3.7041,3.6496,3.6508,3.6816,3.6973,3.6973,3.6973,3.6517,3.6254,3.6832,3.7257,3.7189,3.7168,3.7168,3.709,3.7344,3.7871,3.8281,3.8359,3.8691,3.8926,3.8848,3.8789,3.9006,3.9265,3.9264,3.8992,3.8234,3.819,3.7873,3.7584,3.7142,3.7084,3.7507,3.7969,3.8257,3.9046,4.0065,4.0354,4.0296,4.0373,4.0489,4.0489,4.0489,4.0489,4.0489,4.0489]},{"header":{"parameterUnit":"m.s-1","parameterCategory":1,"la1":31.0,"la2":29.5877,"lo1":-88.7671,"lo2":-86.6584,"dy":0.0162,"dx":0.0185,"nx":115,"ny":88,"refTime":"2024-09-19T12:00:00:Z","depth":0,"parameterNumber":3,"parameterNumberName":"V-component_of_WINDS"},"data":[0.0,0.0,0.0,0.0,0.0,0.0,0.0,0.0,0.0,0.0,0.0,0.0,0.0,0.0,0.0,0.0,0.0,0.0,0.0,0.0,0.0,0.0,0.0,0.0,0.0,0.0,0.0,0.0,0.0,0.0,0.0,0.0,0.0,0.0,0.0,0.0,0.0,0.0,0.0,0.0,0.0,0.0,0.0,0.0,0.0,0.0,0.0,0.0,0.0,0.0,0.0,0.0,0.0,0.0,0.0,0.0,0.0,0.0,0.0,0.0,0.0,0.0,0.0,0.0,0.0,0.0,0.0,0.0,0.0,0.0,0.0,0.0,0.0,0.0,0.0,0.0,0.0,0.0,0.0,0.0,0.0,0.0,0.0,0.0,0.0,0.0,0.0,0.0,0.0,0.0,0.0,0.0,0.0,0.0,0.0,0.0,0.0,0.0,0.0,0.0,0.0,0.0,0.0,0.0,0.0,0.0,0.0,0.0,0.0,0.0,0.0,0.0,0.0,0.0,0.0,0.0,0.0,0.0,0.0,0.0,0.0,0.0,0.0,0.0,0.0,0.0,0.0,0.0,0.0,0.0,0.0,0.0,0.0,0.0,0.0,0.0,0.0,0.0,0.0,0.0,0.0,0.0,0.0,0.0,0.0,0.0,0.0,0.0,0.0,0.0,0.0,0.0,0.0,0.0,0.0,0.0,0.0,0.0,0.0,0.0,0.0,0.0,0.0,0.0,0.0,0.0,0.0,0.0,0.0,0.0,0.0,0.0,0.0,0.0,0.0,0.0,0.0,0.0,0.0,0.0,0.0,0.0,0.0,0.0,0.0,0.0,0.0,0.0,0.0,0.0,0.0,0.0,0.0,0.0,0.0,0.0,0.0,0.0,0.0,0.0,0.0,0.0,0.0,0.0,0.0,0.0,0.0,0.0,0.0,0.0,0.0,0.0,0.0,0.0,0.0,0.0,0.0,0.0,0.0,0.0,0.0,0.0,0.0,0.0,0.0,0.0,0.0,0.0,0.0,0.0,0.0,0.0,0.0,0.0,0.0,0.0,0.0,0.0,0.0,0.0,0.0,0.0,0.0,0.0,0.0,0.0,0.0,0.0,0.0,0.0,0.0,0.0,0.0,0.0,0.0,0.0,0.0,0.0,0.0,0.0,0.0,0.0,0.0,0.0,0.0,0.0,0.0,0.0,0.0,0.0,0.0,0.0,0.0,0.0,0.0,0.0,0.0,0.0,0.0,0.0,0.0,0.0,0.0,0.0,0.0,0.0,0.0,0.0,0.0,0.0,0.0,0.0,0.0,0.0,0.0,0.0,0.0,0.0,0.0,0.0,0.0,0.0,0.0,0.0,0.0,0.0,0.0,0.0,0.0,0.0,0.0,0.0,0.0,0.0,0.0,0.0,0.0,0.0,0.0,0.0,0.0,0.0,0.0,0.0,0.0,0.0,0.0,0.0,0.0,0.0,0.0,0.0,0.0,0.0,0.0,0.0,0.0,0.0,0.0,0.0,0.0,0.0,0.0,0.0,0.0,0.0,0.0,0.0,0.0,0.0,0.0,0.0,0.0,0.0,0.0,0.0,0.0,0.0,0.0,0.0,0.0,0.0,0.0,0.0,0.0,0.0,0.0,0.0,0.0,0.0,0.0,0.0,0.0,0.0,0.0,0.0,0.0,0.0,0.0,0.0,0.0,0.0,0.0,0.0,0.0,0.0,0.0,0.0,0.0,0.0,0.0,0.0,0.0,0.0,0.0,0.0,0.0,0.0,0.0,0.0,0.0,0.0,0.0,0.0,0.0,0.0,0.0,0.0,0.0,0.0,0.0,0.0,0.0,0.0,0.0,0.0,0.0,0.0,0.0,0.0,0.0,0.0,0.0,0.0,0.0,0.0,0.0,0.0,0.0,0.0,0.0,0.0,0.0,0.0,0.0,0.0,0.0,0.0,0.0,0.0,0.0,0.0,0.0,0.0,0.0,0.0,0.0,0.0,0.0,0.0,0.0,0.0,0.0,0.0,0.0,0.0,0.0,0.0,0.0,0.0,0.0,0.0,0.0,0.0,0.0,0.0,0.0,0.0,0.0,0.0,0.0,0.0,0.0,0.0,0.0,0.0,0.0,0.0,0.0,0.0,0.0,0.0,0.0,0.0,0.0,0.0,0.0,0.0,0.0,0.0,0.0,0.0,0.0,0.0,0.0,0.0,0.0,0.0,0.0,0.0,0.0,0.0,0.0,0.0,0.0,0.0,0.0,0.0,0.0,0.0,0.0,0.0,0.0,0.0,0.0,0.0,0.0,0.0,0.0,0.0,0.0,0.0,0.0,0.0,0.0,0.0,0.0,0.0,0.0,0.0,0.0,0.0,0.0,0.0,0.0,0.0,0.0,0.0,0.0,0.0,0.0,0.0,0.0,0.0,0.0,0.0,0.0,0.0,0.0,0.0,0.0,0.0,0.0,0.0,0.0,0.0,0.0,0.0,0.0,0.0,0.0,0.0,0.0,0.0,0.0,0.0,0.0,0.0,0.0,0.0,0.0,0.0,0.0,0.0,0.0,0.0,0.0,0.0,0.0,0.0,0.0,0.0,0.0,0.0,0.0,0.0,0.0,0.0,0.0,0.0,0.0,0.0,0.0,0.0,0.0,0.0,0.0,0.0,0.0,0.0,0.0,0.0,0.0,0.0,0.0,0.0,0.0,0.0,0.0,0.0,0.0,0.0,0.0,0.0,0.0,0.0,0.0,0.0,0.0,0.0,0.0,0.0,0.0,0.0,0.0,0.0,0.0,0.0,0.0,0.0,0.0,0.0,0.0,0.0,0.0,0.0,0.0,0.0,0.0,0.0,0.0,0.0,0.0,0.0,0.0,0.0,0.0,0.0,0.0,0.0,0.0,0.0,0.0,0.0,0.0,0.0,0.0,0.0,0.0,0.0,0.0,0.0,0.0,0.0,0.0,0.0,0.0,0.0,0.0,0.0,0.0,0.0,0.0,0.0,0.0,0.0,0.0,0.0,0.0,0.0,0.0,0.0,0.0,0.0,0.0,0.0,0.0,0.0,0.0,0.0,0.0,0.0,0.0,0.0,0.0,0.0,0.0,0.0,0.0,0.0,0.0,0.0,0.0,0.0,0.0,0.0,0.0,0.0,0.0,0.0,0.0,0.0,0.0,0.0,0.0,0.0,0.0,0.0,0.0,0.0,0.0,0.0,0.0,0.0,0.0,0.0,0.0,0.0,0.0,0.0,0.0,0.0,0.0,0.0,0.0,0.0,0.0,0.0,0.0,0.0,0.0,0.0,0.0,0.0,0.0,0.0,0.0,0.0,0.0,0.0,0.0,0.0,0.0,0.0,0.0,0.0,0.0,0.0,0.0,0.0,0.0,0.0,0.0,0.0,0.0,0.0,0.0,0.0,0.0,0.0,0.0,0.0,0.0,0.0,0.0,0.0,0.0,0.0,0.0,0.0,0.0,0.0,0.0,0.0,0.0,0.0,0.0,0.0,0.0,0.0,0.0,0.0,0.0,0.0,0.0,0.0,0.0,0.0,0.0,0.0,0.0,0.0,0.0,0.0,0.0,0.0,0.0,0.0,0.0,0.0,0.0,0.0,0.0,0.0,0.0,0.0,0.0,0.0,0.0,0.0,0.0,0.0,0.0,0.0,0.0,0.0,0.0,0.0,0.0,0.0,0.0,0.0,0.0,0.0,0.0,0.0,0.0,0.0,0.0,0.0,0.0,0.0,0.0,0.0,0.0,0.0,0.0,0.0,0.0,0.0,0.0,0.0,0.0,0.0,0.0,0.0,0.0,0.0,0.0,0.0,0.0,0.0,0.0,0.0,0.0,0.0,0.0,0.0,0.0,0.0,0.0,0.0,0.0,0.0,0.0,0.0,0.0,0.0,0.0,0.0,0.0,0.0,0.0,0.0,0.0,0.0,0.0,0.0,0.0,0.0,0.0,0.0,0.0,0.0,0.0,0.0,0.0,0.0,0.0,0.0,0.0,0.0,0.0,0.0,0.0,0.0,0.0,0.0,0.0,0.0,0.0,0.0,0.0,0.0,0.0,0.0,0.0,0.0,0.0,0.0,0.0,0.0,0.0,0.0,0.0,0.0,0.0,0.0,0.0,0.0,0.0,0.0,0.0,0.0,0.0,0.0,0.0,0.0,0.0,0.0,0.0,0.0,0.0,0.0,0.0,0.0,0.0,0.0,0.0,0.0,0.0,0.0,0.0,0.0,0.0,0.0,0.0,0.0,0.0,0.0,0.0,0.0,0.0,0.0,0.0,0.0,-0.1967,0.0,0.0,0.0,0.0,0.0,0.0,0.0,0.0,0.0,0.0,0.0,0.0,0.0,0.0,0.0,0.0,0.0,0.0,0.0,0.0,0.0,0.0,0.0,0.0,0.0,0.0,0.0,0.0,0.0,0.0,0.0,0.0,0.0,0.0,0.0,0.0,0.0,0.0,0.0,0.0,0.0,0.0,0.0,0.0,0.0,0.0,0.0,0.0,0.0,0.0,0.0,0.0,0.0,0.0,0.0,0.0,0.0,0.0,0.0,0.0,0.0,0.0,0.0,0.0,0.0,0.0,0.0,0.0,0.0,0.0,0.0,0.0,0.0,0.0,0.0,0.0,0.0,0.0,0.0,0.0,0.0,0.0,0.0,0.0,0.0,0.0,0.0,0.0,0.0,0.0,0.0,0.0,0.0,0.0,0.0,0.0,0.0,0.0,0.0,0.0,0.0,0.0,0.0,0.0,0.0,0.0,0.0,0.0,0.0,0.0,0.0,0.0,0.0,-0.0554,-0.1764,0.0,0.0,0.0,0.0,0.0,0.0,0.0,0.0,0.0,0.0,0.0,0.0,0.0,0.0,0.0,0.0,0.0,0.0,0.0,0.0,0.0,0.0,0.0,0.0,0.0,0.0,0.0,0.0,0.0,0.0,0.0,0.0,0.0,0.0,0.0,0.0,0.0,0.0,0.0,0.0,0.0,0.0,0.0,0.0,0.0,0.0,0.0,0.0,0.0,0.0,0.0,0.0,0.0,0.0,0.0,0.0,0.0,0.0,0.0,0.0,0.0,0.0,0.0,0.0,0.0,0.0,0.0,0.0,0.0,0.0,0.0,0.0,0.0,0.0,0.0,0.0,0.0,0.0,0.0,0.0,0.0,0.0,0.0,0.0,0.0,0.0,0.0,0.0,0.0,0.0,0.0,0.0,0.0,0.0,0.0,0.0,0.0,0.0,0.0,0.0,0.0,0.0,0.0,0.0,0.0,0.0,0.0,0.0,0.0,0.0,0.0,0.0,0.0,-0.0543,-0.165,0.0,0.0,0.0,0.0,0.0,0.0,0.0,0.0,0.0,0.0,0.0,0.0,0.0,0.0,0.0,0.0,0.0,0.0,0.0,0.0,0.0,0.0,0.0,0.0,0.0,0.0,0.0,0.0,0.0,0.0,0.0,0.0,0.0,0.0,0.0,0.0,0.0,0.0,0.0,0.0,0.0,0.0,0.0,0.0,0.0,0.0,0.0,0.0,0.0,0.0,0.0,0.0,0.0,0.0,0.0,0.0,0.0,0.0,0.0,0.0,0.0,0.0,0.0,0.0,0.0,0.0,0.0,0.0,0.0,0.0,0.0,0.0,0.0,0.0,0.0,0.0,0.0,0.0,0.0,0.0,0.0,0.0,0.0,0.0,0.0,0.0,0.0,0.0,0.0,0.0,0.0,0.0,0.0,0.0,0.0,0.0,0.0,0.0,0.0,0.0,0.0,0.0,0.0,0.0,0.0,0.0,0.0,0.0,0.0,0.0,0.0,0.0,0.0,0.0,-0.1333,0.0,0.0,0.0,0.0,0.0,0.0,0.0,0.0,0.0,0.0,0.0,0.0,0.0,0.0,0.0,0.0,0.0,0.0,0.0,0.0,0.0,0.0,0.0,0.0,0.0,0.0,0.0,0.0,0.0,0.0,0.0,0.0,0.0,0.0,0.0,0.0,0.0,0.0,0.0,0.0,0.0,0.0,0.0,0.0,0.0,0.0,0.0,0.0,0.0,0.0,0.0,0.0,0.0,0.0,0.0,0.0,0.0,0.0,0.0,0.0,0.0,0.0,0.0,0.0,0.0,0.0,0.0,0.0,0.0,0.0,0.0,0.0,0.0,0.0,0.0,0.0,0.0,0.0,0.0,0.0,0.0,0.0,0.0,0.0,0.0,0.0,0.0,0.0,0.0,0.0,0.0,0.0,0.0,0.0,0.0,0.0,0.0,0.0,0.0,0.0,0.0,0.0,0.0,0.0,0.0,0.0,0.0,0.0,0.0,0.0,0.0,0.0,-0.1035,-0.1478,0.0,0.0,0.0,0.0,0.0,0.0,0.0,0.0,0.0,0.0,0.0,0.0,0.0,0.0,0.0,0.0,0.0,0.0,0.0,0.0,0.0,0.0,0.0,0.0,0.0,0.0,0.0,0.0,0.0,0.0,0.0,0.0,0.0,0.0,0.0,0.0,0.0,0.0,0.0,0.0,0.0,0.0,0.0,0.0,0.0,0.0,0.0,0.0,0.0,0.0,0.0,0.0,0.0,0.0,0.0,0.0,0.0,0.0,0.0,0.0,0.0,0.0,0.0,0.0,0.0,0.0,0.0,0.0,0.0,0.0,0.0,0.0,0.0,0.0,0.0,0.0,0.0,0.0,0.0,0.0,0.0,0.0,0.0,0.0,0.0,0.0,0.0,0.0,0.0,0.0,0.0,0.0,0.0,0.0,0.0,0.0,0.0,0.0,0.0,0.0,0.0,0.0,0.0,0.0,0.0,0.0,0.0,0.0,0.0,0.0,0.0,0.0,0.0,-0.1277,-0.1881,-0.1694,0.0,0.0,0.0,0.0,0.0,0.0,0.0,0.0,0.0,0.0,0.0,0.0,0.0,0.0,0.0,0.0,0.0,0.0,0.0,0.0,0.0,0.0,0.0,0.0,0.0,0.0,0.0,0.0,0.0,0.0,0.0,0.0,0.0,0.0,0.0,0.0,0.0,0.0,0.0,0.0,0.0,0.0,0.0,0.0,0.0,0.0,0.0,0.0,0.0,0.0,0.0,0.0,0.0,0.0,0.0,0.0,0.0,0.0,0.0,0.0,0.0,0.0,0.0,0.0,0.0,0.0,0.0,0.0,0.0,0.0,0.0,0.0,0.0,0.0,0.0,0.0,0.0,0.0,0.0,0.0,0.0,0.0,0.0,0.0,0.0,0.0,0.0,0.0,0.0,0.0,0.0,0.0,0.0,0.0,0.0,0.0,0.0,0.0,0.0,0.0,0.0,0.0,0.0,0.0,0.0,0.0,0.0,0.0,0.0,0.0,0.0,0.0,0.0,-0.0906,0.0,0.0,0.0,0.0,0.0,0.0,0.0,0.0,0.0,0.0,0.0,0.0,0.0,0.0,0.0,0.0,0.0,0.0,0.0,0.0,0.0,0.0,0.0,0.0,0.0,0.0,0.0,0.0,0.0,0.0,0.0,0.0,0.0,0.0,0.0,0.0,0.0,0.0,0.0,0.0,0.0,0.0,0.0,0.0,0.0,0.0,0.0,0.0,0.0,0.0,0.0,0.0,0.0,0.0,0.0,0.0,0.0,0.0,0.0,0.0,0.0,0.0,0.0,0.0,0.0,0.0,0.0,0.0,0.0,0.0,0.0,0.0,0.0,0.0,0.0,0.0,0.0,0.0,0.0,0.0,0.0,0.0,0.0,0.0,0.0,0.0,0.0,0.0,0.0,0.0,0.0,0.0,0.0,0.0,0.0,0.0,0.0,0.0,0.0,0.0,0.0,0.0,0.0,0.0,0.0,0.0,0.0,0.0,0.0,0.0,0.0,0.0,0.0,0.0,-0.0567,0.0,0.0,0.0,0.0,0.0,0.0,0.0,0.0,0.0,0.0,0.0,0.0,0.0,0.0,0.0,0.0,0.0,0.0,0.0,0.0,0.0,0.0,0.0,0.0,0.0,0.0,0.0,0.0,0.0,0.0,0.0,0.0,0.0,0.0,0.0,0.0,0.0,0.0,0.0,0.0,0.0,0.0,0.0,0.0,0.0,0.0,0.0,0.0,0.0,0.0,0.0,0.0,0.0,0.0,0.0,0.0,0.0,0.0,0.0,0.0,0.0,0.0,0.0,0.0,0.0,0.0,0.0,0.0,0.0,0.0,0.0,0.0,0.0,0.0,0.0,0.0,0.0,0.0,0.0,0.0,0.0,0.0,0.0,0.0,0.0,0.0,0.0,0.0,0.0,0.0,0.0,0.0,0.0,0.0,0.0,0.0,0.0,0.0,0.0,0.0,0.0,0.0,0.0,0.0,0.0,0.0,0.0,0.0,0.0,0.0,0.0,0.0,0.0,0.0,-0.0398,0.0,0.0,0.0,0.0,0.0,0.0,0.0,0.0,0.0,0.0,0.0,0.0,0.0,0.0,0.0,0.0,0.0,0.0,0.0,0.0,0.0,0.0,0.0,0.0,0.0,0.0,0.0,0.0,0.0,0.0,0.0,0.0,0.0,0.0,0.0,0.0,0.0,0.0,0.0,0.0,0.0,0.0,0.0,0.0,0.0,0.0,0.0,0.0,0.0,0.0,0.0,0.0,0.0,0.0,0.0,0.0,0.0,0.0,0.0,0.0,0.0,0.0,0.0,0.0,0.0,0.0,0.0,0.0,0.0,0.0,0.0,0.0,0.0,0.0,0.0,0.0,0.0,0.0,0.0,0.0,0.0,0.0,0.0,0.0,0.0,0.0,0.0,0.0,0.0,0.0,0.0,0.0,0.0,0.0,0.0,0.0,0.0,0.0,0.0,0.0,0.0,0.0,0.0,0.0,0.0,0.0,0.0,0.0,0.0045,0.0,0.0,0.0,0.0,0.0,-0.0493,0.0,0.0,0.0,0.0,0.0,0.0,0.0,0.0,0.0,0.0,0.0,0.0,0.0,0.0,0.0,0.0,0.0,0.0,0.0,0.0,0.0,0.0,0.0,0.0,0.0,0.0,0.0,0.0,0.0,0.0,0.0,0.0,0.0,0.0,0.0,0.0,0.0,0.0,0.0,0.0,0.0,0.0,0.0,0.0,0.0,0.0,0.0,0.0,0.0,0.0,0.0,0.0,0.0,0.0,0.0,0.0,0.0,0.0,0.0,0.0,0.0,0.0,0.0,0.0,0.0,0.0,0.0,0.0,0.0,0.0,0.0,0.0,0.0,0.0,0.0,0.0,0.0,0.0,0.0,0.0,0.0,0.0,0.0,0.0,0.0,0.0,0.0,0.0,0.0,0.0,0.0,0.0,0.0,0.0,0.0,0.0,0.0,0.0,0.0,0.0,0.0,0.0,0.0,0.0,0.0,0.0,0.0,0.0,0.0,0.0,0.0,0.0,0.0,-0.1632,-0.2095,0.0,0.0,0.0,0.0,0.0,0.0,0.0,0.0,0.0,0.0,0.0,0.0,0.0,0.0,0.0,0.0,0.0,0.0,0.0,0.0,0.0,0.0,0.0,0.0,0.0,0.0,0.0,0.0,0.0,0.0,0.0,0.0,0.0,0.0,0.0,0.0,0.0,0.0,0.0,0.0,0.0,0.0,0.0,0.0,0.0,0.0,0.0,0.0,0.0,0.0,0.0,0.0,0.0,0.0,0.0,0.0,0.0,0.0,0.0,0.0,0.0,0.0,0.0,0.0,0.0,0.0,0.0,0.0,0.0,0.0,0.0,0.0,0.0,0.0,0.0,0.0,0.0,0.0,0.0,0.0,0.0,0.0,0.0,0.0,0.0,0.0,0.0,0.0,0.0,0.0,0.0,0.0,0.0,0.0,0.0,0.0,0.0,0.0,0.0,0.0,0.0,0.0,0.0,0.0,0.0,0.0,0.0,0.0,0.0,0.1192,-0.0043,-0.0894,-0.1344,-0.2842,-0.3112,-0.2125,0.0,0.0,0.0,0.0,0.0,0.0,0.0,0.0,0.0,0.0,0.0,0.0,0.0,0.0,0.0,0.0,0.0,0.0,0.0,0.0,0.0,0.0,0.0,0.0,0.0,0.0,0.0,0.0,0.0,0.0,0.0,0.0,0.0,0.0,0.0,0.0,0.0,0.0,0.0,0.0,0.0,0.0,0.0,0.0,0.0,0.0,0.0,0.0,0.0,0.0,0.0,0.0,0.0,0.0,0.0,0.0,0.0,0.0,0.0,0.0,0.0,0.0,0.0,0.0,0.0,0.0,0.0,0.0,0.0,0.0,0.0,0.0,0.0,0.0,0.0,0.0,0.0,0.0,0.0,0.0,0.0,0.0,0.0,0.0,0.0,0.0,0.0,0.0,0.0,0.0,0.0,0.0,0.0,0.0,0.0,0.0,0.0,0.0,0.0,0.0,0.0,0.0,0.0,0.0,0.0,0.0,0.0,0.0,0.3129,0.0,-0.2228,-0.3506,-0.3588,-0.3507,0.0,0.0,0.0,0.0,0.0,0.0,0.0,0.0,0.0,0.0,0.0,0.0,0.0,0.0,0.0,0.0,0.0,0.0,0.0,0.0,0.0,0.0,0.0,0.0,0.0,0.0,0.0,0.0,0.0,0.0,0.0,0.0,0.0,0.0,0.0,0.0,0.0,0.0,0.0,0.0,0.0,0.0,0.0,0.0,0.0,0.0,0.0,0.0,0.0,0.0,0.0,0.0,0.0,0.0,0.0,0.0,0.0,0.0,0.0,0.0,0.0,0.0,0.0,0.0,0.0,0.0,0.0,0.0,0.0,0.0,0.0,0.0,0.0,0.0,0.0,0.0,0.0,0.0,0.0,0.0,0.0,0.0,0.0,0.0,0.0,0.0,0.0,0.0,0.0,0.0,0.0,0.0,0.0,0.0,0.0,0.0,0.0,0.0,0.0,0.0,0.0,0.0,0.0,0.0,0.0,0.0,0.0,0.0,0.0,0.3385,0.1463,-0.0848,-0.3478,-0.3583,-0.3516,0.0,0.0,0.0,0.0,0.0,0.0,0.0,0.0,0.0,0.0,0.0,0.0,0.0,0.0,0.0,0.0,0.0,0.0,0.0,0.0,0.0,0.0,0.0,0.0,0.0,0.0,0.0,0.0,0.0,0.0,0.0,0.0,0.0,0.0,0.0,0.0,0.0,0.0,0.0,0.0,0.0,0.0,0.0,0.0,0.0,0.0,0.0,0.0,0.0,0.0,0.0,0.0,0.0,0.0,0.0,0.0,0.0,0.0,0.0,0.0,0.0,0.0,0.0,0.0,0.0,0.0,0.0,0.0,0.0,0.0,0.0,0.0,0.0,0.0,0.0,0.0,0.0,0.0,0.0,0.0,0.0,0.0,0.0,0.0,0.0,0.0,0.0,0.0,0.0,0.0,0.0,0.0,0.0,0.0,0.0,0.0,0.0,0.0,0.0,0.0,0.0,0.0,0.0,0.0,0.0,0.0,0.0,0.0,0.3902,0.3486,0.2136,0.0121,-0.265,-0.3279,-0.3562,0.0,0.0,0.0,0.0,0.0,0.0,0.0,0.0,0.0,0.0,0.0,0.0,0.0,0.0,0.0,0.0,0.0,0.0,0.0,0.0,0.0,0.0,0.0,0.0,0.0,0.0,0.0,0.0,0.0,0.0,0.0,0.0,0.0,0.0,0.0,0.0,0.0,0.0,0.0,0.0,0.0,0.0,0.0,0.0,0.0,0.0,0.0,0.0,0.0,0.0,0.0,0.0,0.0,0.0,0.0,0.0,0.0,0.0,0.0,0.0,0.0,0.0,0.0,0.0,0.0,0.0,0.0,0.0,0.0,0.0,0.0,0.0,0.0,0.0,0.0,0.0,0.0,0.0,0.0,0.0,0.0,0.0,0.0,0.0,0.0,0.0,0.0,0.0,0.0,0.0,0.0,0.0,0.0,0.0,0.0,0.0,0.0,0.0,0.0,0.0,0.0,0.0,0.0,0.0,0.0,0.0,0.0,0.0,0.4426,0.3498,0.2457,0.0842,-0.1391,-0.2849,-0.3637,0.0,0.0,0.0,0.0,0.0,0.0,0.0,0.0,0.0,0.0,0.0,0.0,0.0,0.0,0.0,0.0,0.0,0.0,0.0,0.0,0.0,0.0,0.0,0.0,0.0,0.0,0.0,0.0,0.0,0.0,0.0,0.0,0.0,0.0,0.0,0.0,0.0,0.0,0.0,0.0,0.0,0.0,0.0,0.0,0.0,0.0,0.0,0.0,0.0,0.0,0.0,0.0,0.0,0.0,0.0,0.0,0.0,0.0,0.0,0.0,0.0,0.0,0.0,0.0,0.0,0.0,0.0,0.0,0.0,0.0,0.0,0.0,0.0,0.0,0.0,0.0,0.0,0.0,0.0,0.0,0.0,0.0,0.0,0.0,0.0,0.0,0.0,0.0,0.0,0.0,0.0,0.0,0.0,0.0,0.0,0.0,0.0,0.0,0.0,0.0,0.0,0.0,0.0,0.0,0.0,0.0,0.0,0.0,0.4833,0.4618,0.3463,0.153,-0.1174,-0.279,-0.3826,0.0,0.0,0.0,0.0,0.0,0.0,0.0,0.0,0.0,0.0,0.0,0.0,0.0,0.0,0.0,0.0,0.0,0.0,0.0,0.0,0.0,0.0,0.0,0.0,0.0,0.0,0.0,0.0,0.0,0.0,0.0,0.0,0.0,0.0,0.0,0.0,0.0,0.0,0.0,0.0,0.0,0.0,0.0,0.0,0.0,0.0,0.0,0.0,-0.7702,0.0,0.0,0.0,0.0,0.0,0.0,0.0,0.0,0.0,0.0,0.0,0.0,0.0,0.0,0.0,0.0,0.0,0.0,0.0,0.0,0.0,0.0,0.0,0.0,0.0,0.0,0.0,0.0,0.0,0.0,0.0,0.0,0.0,0.0,0.0,0.0,0.0,0.0,0.0,0.0,0.0,0.0,0.0,0.0,0.0,0.0,0.0,0.0,0.0,0.0,0.0,0.0,0.0,0.0,0.0,0.0,0.0,0.0,0.0,0.5115,0.492,0.4019,0.2141,-0.0649,-0.2597,-0.3707,0.0,0.0,0.0,0.0,0.0,0.0,0.0,0.0,0.0,0.0,0.0,0.0,0.0,0.0,0.0,0.0,0.0,0.0,0.0,0.0,0.0,0.0,0.0,0.0,0.0,0.0,0.0,0.0,0.0,0.0,0.0,0.0,0.0,0.0,0.0,0.0,0.0,0.0,0.0,0.0,0.0,0.0,0.0,0.0,0.0,0.0,0.0,0.0,0.0,0.0,0.0,0.0,0.0,0.0,0.0,0.0,0.0,0.0,0.0,0.0,0.0,0.0,0.0,0.0,0.0,0.0,0.0,0.0,0.0,0.0,0.0,0.0,0.0,0.0,0.0,0.0,0.0,0.0,0.0,0.0,0.0,0.0,0.0,0.0,0.0,0.0,0.0,0.0,0.0,0.0,0.0,0.0,0.0,0.0,0.0,0.0,0.0,0.0,0.0,0.0,0.0,0.0,0.0,0.0,0.0,0.0,0.0,0.5311,0.5257,0.4899,0.432,0.2663,-0.0106,-0.2318,-0.3423,-0.3354,0.0,0.0,0.0,0.0,0.0,0.0,0.0,0.0,0.0,0.0,0.0,0.0,0.0,0.0,0.0,0.0,0.0,0.0,0.0,0.0,0.0,0.0,0.0,0.0,0.0,0.0,0.0,0.0,0.0,0.0,0.0,0.0,0.0,0.0,0.0,0.0,0.0,0.0,-0.6397,-0.6802,0.0,0.0,0.0,0.0,0.0,0.0,0.0,0.0,-0.8398,0.0,0.0,0.0,0.0,0.0,0.0,0.0,0.0,0.0,0.0,0.0,0.0,0.0,0.0,0.0,0.0,0.0,0.0,0.0,0.0,0.0,0.0,0.0,0.0,0.0,0.0,0.0,0.0,0.0,0.0,0.0,0.0,0.0,0.0,0.0,0.0,0.0,0.0,0.0,0.0,0.0,0.0,0.0,0.0,0.0,0.0,0.0,0.0,0.0,0.0,0.0,0.0,0.0,0.0,0.0,0.0,0.5562,0.5303,0.5084,0.4904,0.4291,0.2716,0.0034,-0.1857,-0.2917,-0.3074,0.0,0.0,0.0,0.0,0.0,0.0,0.0,0.0,0.0,0.0,0.0,0.0,0.0,0.0,0.0,0.0,0.0,0.0,0.0,0.0,0.0,0.0,0.0,0.0,0.0,0.0,0.0,0.0,0.0,0.0,0.0,0.0,0.0,0.0,0.0,0.0,0.0,0.0,0.0,-0.5876,-0.6779,0.0,0.0,0.0,0.0,0.0,0.0,0.0,0.0,-0.962,0.0,0.0,0.0,0.0,0.0,0.0,0.0,0.0,0.0,0.0,0.0,0.0,0.0,0.0,0.0,0.0,0.0,0.0,0.0,0.0,0.0,0.0,0.0,0.0,0.0,0.0,0.0,0.0,0.0,0.0,0.0,0.0,0.0,0.0,0.0,0.0,0.0,0.0,0.0,0.0,0.0,0.0,0.0,0.0,0.0,0.0,0.0,0.0,0.0,0.0,0.0,0.0,0.0,0.0,0.0,0.5535,0.5196,0.4987,0.4867,0.386,0.2408,0.05,-0.1589,-0.2763,0.0,0.0,0.0,0.0,0.0,0.0,0.0,0.0,0.0,0.0,0.0,0.0,0.0,0.0,0.0,0.0,0.0,0.0,0.0,0.0,0.0,0.0,0.0,0.0,0.0,0.0,0.0,0.0,0.0,0.0,0.0,0.0,0.0,0.0,0.0,0.0,0.0,0.0,0.0,0.0,-0.5472,-0.6471,-0.6624,0.0,0.0,0.0,0.0,0.0,0.0,-0.9396,-1.0395,0.0,0.0,0.0,0.0,0.0,0.0,0.0,0.0,0.0,0.0,0.0,0.0,0.0,0.0,0.0,0.0,0.0,0.0,0.0,0.0,0.0,0.0,0.0,0.0,0.0,0.0,0.0,0.0,0.0,0.0,0.0,0.0,0.0,0.0,0.0,0.0,0.0,0.0,0.0,0.0,0.0,0.0,0.0,0.0,0.0,0.0,0.0,0.0,0.0,0.0,0.0,0.0,0.0,0.0,0.0,0.5584,0.5091,0.4835,0.4824,0.3469,0.2114,0.0903,-0.1257,-0.248,0.0,0.0,0.0,0.0,0.0,0.0,0.0,0.0,0.0,0.0,0.0,0.0,0.0,0.0,0.0,0.0,0.0,0.0,0.0,0.0,0.0,0.0,0.0,0.0,0.0,0.0,0.0,0.0,0.0,0.0,0.0,0.0,0.0,0.0,0.0,0.0,0.0,0.0,0.0,0.0,0.0,-0.5965,-0.6253,-0.7124,0.0,0.0,0.0,0.0,-0.7382,-0.9431,0.0,0.0,0.0,0.0,0.0,0.0,0.0,0.0,0.0,0.0,0.0,0.0,0.0,0.0,0.0,0.0,0.0,0.0,0.0,0.0,0.0,0.0,0.0,0.0,0.0,0.0,0.0,0.0,0.0,0.0,0.0,0.0,0.0,0.0,0.0,0.0,0.0,0.0,0.0,0.0,0.0,0.0,0.0,0.0,0.0,0.0,0.0,0.0,0.0,0.0,0.0,0.0,0.0,0.0,0.0,0.0,0.6022,0.5031,0.4598,0.4813,0.3473,0.2114,0.0935,-0.0639,-0.1842,0.0,0.0,0.0,0.0,0.0,0.0,0.0,0.0,0.0,0.0,0.0,0.0,0.0,0.0,0.0,0.0,0.0,0.0,0.0,0.0,0.0,0.0,0.0,0.0,0.0,0.0,0.0,0.0,0.0,0.0,0.0,0.0,0.0,0.0,0.0,0.0,0.0,0.0,0.0,0.0,0.0,-0.5129,-0.63,-0.6989,-0.7505,0.0,0.0,-0.8053,-0.8417,-0.8814,0.0,0.0,0.0,0.0,0.0,0.0,0.0,0.0,0.0,0.0,0.0,0.0,0.0,0.0,0.0,0.0,0.0,0.0,0.0,0.0,0.0,0.0,0.0,0.0,0.0,0.0,0.0,0.0,0.0,0.0,0.0,0.0,0.0,0.0,0.0,0.0,0.0,0.0,0.0,0.0,0.0,0.0,0.0,0.0,0.0,0.0,0.0,0.0,0.0,0.0,0.0,0.0,0.0,0.0,0.0,0.5187,0.6109,0.5187,0.4898,0.5227,0.3616,0.2456,0.1945,-0.0167,-0.1733,0.0,0.0,0.0,0.0,0.0,0.0,0.0,0.0,0.0,0.0,0.0,0.0,0.0,0.0,0.0,0.0,0.0,0.0,0.0,0.0,0.0,0.0,0.0,0.0,0.0,0.0,0.0,0.0,0.0,0.0,0.0,0.0,0.0,0.0,0.0,0.0,0.0,0.0,0.0,0.0,0.0,0.0,-0.4874,-0.6482,0.0,0.0,0.0,-0.786,-0.8184,0.0,0.0,0.0,0.0,0.0,0.0,0.0,0.0,0.0,0.0,0.0,0.0,0.0,0.0,0.0,0.0,0.0,0.0,0.0,0.0,0.0,0.0,0.0,0.0,0.0,0.0,0.0,0.0,0.0,0.0,0.0,0.0,0.0,0.0,0.0,0.0,0.0,0.0,0.0,0.0,0.0,0.0,0.0,0.0,0.0,0.0,0.0,0.0,0.0,0.0,0.0,0.0,0.0,0.0,0.0,0.0,0.0,0.6152,0.5328,0.5045,0.5363,0.3651,0.256,0.232,-0.0,0.0,0.0,0.0,0.0,0.0,0.0,0.0,0.0,0.0,0.0,0.0,0.0,0.0,0.0,0.0,0.0,0.0,0.0,0.0,0.0,0.0,0.0,0.0,0.0,0.0,0.0,0.0,-0.3408,0.0,0.0,0.0,0.0,0.0,0.0,0.0,0.0,0.0,0.0,0.0,0.0,0.0,0.0,-0.0864,-0.3304,-0.5531,-0.6772,0.0,0.0,-0.7595,-0.8017,-0.9115,-1.0182,0.0,0.0,0.0,0.0,0.0,0.0,0.0,0.0,0.0,0.0,0.0,0.0,0.0,0.0,0.0,0.0,0.0,0.0,0.0,0.0,0.0,0.0,0.0,0.0,0.0,0.0,0.0,0.0,0.0,0.0,0.0,0.0,0.0,0.0,0.0,0.0,0.0,0.0,0.0,0.0,0.0,0.0,0.0,0.0,0.0,0.0,0.0,0.0,0.0,0.0,0.0,0.0,0.0,0.0,0.0,0.6122,0.5328,0.492,0.491,0.3473,0.2286,0.1405,-0.0367,-0.1736,0.0,0.0,0.0,0.0,0.0,0.0,0.0,0.0,0.0,0.0,0.0,0.0,0.0,0.0,0.0,0.0,0.0,0.0,0.0,0.0,0.0,0.0,0.0,0.0,0.0,0.0,0.0,0.0,0.0,0.0,0.0,0.0,0.0,0.0,0.0,0.0,0.0,0.0,0.0,0.0,0.0,-0.0538,-0.1957,-0.387,-0.5481,0.0,0.0,-0.7405,-0.8465,-0.8981,-0.9903,-1.1713,0.0,0.0,0.0,0.0,0.0,0.0,0.0,0.0,0.0,0.0,0.0,0.0,0.0,0.0,0.0,0.0,0.0,0.0,0.0,0.0,0.0,0.0,0.0,0.0,0.0,0.0,0.0,0.0,0.0,0.0,0.0,0.0,0.0,0.0,0.0,0.0,0.0,0.0,0.0,0.0,0.0,0.0,0.0,0.0,0.0,0.0,0.0,0.0,0.0,0.0,0.0,0.0,0.0,0.541,0.6413,0.541,0.4759,0.4385,0.329,0.1978,0.0534,-0.0668,-0.174,0.0,0.0,0.0,0.0,0.0,0.0,0.0,0.0,0.0,0.0,0.0,0.0,0.0,0.0,0.0,0.0,0.0,0.0,0.0,0.0,0.0,0.0,0.0,0.0,0.0,0.0,0.0,0.0,-0.4071,-0.3923,-0.4053,0.0,0.0,0.0,0.0,0.0,0.0,0.0,0.0,0.0,0.0,0.1805,-0.0954,-0.3535,0.0,0.0,-0.6674,-0.7652,-0.8574,-0.8956,-0.9745,-1.1561,-1.2533,0.0,0.0,0.0,0.0,0.0,0.0,0.0,0.0,0.0,0.0,0.0,0.0,0.0,0.0,0.0,0.0,0.0,0.0,0.0,0.0,0.0,0.0,0.0,0.0,0.0,0.0,0.0,0.0,0.0,0.0,0.0,0.0,0.0,0.0,0.0,0.0,0.0,0.0,0.0,0.0,0.0,0.0,0.0,0.0,0.0,0.0,0.0,0.0,0.0,0.0,0.0,0.0,0.5609,0.6587,0.5494,0.4797,0.4555,0.3325,0.2081,0.0835,-0.0567,-0.1742,0.0,0.0,0.0,0.0,0.0,0.0,0.0,0.0,0.0,0.0,0.0,0.0,0.0,0.0,0.0,0.0,0.0,0.0,0.0,0.0,0.0,0.0,0.0,0.0,0.0,0.0,0.0,0.0,-0.4221,-0.4062,-0.4283,0.0,0.0,0.0,0.0,0.0,0.0,0.0,0.0,0.0,0.0,0.35,0.0702,-0.2587,-0.4979,-0.5569,-0.6582,-0.7592,-0.8555,-0.9031,-0.9779,-1.1202,0.0,0.0,0.0,0.0,0.0,0.0,0.0,0.0,0.0,0.0,0.0,0.0,0.0,0.0,0.0,0.0,0.0,0.0,0.0,0.0,0.0,0.0,0.0,0.0,0.0,0.0,0.0,0.0,0.0,0.0,0.0,0.0,0.0,0.0,0.0,0.0,0.0,0.0,0.0,0.0,0.0,0.0,0.0,0.0,0.0,0.0,0.0,0.0,0.0,0.0,0.0,0.0,0.0,0.5844,0.6587,0.55,0.5126,0.5488,0.3691,0.2663,0.2523,0.0067,-0.1742,-0.2696,0.0,0.0,0.0,0.0,0.0,0.0,0.0,0.0,0.0,0.0,0.0,0.0,0.0,0.0,0.0,0.0,0.0,0.0,0.0,0.0,0.0,0.0,0.0,0.0,0.0,0.0,-0.4468,-0.4387,-0.4562,0.0,0.0,0.0,0.0,0.0,0.0,0.0,0.0,0.0,0.0,0.4063,0.4164,0.3163,-0.0744,-0.4304,-0.6141,-0.6556,-0.7107,-0.8475,-0.9266,-0.9962,0.0,0.0,0.0,0.0,0.0,0.0,0.0,0.0,0.0,0.0,0.0,0.0,0.0,0.0,0.0,0.0,0.0,0.0,0.0,0.0,0.0,0.0,0.0,0.0,0.0,0.0,0.0,0.0,0.0,0.0,0.0,0.0,0.0,0.0,0.0,0.0,0.0,0.0,0.0,0.0,-0.3566,-0.3596,0.0,0.0,0.0,0.0,0.0,0.0,0.0,0.0,0.0,0.0,0.0,0.0,0.6144,0.6758,0.5537,0.4964,0.5077,0.3542,0.2387,0.1776,-0.0234,-0.1871,-0.3035,0.0,0.0,0.0,0.0,0.0,0.0,0.0,0.0,0.0,0.0,0.0,0.0,0.0,0.0,0.0,0.0,0.0,0.0,0.0,0.0,0.0,0.0,0.0,0.0,0.0,-0.5898,0.0,0.0,0.0,0.0,0.0,0.0,0.0,0.0,0.0,0.0,0.0,0.0835,0.5468,0.6841,0.6347,0.3585,-0.0154,-0.3366,0.0,0.0,0.0,0.0,0.0,0.0,0.0,0.0,0.0,0.0,0.0,0.0,0.0,0.0,-1.3827,-1.365,-1.361,-1.3799,-1.4367,0.0,0.0,0.0,0.0,0.0,0.0,0.0,0.0,0.0,0.0,0.0,0.0,0.0,0.0,0.0,0.0,0.0,0.0,0.0,0.0,0.0,0.0,0.0,0.0,0.0,0.0,-0.1057,-0.2979,-0.3412,-0.3584,0.0,-0.3596,-0.2795,0.0,0.0,0.0,0.0,0.0,0.0,0.0,0.0,0.6713,0.7238,0.575,0.4875,0.4588,0.3349,0.195,0.0434,-0.1036,-0.2338,-0.3495,-0.3763,-0.3966,0.0,0.0,0.0,0.0,0.0,0.0,0.0,0.0,0.0,0.0,0.0,0.0,0.0,0.0,0.0,0.0,0.0,0.0,0.0,0.0,0.0,0.0,0.0,-0.5531,0.0,0.0,0.0,0.0,0.0,0.0,0.0,0.0,0.0,0.2768,0.3162,0.4277,0.6804,0.8106,0.7529,0.4131,0.0,0.0,0.0,0.0,0.0,0.0,0.0,-1.0336,-1.1191,-1.2626,-1.3822,-1.4356,-1.4926,-1.5332,-1.5332,0.0,0.0,-1.5008,-1.4955,-1.5184,-1.5943,-1.6336,-1.656,-1.6481,-1.7612,-1.8289,0.0,0.0,0.0,0.0,0.0,0.0,0.0,0.0,0.0,0.0,0.0,0.0,0.0,0.0,0.0,0.0,0.0,0.1976,0.0,0.0,0.0,-0.0625,-0.1784,-0.3001,-0.3588,-0.3578,-0.3619,-0.3575,-0.3432,-0.1274,0.0,0.0,0.0,0.0,0.0,0.0,0.7581,0.7807,0.6048,0.4798,0.4158,0.3188,0.1448,-0.1173,-0.2183,-0.3084,-0.3923,-0.3723,-0.3824,-0.4406,-0.4186,0.0,0.0,0.0,0.0,0.0,0.0,0.0,0.0,0.0,0.0,0.0,0.0,0.0,0.0,0.0,0.0,0.0,0.0,0.0,0.0,-0.4518,0.0,0.0,0.0,0.0,0.0,0.0,0.0,0.0,0.0,0.0,0.5949,0.76,0.8189,0.6756,0.0,0.0,0.0,0.0,-0.2764,-0.4295,-0.5591,-0.6706,-0.757,-0.8869,-1.0182,-1.1268,0.0,0.0,-1.5264,-1.6051,-1.6423,-1.6479,-1.6436,-1.6454,-1.6409,-1.6388,-1.678,-1.7839,-1.8305,-1.8495,-1.8266,-1.8425,-1.8576,-0.5832,0.0,0.0,0.0,0.0,0.0,0.0,0.0,0.0,0.0,0.0,0.0,0.0,0.0,0.0,0.0,0.0,0.0,0.3097,0.2483,0.0817,-0.0179,-0.0581,-0.2642,-0.3592,-0.3578,-0.3578,-0.3632,-0.3678,-0.2962,-0.1057,0.1959,0.0,0.0,0.0,0.0,0.8082,0.7814,0.597,0.4859,0.4678,0.3377,0.143,-0.1238,-0.2206,-0.3101,-0.3961,-0.4183,-0.4616,-0.5287,-0.5055,0.0,0.0,0.0,0.0,0.0,0.0,0.0,0.0,0.0,0.0,0.0,0.0,0.0,0.0,0.0,0.0,0.0,0.0,0.0,-0.3953,-0.4039,-0.4,0.0,0.0,0.0,0.0,0.0,0.0,0.0,0.0,0.0,0.4796,0.6072,0.6722,0.0,0.0,0.5437,0.4497,0.0601,-0.2749,-0.4277,-0.5681,0.0,-0.7551,-0.8869,-0.9925,-1.0249,-1.1657,-1.3423,-1.5252,-1.572,-1.6008,-1.6423,-1.6534,-1.6582,-1.6967,-1.7368,-1.78,-1.8535,-1.9049,-1.9354,-1.9258,-1.9325,-1.9228,-0.7025,-0.6909,-0.5585,-0.3745,-0.1552,-0.0431,0.0,0.0,0.0,-0.0531,-0.1427,-0.1426,0.0131,0.2771,0.3979,0.0,0.0,0.0,0.391,0.3672,0.1655,0.0447,-0.0089,-0.1967,-0.3135,-0.3578,-0.3578,-0.3626,-0.371,-0.3728,-0.1578,0.2658,0.0,0.0,0.7963,0.8524,0.8613,0.8152,0.6145,0.5026,0.4971,0.3118,0.1024,-0.1213,-0.2329,-0.3178,-0.3827,-0.4332,-0.49,-0.5518,-0.5814,-0.5712,0.0,0.0,0.0,0.0,0.0,0.0,0.0,0.0,0.0,0.0,0.0,-0.2869,-0.2778,0.0,0.0,0.0,-0.2876,-0.2971,-0.3212,-0.3918,0.0,0.0,0.0,0.0,0.0,0.0,0.0,-0.358,-0.0379,0.2491,0.4271,0.4959,0.5513,0.6095,0.5214,0.4278,0.3613,0.0,-0.2732,-0.4294,-0.5445,-0.6416,-0.7182,-0.8237,-0.9176,-0.9872,-1.1571,-1.3117,-1.4244,-1.4903,-1.5454,-1.5964,-1.5964,-1.5952,-1.6532,-1.7066,-1.7679,-1.8419,-1.8855,-1.9043,-1.9058,-1.908,-1.8968,-0.7439,-0.8136,-0.7134,-0.5743,-0.3986,-0.1327,0.0,-0.0045,0.0,-0.1528,-0.3571,-0.3615,-0.2251,0.0191,0.3046,0.0,0.419,0.4087,0.3973,0.3923,0.2458,0.116,-0.0045,-0.1116,-0.2322,-0.3578,-0.3578,-0.3592,-0.3626,-0.3758,-0.1462,0.3193,0.7742,0.9719,0.9299,0.9341,0.9148,0.8683,0.6458,0.5166,0.4909,0.2544,0.0497,-0.1132,-0.2419,-0.3232,-0.3576,-0.4234,-0.484,-0.5326,-0.6403,-0.6485,-0.5373,0.0,0.0,0.0,0.0,0.0,0.0,0.0,0.0,0.0,0.0,0.0,0.0,0.0,0.0,0.0,-0.298,0.0,-0.2783,-0.4093,0.0,0.0,0.0,-0.4939,-0.4351,-0.4174,-0.3573,-0.2329,0.0,0.0,0.4268,0.4386,0.4529,0.514,0.4824,0.3999,0.2556,-0.0222,-0.2738,-0.4268,-0.5058,-0.5738,-0.6533,-0.7346,-0.8443,-0.9964,-1.1536,-1.2619,-1.2997,-1.3886,-1.4812,-1.541,-1.5107,-1.488,-1.5443,-1.5971,-1.6591,-1.7558,-1.8013,-1.8131,-1.8171,-1.8171,-1.8185,-0.6892,-0.7602,-0.6699,-0.6222,-0.5746,-0.2878,-0.1041,-0.0188,-0.1965,-0.3075,-0.3615,-0.3615,-0.2157,0.0381,0.2007,0.3276,0.4195,0.4043,0.3965,0.3808,0.247,0.1162,0.0,-0.0313,-0.152,-0.3499,-0.3585,-0.3654,-0.3772,-0.2805,-0.055,0.3103,0.805,1.0116,0.9201,0.9556,0.9381,0.8683,0.636,0.4626,0.3554,0.2084,0.0777,-0.0269,-0.2146,-0.3201,-0.3365,-0.4191,-0.4908,-0.5606,-0.6477,-0.6973,-0.6868,-0.6552,0.0,0.0,0.0,0.0,0.0,0.0,0.0,0.0,0.0,-0.2757,-0.2739,0.0,-0.2979,0.0,-0.2774,-0.3458,-0.3437,-0.4677,0.0,0.0,-0.6788,-0.5733,-0.5247,-0.4692,-0.3825,-0.2395,-0.0668,0.1451,0.4166,0.3474,0.2817,0.3011,0.3854,0.4346,0.3863,0.0384,-0.2738,-0.42,-0.4977,-0.5545,-0.6233,-0.7424,-0.8626,-0.9977,-1.0814,-1.1603,-1.275,-1.3512,-1.4236,-1.4789,-1.4789,-1.4801,-1.4869,-1.5005,-1.5186,-1.5608,-1.686,-1.8092,-1.8092,-1.8092,-1.7973,-0.5853,-0.6472,-0.5829,-0.5713,-0.5909,-0.4011,-0.198,-0.0185,-0.2001,-0.2797,-0.2837,-0.3367,-0.249,-0.0489,0.1393,0.2877,0.4093,0.4006,0.3997,0.3906,0.3016,0.1654,0.0,0.0,-0.0715,-0.2014,-0.309,-0.3664,-0.3694,-0.2988,-0.0203,0.4568,0.8162,0.9653,0.919,0.9788,0.9662,0.8696,0.6496,0.4707,0.3354,0.2123,0.1029,0.0,-0.1648,-0.2762,-0.3265,-0.432,-0.5076,-0.5531,-0.6955,-0.7655,-0.7409,-0.7537,-0.7059,0.0,0.0,0.0,0.0,0.0,0.0,0.0,0.0,0.0,0.0,0.0,-0.3261,-0.2392,-0.3079,-0.3723,-0.3965,-0.4944,-0.6415,-0.8567,-0.7045,-0.5797,-0.5529,-0.4904,-0.4196,-0.3299,-0.1338,0.0613,0.2244,0.2354,0.221,0.2191,0.3526,0.4463,0.4003,0.0109,-0.3532,-0.4379,-0.4736,-0.53,-0.6182,-0.735,-0.8423,-0.9409,-1.0257,-1.1258,-1.2638,-1.315,-1.36,-1.4154,-1.4071,-1.4025,-1.4236,-1.4283,-1.4283,-1.4503,-1.5496,-1.6566,-1.6915,-1.7011,-1.6941,-0.4739,-0.526,-0.4927,-0.4955,-0.5144,-0.4596,-0.2689,0.0,-0.1123,-0.1756,-0.2084,-0.315,-0.2993,-0.1871,0.0702,0.2684,0.4036,0.4012,0.3972,0.392,0.369,0.2483,0.0494,0.0,0.0,0.0,-0.2131,-0.3265,-0.3607,-0.3608,-0.0204,0.6176,0.797,0.8847,0.9062,0.9872,0.9675,0.8367,0.6516,0.4947,0.3629,0.2433,0.1234,0.0042,-0.1182,-0.2284,-0.3321,-0.4556,-0.5203,-0.5265,-0.7321,-0.8165,-0.7422,-0.8366,-0.8382,0.0,-0.6644,0.0,0.0,0.0,0.0,0.0,0.0,0.0,0.0,-0.3097,-0.3152,-0.3139,-0.3456,-0.3887,-0.4458,-0.4995,-0.6096,-0.7967,-0.6584,-0.5483,-0.5483,-0.4904,-0.448,-0.4494,-0.2011,-0.0224,0.0112,0.1122,0.1941,0.1885,0.2811,0.3616,0.3404,-0.0711,-0.3993,-0.4212,-0.4411,-0.5105,-0.6289,-0.7158,-0.7893,-0.8754,-0.9841,-1.1099,-1.2317,-1.2675,-1.2949,-1.3341,-1.3228,-1.3152,-1.36,-1.3684,-1.3695,-1.3695,-1.4179,-1.4778,-1.5398,-1.5576,-1.5632,-0.4739,-0.526,-0.5208,-0.4946,-0.4543,-0.398,-0.235,-0.0,-0.0225,-0.1419,-0.3236,-0.3493,-0.3496,-0.3059,-0.0705,0.1894,0.4383,0.4143,0.3881,0.368,0.361,0.3352,0.2802,0.0929,0.0,0.0,-0.0485,-0.1662,-0.3626,-0.3577,-0.0688,0.4837,0.7492,0.8527,0.8069,0.0,0.0,0.0,0.5547,0.4582,0.3594,0.2399,0.1245,0.0044,-0.1157,0.0,-0.3514,-0.4353,-0.4726,-0.4622,-0.6425,0.0,0.0,0.0,0.0,0.0,0.0,0.0,0.0,0.0,0.0,0.0,-0.3461,-0.2672,-0.1764,-0.1086,-0.071,-0.0752,-0.2652,-0.4087,-0.4496,-0.5108,-0.5396,-0.5307,-0.5429,-0.5483,-0.5487,-0.4897,-0.4473,-0.4435,-0.2907,-0.1283,-0.0168,0.028,0.0,0.0,0.0,0.0828,0.0857,-0.1261,-0.2631,-0.2732,-0.3986,-0.5287,-0.6261,-0.696,-0.7656,-0.8604,-0.9438,-1.0269,-1.1049,-1.1701,-1.2021,-1.2248,-1.255,-1.2871,-1.3055,-1.3065,-1.3007,-1.3065,-1.3152,-1.3573,-1.4606,-1.488,-1.488,-0.418,0.0,-0.4464,-0.4284,0.0,-0.3715,-0.259,-0.0833,-0.0232,-0.0663,-0.192,-0.3084,-0.3612,-0.3505,-0.1093,0.0816,0.2288,0.2856,0.3267,0.3602,0.3602,0.2927,0.1815,0.0584,0.0,0.0,0.0,-0.0617,-0.1758,-0.1803,0.0321,0.4501,0.5959,0.6832,0.7182,0.7528,0.7182,0.6192,0.5489,0.4665,0.3795,0.2498,0.1211,0.0048,-0.1282,0.0,0.0,0.0,0.0,0.0,0.0,0.0,0.0,0.0,0.0,-1.0192,-0.8707,-0.7509,-0.7018,-0.5717,-0.4774,-0.4333,-0.3156,-0.1953,-0.0738,-0.0271,-0.0324,-0.1062,-0.2327,-0.3468,-0.4257,-0.4759,-0.505,-0.5148,-0.5105,-0.5109,-0.5378,-0.4897,-0.4525,-0.432,-0.3132,-0.1619,0.0,0.0,0.0,0.0,0.0,-0.0557,-0.198,-0.2834,-0.3309,-0.3352,-0.4069,-0.5038,-0.5832,-0.6523,-0.7402,-0.8528,-0.9347,-0.974,-0.9783,-1.0629,-1.1408,-1.1706,-1.1882,-1.194,-1.2246,-1.2098,-1.199,-1.2236,-1.2098,-1.2344,-1.3494,-1.4071,-1.4329,-0.3595,-0.3615,-0.3664,-0.3636,-0.367,-0.3614,-0.2805,-0.1409,0.0,0.0,0.0,-0.2121,-0.2969,-0.281,-0.0884,0.0,0.0,0.1234,0.2216,0.297,0.2968,0.1934,0.0,0.0,0.0,0.0,0.0,0.0,0.0,0.0535,0.2054,0.4271,0.4484,0.5186,0.6421,0.5869,0.5735,0.6162,0.5531,0.4784,0.4097,0.2644,0.1266,0.005,-0.1157,-0.252,-0.4056,-0.4507,-0.4722,-0.464,-0.601,-0.6797,-0.6789,-0.778,-0.8815,-0.9591,-0.8617,-0.7692,-0.7052,-0.6021,-0.512,-0.4357,-0.3004,-0.1543,0.0,0.0,-0.0715,-0.2476,-0.2598,-0.3079,-0.4144,-0.4379,-0.4794,-0.5559,-0.4956,-0.4732,-0.5218,-0.4838,-0.447,-0.4317,-0.313,-0.1675,0.0,0.0,0.0,0.0,0.0,-0.0953,-0.3434,-0.411,-0.433,-0.4366,-0.4453,-0.4725,-0.5433,-0.6136,-0.7149,-0.8545,-0.9246,-0.9377,-0.912,-0.9798,-1.0762,-1.1216,-1.1015,-1.1116,-1.1466,-1.1216,-1.1007,-1.1516,-1.1216,-1.1124,-1.2206,-1.2919,-1.3416,-0.3653,-0.3761,-0.3854,-0.3887,-0.3912,-0.3689,-0.2334,-0.0261,0.0,0.0,0.0,-0.0384,-0.0501,-0.0501,-0.0168,0.0,0.0,0.0222,0.0383,0.0476,0.0476,0.0312,0.0,0.0,0.0,0.0,0.0,0.0,0.0,0.2561,0.4141,0.4425,0.4501,0.5198,0.6421,0.5869,0.5529,0.5612,0.4969,0.453,0.4404,0.2949,0.1451,0.0101,0.0,-0.1659,-0.4318,-0.4371,-0.4247,-0.4098,-0.4816,-0.5353,-0.5738,-0.6711,-0.7308,-0.7482,-0.7817,-0.7761,-0.7047,-0.6408,-0.5479,-0.4147,-0.3719,-0.2603,0.0,0.0,-0.1146,-0.3805,-0.4015,-0.4217,-0.4481,-0.4446,-0.4584,-0.4684,-0.457,-0.4515,-0.468,-0.4574,-0.4467,-0.448,-0.3183,-0.1673,0.0,0.0,0.0,0.0,0.0,-0.0728,-0.2348,-0.3699,-0.4379,-0.448,-0.447,-0.4787,-0.5324,-0.6095,-0.709,-0.8564,-0.8844,-0.9001,-0.8823,-0.9392,-1.002,-1.0115,-1.0423,-1.0712,-1.0914,-1.0864,-1.0762,-1.0914,-1.0762,-1.0821,-1.1183,-1.1366,-1.1715,-0.3856,-0.3914,-0.3917,-0.3958,-0.3933,-0.3715,-0.2227,0.0,0.0,0.0,0.0,0.0,0.0,0.0,0.0,0.0,0.0,0.0,0.0,0.0,0.0,0.0,0.0,0.0,0.0,0.0,0.0,0.0,0.0,0.1399,0.2914,0.4389,0.4473,0.4842,0.5386,0.5113,0.4952,0.4959,0.4636,0.4501,0.4508,0.3784,0.2335,0.0,0.0,-0.1436,-0.435,-0.4395,-0.4294,-0.4097,-0.4696,-0.5064,-0.5218,-0.6263,-0.6935,-0.6999,-0.7502,-0.774,-0.7515,-0.662,-0.5644,-0.4652,-0.4228,-0.3535,-0.2303,-0.0842,-0.0556,-0.1978,-0.3467,-0.4178,-0.3384,-0.399,-0.4477,-0.4473,-0.4463,-0.4463,-0.4463,-0.447,-0.4477,-0.4428,-0.3872,-0.2577,-0.028,0.0,0.0,0.0,-0.1233,-0.241,-0.2287,-0.3524,-0.4484,-0.4473,-0.4467,-0.4629,-0.4948,-0.5878,-0.681,-0.7543,-0.8281,-0.8699,-0.8804,-0.9113,-0.9368,-0.9718,-0.9821,-0.9865,-1.0167,-0.9909,-0.9909,-1.0167,-0.9917,-0.9961,-1.0517,-1.0813,-1.1023,-0.3993,-0.4023,-0.407,-0.3837,-0.3516,-0.3361,-0.2025,0.0,0.0,0.0,0.0,0.0,0.0,0.0,0.0,0.0,0.0,0.0,0.0,0.0,0.0,0.0,0.0,0.0,0.0,0.0,0.0,0.0,0.0,0.0,0.1174,0.3368,0.415,0.4473,0.4467,0.4463,0.447,0.4477,0.4484,0.4494,0.4501,0.4507,0.3091,0.0,0.0,-0.1393,-0.4268,-0.4473,-0.4412,-0.4304,-0.4673,-0.49,-0.4973,-0.599,-0.6792,-0.7146,-0.7481,-0.7656,-0.7527,-0.664,-0.572,-0.5018,-0.4532,-0.4247,-0.3949,-0.2007,-0.0427,-0.0373,-0.2133,-0.3077,-0.2672,-0.3289,-0.4079,-0.4418,-0.4467,-0.4463,-0.4463,-0.4473,-0.4484,-0.4494,-0.4504,-0.3543,-0.157,-0.0393,0.0,0.0,-0.3088,-0.3875,-0.313,-0.3802,-0.4418,-0.4467,-0.4463,-0.4519,-0.457,-0.5324,-0.6199,-0.6588,-0.7729,-0.8427,-0.8699,-0.8804,-0.8956,-0.9361,-0.9166,-0.9106,-0.9413,-0.9211,-0.9106,-0.9465,-0.9263,-0.9211,-1.0012,-1.021,-1.0517,-0.4053,-0.4167,-0.4174,-0.3489,-0.2471,-0.238,-0.1502,0.0,0.0,0.0,0.0,0.0,0.0,0.0,0.0,0.0,0.0,0.0,0.0,0.0,0.0,0.0,0.0,0.0,0.0,0.0,0.0,0.0,0.0,0.0,0.0,0.0726,0.3125,0.4421,0.4477,0.4477,0.4477,0.4477,0.4501,0.4511,0.4511,0.4514,0.3091,0.0,0.0,-0.1393,-0.4324,-0.4477,-0.4512,-0.4491,-0.4371,-0.455,-0.5083,-0.5743,-0.6584,-0.766,-0.7819,-0.7546,-0.6817,-0.637,-0.5727,-0.4671,-0.4515,-0.4416,-0.4381,-0.3379,-0.191,-0.0751,-0.0383,-0.1448,-0.2666,-0.2777,-0.3229,-0.4356,-0.4463,-0.4463,-0.4463,-0.4473,-0.4477,-0.448,-0.4216,-0.4343,-0.3543,-0.1626,-0.1121,-0.3314,-0.399,-0.4438,-0.4141,-0.4249,-0.4473,-0.4467,-0.4463,-0.4463,-0.4515,-0.4546,-0.5471,-0.6825,-0.7532,-0.8109,-0.8533,-0.8804,-0.8857,-0.8956,-0.891,-0.891,-0.891,-0.8804,-0.8804,-0.8956,-0.891,-0.8857,-0.9015,-0.9113,-0.951,-0.4317,-0.4375,-0.4375,-0.4078,-0.3511,-0.2621,-0.24,-0.2516,-0.0726,0.0,0.0,0.0,0.0,0.0,0.0,0.0,0.0,0.0,0.0,0.0,0.0,0.0,0.0,0.0,0.0,0.0,0.0,0.0,0.0,0.0,0.0,0.0,0.1282,0.2681,0.4317,0.449,0.4494,0.4497,0.4507,0.4462,0.4291,0.2753,0.1289,0.0,0.0,-0.1395,-0.4095,-0.448,-0.447,-0.4515,-0.446,-0.448,-0.4746,-0.536,-0.6115,-0.7045,-0.712,-0.6971,-0.6623,-0.611,-0.5618,-0.5105,-0.4736,-0.447,-0.4428,-0.3574,-0.2821,-0.2743,-0.2658,-0.3074,-0.3741,-0.3683,-0.3852,-0.4411,-0.4463,-0.4463,-0.4463,-0.4473,-0.4196,-0.3294,-0.2347,-0.2637,-0.366,-0.1906,-0.1455,-0.3761,-0.4494,-0.4487,-0.4477,-0.4473,-0.4467,-0.4463,-0.4463,-0.4463,-0.4512,-0.4488,-0.5136,-0.619,-0.7182,-0.7937,-0.854,-0.8804,-0.8804,-0.8804,-0.8804,-0.8804,-0.8804,-0.8804,-0.8804,-0.8804,-0.8804,-0.8804,-0.8804,-0.8804,-0.9113,-0.4463,-0.4463,-0.4463,-0.4467,-0.4366,-0.3294,-0.3466,-0.4212,-0.2179,-0.0781,0.0,0.0,0.0,0.0,0.0,0.0,0.0,0.0,0.0,0.0,0.0,0.0,0.0,0.0,0.0,0.0,0.0,0.0,0.0,0.0,0.0,0.0,0.0,0.1061,0.3137,0.3987,0.4504,0.4514,0.4458,0.412,0.3098,0.1122,0.0,0.0,0.0,-0.1228,-0.3752,-0.4255,-0.4473,-0.4463,-0.4463,-0.4463,-0.4515,-0.5113,-0.5828,-0.651,-0.6598,-0.6406,-0.6084,-0.5684,-0.5433,-0.5218,-0.4732,-0.4467,-0.4359,-0.3793,-0.3738,-0.4245,-0.4487,-0.4428,-0.4484,-0.448,-0.4477,-0.4473,-0.4467,-0.4463,-0.4463,-0.447,-0.4086,-0.2903,-0.1896,-0.1341,-0.3088,-0.2406,-0.2345,-0.4033,-0.448,-0.4473,-0.4473,-0.4467,-0.4463,-0.4463,-0.4463,-0.4463,-0.4515,-0.4501,-0.4918,-0.5571,-0.6568,-0.7283,-0.8262,-0.848,-0.8699,-0.8646,-0.8752,-0.8804,-0.8804,-0.8804,-0.8804,-0.8804,-0.8804,-0.8804,-0.8804,-0.8804,-0.8804,-0.4463,-0.4463,-0.4463,-0.4467,-0.4477,-0.4363,-0.4369,-0.4494,-0.4212,-0.2685,-0.0391,0.0,0.0,0.0,0.0,0.0,0.0,0.0,0.0,0.0,0.0,0.0,0.0,0.0,0.0,0.0,0.0,0.0,0.0,0.0,0.0,0.0,0.0,0.0,0.0,0.2974,0.4399,0.4169,0.4123,0.3098,0.0,0.0,0.0,0.0,0.0,-0.0726,-0.2287,-0.3744,-0.4473,-0.4463,-0.4463,-0.4463,-0.457,-0.5113,-0.5764,-0.6426,-0.6534,-0.5968,-0.4961,-0.514,-0.5218,-0.4677,-0.457,-0.4467,-0.4473,-0.4356,-0.4353,-0.4477,-0.447,-0.4467,-0.4467,-0.4467,-0.4463,-0.4463,-0.4463,-0.4463,-0.4463,-0.447,-0.4477,-0.4082,-0.2959,-0.24,-0.2514,-0.3519,-0.3913,-0.4418,-0.447,-0.4463,-0.4463,-0.4463,-0.4463,-0.4463,-0.4463,-0.4463,-0.4463,-0.4512,-0.478,-0.5374,-0.5919,-0.6249,-0.7069,-0.7836,-0.8215,-0.854,-0.8699,-0.8804,-0.8804,-0.8804,-0.8804,-0.8804,-0.8804,-0.8804,-0.8804,-0.8804,-0.8804,-0.4463,-0.4463,-0.4463,-0.4463,-0.4467,-0.447,-0.4467,-0.4473,-0.4484,-0.3916,-0.2679,-0.0893,0.0,0.0,0.0,0.0,0.0,0.0,0.0,0.0,0.0,0.0,0.0,0.0,0.0,0.0,0.0,0.0,0.0,0.0,0.0,0.0,0.0,0.0,0.0,0.1064,0.1626,0.0,0.1628,0.1066,0.0,0.0,0.0,0.0,0.0,-0.0223,-0.078,-0.3186,-0.4484,-0.4463,-0.4463,-0.4463,-0.4515,-0.4732,-0.4937,-0.5249,-0.5265,-0.5046,-0.4638,-0.4714,-0.4787,-0.457,-0.4463,-0.4463,-0.4467,-0.4467,-0.4463,-0.4467,-0.4463,-0.4463,-0.4463,-0.4463,-0.4463,-0.4463,-0.4463,-0.4463,-0.4463,-0.4467,-0.447,-0.4421,-0.3919,-0.3694,-0.3688,-0.4193,-0.4473,-0.447,-0.4463,-0.4463,-0.4463,-0.4463,-0.4463,-0.4463,-0.4463,-0.4463,-0.4463,-0.4463,-0.4677,-0.5218,-0.5701,-0.6357,-0.7122,-0.7503,-0.7883,-0.8593,-0.8752,-0.8804,-0.8804,-0.8804,-0.8804,-0.8804,-0.8804,-0.8818,-0.8804,-0.8824,-0.8824,-0.4463,-0.4463,-0.4463,-0.4463,-0.4463,-0.4463,-0.4463,-0.4463,-0.447,-0.4477,-0.4079,-0.2287,-0.0948,0.0,0.0,0.0,0.0,0.0,0.0,0.0,0.0,0.0,0.0,0.0,0.0,0.0,0.0,0.0,0.0,0.0,0.0,0.0,0.0,0.0,0.0,0.0,0.0,0.0,0.0,0.0,0.0,0.0,0.0,0.0,0.0,0.0,0.0,-0.2907,-0.4487,-0.4467,-0.4463,-0.4463,-0.4463,-0.4463,-0.4508,-0.4491,-0.4505,-0.4505,-0.4488,-0.4501,-0.4519,-0.4463,-0.4463,-0.4463,-0.4463,-0.4463,-0.4463,-0.4463,-0.4463,-0.4463,-0.4463,-0.4463,-0.4463,-0.4463,-0.4463,-0.4463,-0.4463,-0.4463,-0.4467,-0.447,-0.4421,-0.4421,-0.4477,-0.4473,-0.447,-0.4463,-0.4463,-0.4463,-0.4463,-0.4463,-0.4463,-0.4463,-0.4463,-0.4463,-0.4519,-0.4522,-0.4473,-0.4904,-0.5164,-0.5982,-0.6815,-0.7192,-0.7717,-0.8427,-0.8811,-0.8811,-0.8804,-0.8811,-0.8818,-0.8824,-0.8824,-0.8838,-0.8844,-0.8864,-0.8945,-0.4463,-0.4463,-0.4463,-0.4463,-0.4463,-0.4463,-0.4463,-0.4463,-0.4463,-0.447,-0.4418,-0.4252,-0.2679,0.0,0.0,0.0,0.0,0.0,0.0,0.0,0.0,0.0,0.0,0.0,0.0,0.0,0.0,0.0,0.0,0.0,0.0,0.0,0.0,0.0,0.0,0.0,0.0,0.0,0.0,0.0,0.0,0.0,0.0,0.0,0.0,0.0,-0.0112,-0.2919,-0.4501,-0.4467,-0.4463,-0.4463,-0.4463,-0.4463,-0.446,-0.4512,-0.4463,-0.4463,-0.446,-0.4463,-0.4463,-0.4463,-0.4463,-0.4463,-0.4463,-0.4463,-0.4463,-0.4463,-0.4463,-0.4463,-0.4463,-0.4463,-0.4463,-0.4463,-0.4463,-0.4463,-0.4463,-0.4463,-0.4463,-0.4463,-0.4467,-0.4463,-0.4463,-0.4463,-0.4463,-0.4463,-0.4463,-0.4463,-0.447,-0.4484,-0.4477,-0.448,-0.4531,-0.4579,-0.4524,-0.4529,-0.4536,-0.4595,-0.4691,-0.512,-0.6196,-0.6758,-0.7408,-0.8109,-0.8811,-0.8871,-0.8864,-0.8871,-0.8951,-0.8965,-0.8925,-0.8971,-0.9085,-0.9172,-0.928,-0.4463,-0.4463,-0.4463,-0.4463,-0.4463,-0.4463,-0.4463,-0.4463,-0.4463,-0.4463,-0.4467,-0.4477,-0.3916,-0.3014,-0.2009,-0.0949,0.0,0.0,0.0,0.0,0.0,0.0,0.0,0.0,0.0,0.0,0.0,0.0,0.0,0.0,0.0,0.0,0.0,0.0,0.0,0.0,0.0,0.0,0.0,0.0,0.0,0.0,0.0,0.0,-0.2348,-0.2684,-0.0358,-0.2926,-0.4418,-0.4473,-0.4463,-0.4463,-0.4463,-0.4463,-0.4463,-0.4463,-0.4463,-0.4463,-0.4463,-0.4463,-0.4463,-0.4463,-0.4463,-0.4463,-0.4463,-0.4463,-0.4463,-0.4463,-0.4463,-0.4463,-0.4463,-0.4463,-0.4463,-0.4463,-0.4463,-0.4463,-0.4463,-0.4463,-0.4463,-0.4463,-0.4463,-0.4463,-0.4519,-0.4522,-0.4532,-0.4473,-0.4473,-0.4473,-0.4536,-0.4555,-0.4616,-0.4619,-0.4684,-0.4731,-0.4762,-0.4752,-0.4762,-0.4707,-0.4646,-0.4867,-0.5772,-0.6598,-0.7198,-0.8003,-0.8699,-0.8997,-0.8985,-0.9025,-0.9145,-0.9158,-0.9158,-0.9279,-0.9509,-0.9556,-0.9599,-0.4463,-0.4463,-0.4463,-0.4463,-0.4463,-0.4463,-0.4463,-0.4463,-0.4463,-0.4463,-0.4463,-0.447,-0.4477,-0.4307,-0.3463,-0.2567,-0.1676,-0.1116,-0.0503,0.0,0.0,0.0,0.0,0.0,0.0,0.0,0.0,0.0,0.0,0.0,0.0,0.0,0.0,0.0,0.0,0.0,0.0,0.0,0.0,0.0,0.0,0.0,-0.0631,-0.2102,-0.4226,-0.4127,-0.2246,-0.3867,-0.4654,-0.4522,-0.4497,-0.4463,-0.4463,-0.4463,-0.4463,-0.4463,-0.4463,-0.4463,-0.4463,-0.4463,-0.4463,-0.4463,-0.4463,-0.4463,-0.4463,-0.4463,-0.4463,-0.4463,-0.4463,-0.4463,-0.4463,-0.4463,-0.4463,-0.4463,-0.4463,-0.4463,-0.4463,-0.4463,-0.4463,-0.4463,-0.4463,-0.4487,-0.4587,-0.4604,-0.4604,-0.4604,-0.4548,-0.4604,-0.4622,-0.4687,-0.4691,-0.4758,-0.4882,-0.4924,-0.4961,-0.5036,-0.5057,-0.4963,-0.4797,-0.5124,-0.5705,-0.6529,-0.7212,-0.8441,-0.9253,-0.9329,-0.9332,-0.9426,-0.9526,-0.9472,-0.9426,-0.9502,-0.9693,-0.9836,-0.9914,-0.4519,-0.4519,-0.4463,-0.4463,-0.4463,-0.4463,-0.4463,-0.4463,-0.4463,-0.4463,-0.4463,-0.4463,-0.4467,-0.4477,-0.4307,-0.4141,-0.415,-0.2961,-0.1785,-0.0838,0.0,0.0,0.0,0.0,0.0,0.0,0.0,0.0,0.0,0.0,0.0,0.0,0.0,0.0,0.0,0.0,0.0,0.0,0.0,0.0,0.0,0.0,-0.1633,-0.4834,-0.5239,-0.5242,-0.4987,-0.4991,-0.4921,-0.4611,-0.4512,-0.4563,-0.4553,-0.448,-0.4463,-0.4484,-0.4473,-0.4463,-0.4463,-0.4463,-0.4463,-0.4463,-0.4463,-0.4463,-0.4463,-0.4463,-0.4463,-0.4463,-0.4463,-0.4463,-0.4463,-0.4463,-0.4463,-0.4463,-0.4463,-0.4463,-0.4463,-0.4463,-0.4529,-0.4487,-0.4543,-0.4591,-0.4677,-0.4759,-0.4762,-0.4704,-0.4704,-0.4701,-0.4714,-0.4758,-0.4802,-0.488,-0.5037,-0.5099,-0.5147,-0.5147,-0.5231,-0.5126,-0.5006,-0.5202,-0.5693,-0.6467,-0.7575,-0.8775,-0.9608,-0.9686,-0.9706,-0.9766,-0.9786,-0.974,-0.9708,-0.9741,-0.9886,-1.0089,-1.0168,-0.4948,-0.4519,-0.4463,-0.4463,-0.4463,-0.4463,-0.4519,-0.4519,-0.4467,-0.4473,-0.4467,-0.4463,-0.447,-0.4467,-0.4467,-0.4473,-0.4366,-0.4027,-0.3805,-0.3188,-0.2066,-0.0965,-0.0874,-0.2707,-0.2514,0.0,0.0,0.0,0.0,0.0,0.0,0.0,0.0,0.0,0.0,0.0,0.0,0.0,0.0,0.0,0.0,0.0,0.0,-0.4992,-0.5406,-0.5376,-0.5377,-0.5331,-0.5185,-0.4813,-0.4714,-0.4687,-0.4752,-0.4599,-0.4531,-0.4485,-0.4472,-0.4522,-0.4522,-0.4463,-0.4463,-0.4463,-0.4529,-0.4463,-0.4463,-0.4519,-0.4519,-0.4463,-0.4463,-0.4473,-0.447,-0.4477,-0.4473,-0.4463,-0.449,-0.4484,-0.4473,-0.4519,-0.4556,-0.4602,-0.469,-0.4766,-0.4809,-0.486,-0.486,-0.486,-0.486,-0.4797,-0.4867,-0.4925,-0.4986,-0.5074,-0.5162,-0.5284,-0.5325,-0.5325,-0.5329,-0.5325,-0.5236,-0.5116,-0.5705,-0.6413,-0.7795,-0.9234,-0.9788,-0.9993,-0.9987,-1.0007,-0.9993,-1.0013,-1.0107,-1.0181,-1.0288,-1.0486,-1.0458,-0.5269,-0.4893,-0.4625,-0.4463,-0.4463,-0.4463,-0.4553,-0.4608,-0.4615,-0.4558,-0.4615,-0.4615,-0.458,-0.4522,-0.4463,-0.4467,-0.447,-0.4473,-0.4477,-0.4343,-0.3691,-0.2534,-0.2048,-0.3534,-0.3479,-0.2303,-0.0702,0.0,0.0,0.0,0.0,0.0,0.0,0.0,0.0,0.0,0.0,0.0,0.0,0.0,0.0,-0.1549,-0.3165,-0.5132,-0.5396,-0.5382,-0.5425,-0.5411,-0.529,-0.5013,-0.4877,-0.4826,-0.4891,-0.4762,-0.4636,-0.4536,-0.4525,-0.4558,-0.4541,-0.4504,-0.4463,-0.4532,-0.4563,-0.4611,-0.4635,-0.4609,-0.4657,-0.4667,-0.4596,-0.4592,-0.4653,-0.4657,-0.4653,-0.4667,-0.4657,-0.4629,-0.4572,-0.4626,-0.4691,-0.4762,-0.4796,-0.4903,-0.4986,-0.5006,-0.5009,-0.5006,-0.5071,-0.5009,-0.5016,-0.5098,-0.5162,-0.5226,-0.5267,-0.5367,-0.538,-0.538,-0.538,-0.5391,-0.537,-0.5203,-0.5757,-0.6551,-0.7849,-0.9144,-0.9807,-1.0287,-1.0254,-1.0254,-1.0314,-1.0389,-1.0526,-1.0595,-1.0552,-1.058,-1.058,-0.5487,-0.5328,-0.4732,-0.4473,-0.449,-0.4546,-0.4642,-0.4755,-0.4714,-0.4714,-0.4714,-0.4714,-0.4653,-0.4507,-0.4568,-0.4524,-0.4528,-0.4562,-0.4601,-0.464,-0.4496,-0.4019,-0.3158,-0.331,-0.4113,-0.4323,-0.1872,0.0,0.0,0.0,0.0,0.0,0.0,0.0,0.0,0.0,0.0,0.0,0.0,0.0,0.0,-0.3437,-0.4928,-0.5189,-0.5386,-0.5372,-0.5432,-0.5408,-0.5287,-0.5159,-0.5016,-0.4965,-0.4965,-0.4955,-0.486,-0.4709,-0.4657,-0.4677,-0.4568,-0.4529,-0.4514,-0.4611,-0.466,-0.4711,-0.4735,-0.4809,-0.4867,-0.486,-0.4665,-0.4693,-0.4877,-0.4961,-0.488,-0.487,-0.4901,-0.4867,-0.4799,-0.4847,-0.486,-0.4816,-0.4877,-0.5009,-0.5101,-0.5155,-0.5155,-0.5159,-0.5226,-0.5226,-0.5159,-0.5192,-0.5254,-0.5315,-0.5404,-0.5415,-0.5422,-0.5422,-0.5418,-0.5418,-0.5415,-0.5418,-0.5928,-0.6777,-0.798,-0.9,-0.9838,-1.0316,-1.0468,-1.0508,-1.0541,-1.0591,-1.058,-1.0557,-1.0611,-1.0584,-1.0577,-0.5218,-0.4677,-0.457,-0.4475,-0.4512,-0.4586,-0.4728,-0.4803,-0.487,-0.487,-0.487,-0.487,-0.4843,-0.4809,-0.4792,-0.476,-0.4736,-0.4796,-0.4823,-0.485,-0.4937,-0.4958,-0.4604,-0.4584,-0.5005,-0.5116,-0.4703,-0.3482,-0.2679,-0.3155,-0.3426,-0.2143,0.0,0.0,0.0,0.0,0.0,0.0,0.0,0.0,-0.3574,-0.466,-0.5403,-0.5382,-0.5372,-0.5432,-0.5428,-0.5428,-0.5345,-0.5284,-0.5182,-0.5131,-0.5179,-0.5047,-0.4999,-0.5075,-0.485,-0.4752,-0.4753,-0.4741,-0.4694,-0.4785,-0.4826,-0.487,-0.487,-0.4908,-0.4931,-0.4921,-0.4857,-0.4948,-0.5146,-0.5053,-0.5009,-0.5037,-0.5095,-0.5074,-0.503,-0.4972,-0.4992,-0.4994,-0.5028,-0.5142,-0.5284,-0.5291,-0.5298,-0.5373,-0.537,-0.5373,-0.5367,-0.5353,-0.5384,-0.5428,-0.5428,-0.5428,-0.5428,-0.5435,-0.5452,-0.5449,-0.5446,-0.5425,-0.594,-0.669,-0.7757,-0.889,-1.0021,-1.0301,-1.0231,-1.0428,-1.0358,-1.0491,-1.0555,-1.0618,-1.0618,-1.0618,-1.0618,-0.5784,-0.5186,-0.4847,-0.4666,-0.467,-0.474,-0.482,-0.4934,-0.4954,-0.502,-0.5016,-0.5016,-0.4982,-0.4925,-0.4918,-0.4914,-0.4918,-0.4982,-0.5016,-0.5009,-0.5104,-0.5169,-0.5247,-0.5321,-0.5382,-0.5379,-0.5316,-0.477,-0.45,-0.4721,-0.4797,-0.4036,-0.2822,0.0,0.0,0.0,0.0,0.0,-0.1818,-0.3576,-0.5084,-0.5413,-0.5396,-0.5379,-0.5432,-0.5428,-0.5428,-0.5428,-0.5428,-0.5408,-0.5284,-0.527,-0.5397,-0.5216,-0.5246,-0.5307,-0.5106,-0.487,-0.4904,-0.4894,-0.4893,-0.4918,-0.4975,-0.5009,-0.5043,-0.5077,-0.5125,-0.5128,-0.5131,-0.5195,-0.5385,-0.5262,-0.5191,-0.5202,-0.5253,-0.5237,-0.5226,-0.5172,-0.5145,-0.5223,-0.524,-0.5274,-0.5335,-0.5422,-0.5425,-0.5401,-0.5401,-0.5401,-0.5404,-0.5397,-0.5404,-0.5428,-0.5428,-0.5428,-0.5428,-0.5446,-0.5483,-0.5416,-0.5416,-0.5452,-0.5595,-0.6506,-0.7432,-0.8285,-0.9064,-0.9524,-0.9588,-0.9843,-1.0168,-1.0428,-1.0555,-1.0555,-1.0555,-1.0491,-1.0555,-0.6487,-0.5992,-0.5218,-0.4867,-0.4822,-0.489,-0.5033,-0.5155,-0.5165,-0.5165,-0.5169,-0.5169,-0.5111,-0.5016,-0.5009,-0.5058,-0.5126,-0.514,-0.5154,-0.5162,-0.5179,-0.5247,-0.5328,-0.5362,-0.5372,-0.5432,-0.5382,-0.5183,-0.4852,-0.5235,-0.4993,-0.4836,-0.4379,-0.2957,0.0,0.0,0.0,0.0,-0.3179,-0.4965,-0.5342,-0.5396,-0.5379,-0.543,-0.5379,-0.5432,-0.5428,-0.5428,-0.5428,-0.5428,-0.5428,-0.5428,-0.5428,-0.5428,-0.5428,-0.5415,-0.5182,-0.5065,-0.5061,-0.5043,-0.5027,-0.4979,-0.5091,-0.5159,-0.5196,-0.5254,-0.5301,-0.5391,-0.5387,-0.5387,-0.5425,-0.5387,-0.5394,-0.5408,-0.5418,-0.5428,-0.5428,-0.5428,-0.5404,-0.5404,-0.5321,-0.5338,-0.5348,-0.5428,-0.5428,-0.5428,-0.5428,-0.5428,-0.5428,-0.5428,-0.5428,-0.5428,-0.5428,-0.5494,-0.5507,-0.5592,-0.5623,-0.5501,-0.5488,-0.5504,-0.547,-0.5952,-0.6747,-0.7125,-0.7697,-0.8355,-0.8818,-0.9005,-0.9454,-1.0104,-1.0238,-0.9989,-1.0047,-1.0301,-1.0378,-0.6254,-0.6104,-0.5275,-0.4859,-0.4895,-0.5031,-0.5179,-0.5308,-0.5311,-0.5321,-0.5315,-0.5321,-0.5298,-0.5339,-0.5349,-0.5349,-0.5315,-0.5308,-0.5332,-0.5301,-0.5304,-0.5338,-0.5348,-0.5432,-0.5432,-0.5369,-0.5329,-0.4794,-0.3994,-0.4469,-0.4109,-0.3068,-0.1909,-0.1572,-0.3416,-0.431,-0.2705,-0.1311,-0.3544,-0.4978,-0.5114,-0.5146,-0.5139,-0.5186,-0.5258,-0.5403,-0.5435,-0.5428,-0.5428,-0.5428,-0.5428,-0.5428,-0.5428,-0.5428,-0.5428,-0.5397,-0.5237,-0.5199,-0.5257,-0.5179,-0.5243,-0.5254,-0.5294,-0.5308,-0.5321,-0.5404,-0.5425,-0.5428,-0.5428,-0.5428,-0.5428,-0.5428,-0.5428,-0.5428,-0.5428,-0.5428,-0.5428,-0.5428,-0.5439,-0.5456,-0.5446,-0.5428,-0.5428,-0.5428,-0.5428,-0.5428,-0.5428,-0.5428,-0.5428,-0.5428,-0.5428,-0.5428,-0.5428,-0.5454,-0.5538,-0.5768,-0.5866,-0.5682,-0.5596,-0.5593,-0.5573,-0.559,-0.5977,-0.6479,-0.7061,-0.7736,-0.8057,-0.8172,-0.8484,-0.893,-0.9081,-0.9233,-0.9385,-0.9532,-0.9918,-0.7348,-0.701,-0.6207,-0.5545,-0.5209,-0.524,-0.5291,-0.5418,-0.5428,-0.5428,-0.5428,-0.5428,-0.5428,-0.5428,-0.5428,-0.5428,-0.5428,-0.5428,-0.5428,-0.5428,-0.5428,-0.5428,-0.5432,-0.5435,-0.5369,-0.5466,-0.5457,-0.4606,-0.2812,-0.2463,0.0,-0.143,-0.0362,-0.0945,-0.2753,-0.4268,-0.4232,-0.3285,-0.3632,-0.4136,-0.4132,-0.4171,-0.4196,-0.4253,-0.5168,-0.5521,-0.5459,-0.5454,-0.5433,-0.5446,-0.5428,-0.5428,-0.5428,-0.5428,-0.5428,-0.5411,-0.5287,-0.527,-0.5411,-0.5284,-0.5291,-0.5404,-0.5428,-0.5428,-0.5428,-0.5425,-0.5428,-0.5428,-0.5428,-0.5428,-0.5428,-0.5372,-0.5432,-0.5428,-0.5439,-0.5382,-0.5439,-0.5435,-0.5473,-0.5514,-0.5487,-0.5463,-0.5428,-0.5428,-0.5428,-0.5428,-0.5435,-0.5449,-0.5459,-0.547,-0.5423,-0.543,-0.5454,-0.5566,-0.5661,-0.5835,-0.5934,-0.5813,-0.5722,-0.572,-0.57,-0.5731,-0.5801,-0.6128,-0.6652,-0.7167,-0.7218,-0.7326,-0.7577,-0.7782,-0.8138,-0.844,-0.8537,-0.8756,-0.9177,-0.8685,-0.8156,-0.7307,-0.6367,-0.5501,-0.5602,-0.5557,-0.5428,-0.5428,-0.5428,-0.5428,-0.5428,-0.5428,-0.5428,-0.5428,-0.5428,-0.5428,-0.5428,-0.5428,-0.5428,-0.5428,-0.5428,-0.5369,-0.5406,-0.5437,-0.5474,-0.5713,-0.4956,-0.3513,-0.1513,0.0,0.0,0.0,0.0,0.0,0.0,-0.5027,-0.5105,-0.4235,-0.3347,-0.3382,-0.3572,-0.3611,-0.3459,-0.5107,-0.5825,-0.5593,-0.5528,-0.5518,-0.544,-0.5452,-0.5428,-0.5428,-0.5428,-0.5428,-0.5428,-0.5428,-0.5428,-0.5425,-0.5425,-0.5342,-0.5428,-0.5428,-0.5428,-0.5428,-0.5428,-0.5428,-0.5428,-0.5428,-0.5393,-0.5423,-0.5423,-0.5171,-0.4928,-0.5141,-0.5474,-0.5491,-0.5501,-0.559,-0.559,-0.5542,-0.5559,-0.5586,-0.5518,-0.5552,-0.5552,-0.5559,-0.5552,-0.5559,-0.5538,-0.5545,-0.5542,-0.5586,-0.5701,-0.5786,-0.5844,-0.595,-0.5985,-0.5874,-0.5813,-0.5803,-0.581,-0.5943,-0.5997,-0.5987,-0.639,-0.6415,-0.6564,-0.6718,-0.7017,-0.7403,-0.7683,-0.7807,-0.8044,-0.8326,-0.9238,-0.9075,-0.8221,-0.6889,-0.5759,-0.6244,-0.6075,-0.5491,-0.5428,-0.5428,-0.5428,-0.5428,-0.5428,-0.5428,-0.5428,-0.5428,-0.5428,-0.5428,-0.5439,-0.5456,-0.5439,-0.5446,-0.5463,-0.5511,-0.5538,-0.5586,-0.582,-0.5974,-0.4762,-0.1844,0.0,0.0,0.0,0.0,0.0,-0.4295,-0.6051,-0.601,-0.5567,-0.5318,-0.5338,-0.5522,-0.5522,-0.5571,-0.5742,-0.595,-0.5711,-0.5671,-0.5599,-0.5549,-0.5433,-0.5442,-0.5428,-0.5428,-0.5428,-0.5428,-0.5428,-0.5428,-0.5428,-0.5449,-0.5456,-0.5463,-0.5396,-0.5435,-0.5406,-0.5413,-0.541,-0.5428,-0.5435,-0.543,-0.5381,-0.528,-0.4641,-0.4539,-0.4771,-0.5355,-0.5718,-0.563,-0.565,-0.5694,-0.5677,-0.5803,-0.5919,-0.5834,-0.5755,-0.5752,-0.5742,-0.5718,-0.5684,-0.5633,-0.5654,-0.5654,-0.5711,-0.5827,-0.5905,-0.5962,-0.6017,-0.6061,-0.6023,-0.5973,-0.5969,-0.5959,-0.5918,-0.5905,-0.5918,-0.5915,-0.6158,-0.6235,-0.6097,-0.6183,-0.6594,-0.6855,-0.7095,-0.7306,-0.7534,-1.0047,-0.9913,-0.886,-0.8479,-0.8166,-0.6698,-0.6117,-0.6207,-0.569,-0.5428,-0.5428,-0.5428,-0.5428,-0.5428,-0.5428,-0.5428,-0.5428,-0.5432,-0.5483,-0.545,-0.5494,-0.5454,-0.5552,-0.5525,-0.5511,-0.5728,-0.583,-0.5842,-0.4956,-0.3394,-0.1309,0.0,0.0,0.0,-0.2514,-0.5163,-0.533,-0.5038,-0.5179,-0.5832,-0.5935,-0.6054,-0.6051,-0.5891,-0.6047,-0.5976,-0.5861,-0.5857,-0.5664,-0.559,-0.5507,-0.5518,-0.546,-0.5488,-0.5559,-0.5369,-0.545,-0.545,-0.5456,-0.5514,-0.5542,-0.5586,-0.5552,-0.5623,-0.5613,-0.5596,-0.5555,-0.5426,-0.5491,-0.547,-0.5098,-0.4402,-0.2974,-0.273,-0.4322,-0.5343,-0.5854,-0.5813,-0.5786,-0.5837,-0.5888,-0.6002,-0.6019,-0.5967,-0.5857,-0.5833,-0.5783,-0.5718,-0.5674,-0.5616,-0.5674,-0.5762,-0.5847,-0.5952,-0.602,-0.6078,-0.6135,-0.6173,-0.6173,-0.6135,-0.6201,-0.618,-0.6061,-0.6074,-0.6115,-0.6095,-0.604,-0.6009,-0.5978,-0.5882,-0.5796,-0.6212,-0.6622,-0.6467,-0.6813,-1.0665,-1.0591,-0.9658,-0.967,-1.0059,-0.7683,-0.6967,-0.7125,-0.6266,-0.5792,-0.5627,-0.5557,-0.5428,-0.5428,-0.5428,-0.5428,-0.5432,-0.5403,-0.5481,-0.5518,-0.5545,-0.5606,-0.5684,-0.5616,-0.5674,-0.5861,-0.5952,-0.6017,-0.5424,-0.387,-0.1872,0.0,0.0,0.0,-0.3923,-0.5532,-0.5628,-0.4741,-0.5489,-0.5939,-0.6084,-0.6101,-0.6023,-0.6049,-0.609,-0.6162,-0.5996,-0.5966,-0.5805,-0.5728,-0.5671,-0.5667,-0.5572,-0.5654,-0.5681,-0.5559,-0.5599,-0.5603,-0.5545,-0.5621,-0.5658,-0.5633,-0.5708,-0.5759,-0.5772,-0.58,-0.5772,-0.5501,-0.557,-0.5594,-0.5127,-0.3859,-0.3199,-0.3172,-0.4027,-0.5132,-0.6022,-0.5952,-0.5939,-0.5952,-0.6006,-0.6002,-0.6071,-0.6006,-0.5959,-0.5922,-0.5844,-0.5752,-0.5728,-0.5715,-0.5817,-0.5949,-0.6003,-0.6088,-0.6122,-0.6183,-0.6244,-0.6261,-0.6261,-0.6251,-0.629,-0.629,-0.6196,-0.623,-0.6261,-0.6227,-0.6149,-0.6023,-0.5918,-0.5973,-0.6017,-0.6017,-0.6084,-0.5935,-0.6295,-1.0722,-1.0942,-1.0611,-1.0079,-0.9572,-1.0059,-0.9262,-0.7947,-0.718,-0.668,-0.6432,-0.5826,-0.5379,-0.5428,-0.5432,-0.5435,-0.5376,-0.5511,-0.5586,-0.5647,-0.5705,-0.5769,-0.5833,-0.5891,-0.5942,-0.6027,-0.6074,-0.6162,-0.5705,-0.4048,-0.2034,0.0,0.0,0.0,-0.1805,-0.4231,-0.5789,-0.5452,-0.6103,-0.6176,-0.621,-0.622,-0.6224,-0.6227,-0.6247,-0.6244,-0.6297,-0.6118,-0.6023,-0.5875,-0.5901,-0.581,-0.5742,-0.582,-0.5813,-0.5739,-0.5752,-0.5752,-0.5789,-0.5737,-0.562,-0.5644,-0.5739,-0.5867,-0.5884,-0.5833,-0.5796,-0.5724,-0.5789,-0.5775,-0.5111,-0.4208,-0.3832,-0.3269,-0.3669,-0.4746,-0.5594,-0.6156,-0.6139,-0.6098,-0.6043,-0.594,-0.5407,-0.5121,-0.5888,-0.5934,-0.6101,-0.6012,-0.5993,-0.6003,-0.6088,-0.6173,-0.619,-0.6224,-0.6227,-0.6261,-0.6261,-0.6261,-0.6261,-0.6261,-0.6247,-0.6261,-0.6261,-0.6261,-0.6261,-0.6261,-0.6254,-0.6152,-0.6108,-0.6193,-0.622,-0.6166,-0.6152,-0.6118,-0.6576,-1.0889,-1.0995,-1.1208,-1.1036,-1.061,-1.0573,-1.0023,-0.9047,-0.8188,-0.7446,-0.6907,-0.5966,-0.545,-0.5456,-0.5369,-0.542,-0.5494,-0.5552,-0.5691,-0.5789,-0.5847,-0.5918,-0.5979,-0.5989,-0.5973,-0.6118,-0.6166,-0.6196,-0.6041,-0.4146,-0.2035,0.0,0.0,0.0,0.0,-0.2826,-0.4709,-0.6129,-0.6271,-0.6261,-0.6261,-0.6261,-0.6261,-0.6261,-0.6261,-0.6264,-0.6254,-0.6207,-0.6129,-0.6071,-0.6061,-0.5976,-0.5891,-0.5979,-0.5966,-0.5867,-0.5898,-0.5974,-0.6002,-0.5916,-0.5901,-0.6,-0.6057,-0.6071,-0.6047,-0.6071,-0.602,-0.5986,-0.5942,-0.5919,-0.5641,-0.5069,-0.4412,-0.3258,-0.313,-0.407,-0.5329,-0.6035,-0.6264,-0.6193,-0.5889,-0.5613,-0.4908,-0.4119,-0.5068,-0.5938,-0.6113,-0.6298,-0.6242,-0.6179,-0.6217,-0.6251,-0.6257,-0.6261,-0.6261,-0.6261,-0.6261,-0.6261,-0.6261,-0.6261,-0.6261,-0.6261,-0.6261,-0.6261,-0.6261,-0.6261,-0.6261,-0.6261,-0.6257,-0.6257,-0.6257,-0.6244,-0.6251,-0.6261,-0.6641,-1.1169,-1.1276,-1.147,-1.1456,-1.1222,-1.0995,-1.0565,-1.0074,-0.9474,-0.8383,-0.7168,-0.6395,-0.5834,-0.5627,-0.5447,-0.5521,-0.564,-0.5725,-0.585,-0.5935,-0.6,-0.6071,-0.6115,-0.6118,-0.6091,-0.6207,-0.6183,-0.619,-0.6203,-0.4146,-0.2034,0.0,0.0,0.0,0.0,0.0,0.0,-0.5643,-0.6271,-0.6261,-0.6261,-0.6261,-0.6264,-0.6264,-0.6268,-0.6268,-0.6274,-0.6247,-0.621,-0.6176,-0.6162,-0.6129,-0.6095,-0.6084,-0.6115,-0.6057,-0.601,-0.6112,-0.6222,-0.6134,-0.6105,-0.6176,-0.6217,-0.6234,-0.6261,-0.6257,-0.6169,-0.6118,-0.6098,-0.6098,-0.6108,-0.5682,-0.454,-0.3281,-0.1799,-0.2503,-0.5021,-0.6288,-0.6291,-0.6274,-0.5572,-0.4613,-0.4309,-0.3521,-0.383,-0.5018,-0.5938,-0.6126,-0.6273,-0.6207,-0.6207,-0.6237,-0.6257,-0.6261,-0.6261,-0.6261,-0.6261,-0.6261,-0.6261,-0.6261,-0.6261,-0.6261,-0.6261,-0.6261,-0.6261,-0.6261,-0.6261,-0.6261,-0.6261,-0.6257,-0.6261,-0.6261,-0.6261,-0.6261,-0.6261,-1.1577,-1.1837,-1.1365,-1.1151,-1.1122,-1.1313,-1.1188,-1.0883,-1.0735,-0.9602,-0.7662,-0.7131,-0.6511,-0.592,-0.562,-0.5671,-0.58,-0.5922,-0.6017,-0.6057,-0.6139,-0.6227,-0.6237,-0.6217,-0.6186,-0.624,-0.6234,-0.6234,-0.6278,-0.4616,-0.2422,-0.0783,0.0,0.0,0.0,0.0,0.0,-0.5575,-0.6041,-0.6271,-0.6261,-0.6261,-0.6268,-0.6274,-0.5799,-0.564,-0.5876,-0.6197,-0.6247,-0.6234,-0.6234,-0.622,-0.6213,-0.6213,-0.6227,-0.6217,-0.6217,-0.6307,-0.6307,-0.6108,-0.6139,-0.6237,-0.6261,-0.6264,-0.6261,-0.6257,-0.6257,-0.6203,-0.622,-0.6234,-0.6254,-0.6103,-0.4688,-0.3517,-0.2112,-0.1174,-0.3682,-0.5811,-0.5733,-0.5902,-0.447,-0.3207,-0.3141,-0.2987,-0.2823,-0.3684,-0.5182,-0.5796,-0.569,-0.6234,-0.623,-0.6237,-0.6264,-0.6261,-0.6261,-0.6261,-0.6261,-0.6261,-0.6261,-0.6261,-0.6261,-0.6261,-0.6261,-0.6261,-0.6261,-0.6261,-0.6261,-0.6261,-0.6261,-0.6261,-0.6261,-0.6261,-0.6261,-0.6261,-0.6261,-1.1777,-1.1884,-1.1906,-1.169,-1.1514,-1.1411,-1.1394,-1.1369,-1.0822,-0.984,-0.8563,-0.7771,-0.675,-0.6083,-0.5779,-0.5878,-0.5945,-0.5979,-0.6054,-0.6183,-0.6244,-0.6251,-0.6261,-0.6261,-0.6261,-0.6261,-0.6261,-0.6268,-0.6281,-0.5179,-0.399,-0.2423,0.0,0.0,0.0,0.0,0.0,-0.3988,-0.5323,-0.6271,-0.6261,-0.6268,-0.62,-0.621,-0.5021,-0.4636,-0.4951,-0.5436,-0.6291,-0.6278,-0.6278,-0.6261,-0.6261,-0.6261,-0.6261,-0.6261,-0.6261,-0.6261,-0.6257,-0.6207,-0.6207,-0.6251,-0.6268,-0.6271,-0.6271,-0.6281,-0.6281,-0.6274,-0.6193,-0.6271,-0.6271,-0.6281,-0.5416,-0.4714,-0.3219,-0.1096,-0.1878,-0.383,-0.4851,-0.5263,-0.4555,-0.2506,-0.1648,0.0,0.0,0.0,0.0,0.0,-0.3665,-0.5398,-0.619,-0.6264,-0.6271,-0.6268,-0.6264,-0.6261,-0.6261,-0.6261,-0.6261,-0.6261,-0.6261,-0.6261,-0.6261,-0.6261,-0.6261,-0.6261,-0.6264,-0.6271,-0.6261,-0.6261,-0.6298,-0.6285,-0.6261,-0.6261,-0.6261,-1.2017,-1.2037,-1.2225,-1.2138,-1.187,-1.1526,-1.159,-1.1744,-1.1172,-1.0454,-0.9631,-0.8846,-0.7841,-0.6895,-0.6419,-0.611,-0.6173,-0.6112,-0.6132,-0.6257,-0.6257,-0.6261,-0.6261,-0.6261,-0.6261,-0.6261,-0.6261,-0.6268,-0.6281,-0.6254,-0.5595,-0.4094,0.0,0.0,0.0,0.0,-0.1096,-0.3283,-0.501,-0.6274,-0.6281,-0.6149,-0.5871,-0.5255,-0.4475,-0.3937,-0.3758,-0.4619,-0.6277,-0.6257,-0.6305,-0.6271,-0.6264,-0.6261,-0.6261,-0.6261,-0.6261,-0.6261,-0.6257,-0.6257,-0.6247,-0.6257,-0.6271,-0.6278,-0.6041,-0.5488,-0.5093,-0.5168,-0.5724,-0.6122,-0.6122,-0.6136,-0.5911,-0.5204,-0.3064,-0.0784,-0.0861,-0.2815,-0.4623,-0.4953,-0.424,-0.2195,0.0,0.0,0.0,0.0,0.0,0.0,0.0,0.0,0.0,-0.5171,-0.5799,-0.6035,-0.6109,-0.6264,-0.6261,-0.6261,-0.6261,-0.6261,-0.6261,-0.6261,-0.6261,-0.6261,-0.6268,-0.6271,-0.6281,-0.6285,-0.6322,-0.6363,-0.6403,-0.6363,-0.6281,-0.6281,-0.6302,-1.2305,-1.2305,-1.2305,-1.231,-1.2196,-1.1593,-1.1675,-1.2213,-1.1938,-1.1379,-1.0679,-1.0458,-0.9285,-0.7921,-0.7501,-0.7005,-0.6364,-0.6311,-0.6247,-0.6257,-0.6257,-0.6261,-0.6261,-0.6261,-0.6261,-0.6261,-0.6268,-0.6281,-0.6288,-0.6351,-0.6498,-0.5894,-0.3024,0.0,0.0,0.0,0.0,-0.3134,-0.5129,-0.6165,-0.6335,-0.6258,-0.5583,-0.4887,-0.4272,-0.2893,-0.2638,-0.3273,-0.5297,-0.6064,-0.6307,-0.6318,-0.6281,-0.6271,-0.6268,-0.6261,-0.6261,-0.6261,-0.6261,-0.6261,-0.6261,-0.6264,-0.6271,-0.6278,-0.5407,-0.4148,-0.3521,-0.3754,-0.4382,-0.5254,-0.5817,-0.5911,-0.5927,-0.4173,-0.2042,-0.102,-0.0863,-0.2273,-0.4164,-0.4479,-0.3526,0.0,0.0,0.0,0.0,0.0,0.0,0.0,0.0,0.0,0.0,-0.3205,-0.4066,-0.5646,-0.5879,-0.6116,-0.6268,-0.6268,-0.6261,-0.6261,-0.6261,-0.6261,-0.6261,-0.6264,-0.6274,-0.6295,-0.6335,-0.6383,-0.643,-0.6474,-0.6522,-0.6454,-0.638,-0.638,-0.6383,-1.2305,-1.2305,-1.2305,-1.2331,-1.2105,-1.1095,-1.1215,-1.2084,-1.1481,-1.0959,-1.0777,-1.0787,-0.9745,-0.7846,-0.7723,-0.7138,-0.6623,-0.6257,-0.6257,-0.6261,-0.6261,-0.6261,-0.6261,-0.6261,-0.6261,-0.6261,-0.6271,-0.6305,-0.6417,-0.6475,-0.6723,-0.6443,-0.5017,-0.2991,0.0,0.0,0.0,-0.3163,-0.5354,-0.6175,-0.6458,-0.6397,-0.5794,-0.5515,-0.3521,-0.2022,-0.1343,-0.167,-0.3656,-0.5729,-0.6128,-0.6241,-0.6284,-0.6271,-0.6248,-0.6271,-0.6261,-0.6261,-0.6261,-0.6261,-0.6264,-0.6274,-0.62,-0.5249,-0.4068,-0.2973,-0.2192,-0.321,-0.3443,-0.4073,-0.4392,-0.4479,-0.4093,-0.2357,-0.0942,-0.1099,-0.1177,-0.2429,-0.4162,-0.4325,-0.3372,0.0,0.0,0.0,0.0,0.0,0.0,0.0,0.0,0.0,0.0,0.0,-0.2043,-0.3465,-0.5344,-0.5889,-0.6122,-0.6274,-0.6268,-0.6261,-0.6261,-0.6261,-0.6261,-0.6281,-0.6315,-0.6366,-0.642,-0.6488,-0.6593,-0.661,-0.6644,-0.6559,-0.6495,-0.6502,-0.6512,-1.2305,-1.2305,-1.2305,-1.2305,-1.207,-1.0995,-1.0816,-1.1015,-1.0828,-1.1013,-1.1391,-1.1385,-1.0265,-0.8613,-0.838,-0.7702,-0.6331,-0.6261,-0.6261,-0.6261,-0.6261,-0.6261,-0.6261,-0.6261,-0.6261,-0.6261,-0.6268,-0.6295,-0.6434,-0.6556,-0.6733,-0.7073,-0.679,-0.4598,0.0,0.0,0.0,-0.3325,-0.5192,-0.629,-0.6532,-0.6542,-0.6615,-0.6229,-0.3498,-0.2228,-0.06,-0.111,-0.3572,-0.4927,-0.5004,-0.5015,-0.5273,-0.5595,-0.6238,-0.6298,-0.6458,-0.6417,-0.6301,-0.6352,-0.6325,-0.6132,-0.5649,-0.5021,-0.4711,-0.4164,-0.4084,-0.4399,-0.3446,-0.2738,-0.2818,-0.2663,-0.1489,-0.0314,-0.0628,-0.1021,-0.1882,-0.2818,-0.3528,-0.4086,0.0,0.0,0.0,0.0,0.0,0.0,0.0,0.0,0.0,0.0,0.0,0.0,0.0,-0.1271,-0.3242,-0.5286,-0.5442,-0.5749,-0.6274,-0.6268,-0.6261,-0.6264,-0.6271,-0.6318,-0.6376,-0.6437,-0.6508,-0.6668,-0.6773,-0.6776,-0.6793,-0.679,-0.6719,-0.6644,-0.6658,-1.2305,-1.2305,-1.2305,-1.2305,-1.215,-1.1236,-1.041,-0.9627,-1.0502,-1.1316,-1.2077,-1.2231,-1.1174,-0.9593,-0.9145,-0.8161,-0.6945,-0.649,-0.6261,-0.6261,-0.6261,-0.6261,-0.6261,-0.6261,-0.6261,-0.6261,-0.6278,-0.6315,-0.6369,-0.6563,-0.6854,-0.7034,-0.6863,-0.5313,-0.3202,-0.0936,-0.1262,-0.3458,-0.5424,-0.675,-0.6749,-0.6678,-0.6777,-0.6897,-0.6084,-0.5255,-0.2838,-0.3257,-0.5145,-0.3628,-0.2914,-0.2877,-0.3954,-0.536,-0.6105,-0.6384,-0.658,-0.6502,-0.6437,-0.6417,-0.6373,-0.5689,-0.4626,-0.4961,-0.5137,-0.5288,-0.5358,-0.5349,-0.4631,-0.3917,-0.3839,0.0,0.0,0.0,-0.1493,-0.2438,-0.3616,-0.4081,-0.3999,-0.3849,0.0,0.0,0.0,0.0,0.0,0.0,0.0,0.0,0.0,0.0,0.0,0.0,0.0,-0.0642,-0.2317,-0.3983,-0.4528,-0.4988,-0.5902,-0.6271,-0.6261,-0.6271,-0.6285,-0.638,-0.6481,-0.6532,-0.6617,-0.6793,-0.6909,-0.6885,-0.6922,-0.7014,-0.6966,-0.6841,-0.6831,-1.2305,-1.2305,-1.2305,-1.2305,-1.215,-1.1236,-1.1143,-1.1489,-1.0989,-1.1391,-1.215,-1.2231,-1.162,-1.0415,-0.9669,-0.8613,-0.7557,-0.6795,-0.6335,-0.6261,-0.6261,-0.6261,-0.6261,-0.6261,-0.6261,-0.6261,-0.6288,-0.6307,-0.6413,-0.6719,-0.6987,-0.7122,-0.6926,-0.5849,-0.3884,-0.1474,-0.1292,-0.3568,-0.5681,-0.6834,-0.6888,-0.6914,-0.7011,-0.7024,-0.6719,-0.6634,-0.4552,-0.2671,-0.2306,-0.0709,-0.0709,-0.1663,-0.3444,-0.5611,-0.6599,-0.6651,-0.6661,-0.6596,-0.6541,-0.6458,-0.6358,-0.6321,-0.5732,-0.5899,-0.6057,-0.6264,-0.6322,-0.6308,-0.6058,-0.5341,0.0,0.0,0.0,0.0,-0.2596,-0.4019,-0.5288,-0.4961,-0.4636,-0.2978,-0.1175,0.0,0.0,0.0,0.0,0.0,0.0,0.0,0.0,0.0,0.0,0.0,0.0,-0.0648,-0.2258,-0.3469,-0.435,-0.517,-0.6142,-0.6278,-0.6264,-0.6322,-0.6383,-0.6505,-0.6603,-0.6668,-0.678,-0.6956,-0.7034,-0.6997,-0.7007,-0.7078,-0.7102,-0.701,-0.7027,-1.2305,-1.2305,-1.2305,-1.2305,-1.215,-1.1694,-1.1768,-1.215,-1.1694,-1.1768,-1.2231,-1.2231,-1.1768,-1.0932,-1.019,-0.915,-0.8169,-0.7326,-0.6718,-0.6412,-0.6261,-0.6261,-0.6261,-0.6261,-0.6261,-0.6264,-0.6356,-0.6425,-0.6525,-0.6738,-0.7031,-0.7129,-0.6982,-0.6358,-0.4548,-0.2371,-0.1226,-0.3565,-0.5804,-0.6834,-0.6927,-0.7102,-0.7146,-0.7071,-0.7074,-0.7081,-0.6459,-0.4115,-0.2324,0.0,0.0,0.0,-0.3429,-0.5768,-0.6786,-0.6927,-0.6774,-0.6695,-0.6536,-0.6351,-0.6283,-0.6163,-0.6298,-0.6227,-0.4899,-0.5029,-0.6227,-0.6295,-0.6281,-0.5718,-0.4621,0.0,0.0,0.0,0.0,-0.5454,-0.5849,-0.5758,-0.4789,-0.3207,0.0,0.0,0.0,0.0,0.0,0.0,0.0,0.0,0.0,0.0,0.0,-0.1814,-0.1485,-0.1634,-0.2995,-0.4068,-0.4831,-0.5642,-0.6342,-0.6298,-0.6302,-0.64,-0.6491,-0.6586,-0.6702,-0.6834,-0.6963,-0.6984,-0.7115,-0.7085,-0.7099,-0.7132,-0.7139,-0.7139,-0.7122,-1.2305,-1.2305,-1.2305,-1.2305,-1.2305,-1.2305,-1.2305,-1.2305,-1.2305,-1.2231,-1.2305,-1.2305,-1.1768,-1.1236,-1.0714,-0.9685,-0.8708,-0.7863,-0.7176,-0.649,-0.6338,-0.6261,-0.6261,-0.6261,-0.6281,-0.6352,-0.6451,-0.6569,-0.6639,-0.6903,-0.7065,-0.7132,-0.7071,-0.7084,-0.5791,-0.3441,-0.1671,-0.2931,-0.4694,-0.6461,-0.6848,-0.7156,-0.7146,-0.7143,-0.7143,-0.7149,-0.7078,-0.6364,-0.4293,0.0,0.0,0.0,-0.4013,-0.613,-0.6637,-0.7052,-0.6841,-0.6679,-0.6443,-0.6016,-0.5976,-0.6012,-0.6156,-0.577,-0.454,-0.4891,-0.6015,-0.6342,-0.6332,-0.5902,-0.4875,0.0,0.0,0.0,0.0,-0.6192,-0.626,-0.6274,-0.4993,-0.3469,0.0,0.0,0.0,0.0,0.0,0.0,0.0,0.0,0.0,0.0,0.0,-0.2853,-0.371,-0.4082,-0.4444,-0.4851,-0.565,-0.5924,-0.6481,-0.6386,-0.6356,-0.6485,-0.6583,-0.6637,-0.6759,-0.6936,-0.701,-0.6997,-0.7115,-0.7139,-0.7139,-0.7139,-0.7139,-0.7139,-0.7139,-1.2305,-1.2305,-1.2305,-1.2305,-1.2305,-1.2305,-1.2305,-1.2305,-1.2305,-1.2305,-1.2305,-1.2305,-1.215,-1.1916,-1.1087,-1.0357,-0.9873,-0.8784,-0.7326,-0.6412,-0.6486,-0.6412,-0.6271,-0.6291,-0.6342,-0.6458,-0.66,-0.6676,-0.6781,-0.696,-0.7102,-0.7139,-0.7143,-0.6982,-0.6637,-0.4178,-0.2217,-0.2675,-0.3477,-0.5341,-0.6871,-0.7068,-0.7143,-0.7139,-0.7139,-0.7143,-0.7149,-0.7078,-0.545,-0.3837,-0.3034,-0.42,-0.5371,-0.6618,-0.695,-0.7086,-0.6885,-0.6807,-0.6489,-0.5684,-0.5479,-0.5529,-0.5865,-0.6502,-0.5794,-0.5842,-0.6522,-0.6481,-0.6448,-0.6271,-0.505,-0.2091,0.0,0.0,0.0,-0.5784,-0.6067,-0.6163,-0.5734,-0.3991,0.0,0.0,0.0,0.0,0.0,0.0,0.0,0.0,0.0,0.0,0.0,-0.3241,-0.4908,-0.6043,-0.6263,-0.6056,-0.6562,-0.6678,-0.6627,-0.6549,-0.6539,-0.6614,-0.6695,-0.6746,-0.6885,-0.7065,-0.7115,-0.7105,-0.7119,-0.7139,-0.7139,-0.7139,-0.7139,-0.7139,-0.7139]}]]